ftp/pub/palmer/observations_modified/2019/May/original_files/AR190530_BASE.txt

Download

Sample DateTime	Unit Id	WS Avg 2min	WD Avg 2min	WGS 10min	WGD 10min	Air Temp	Rel Humidity	Dew Point	Pyranometer	Quantum	Air Pressure	Snow Level	Rainfall	PW Current	Visibility	CBase 1	CBase 2	CBase 3	Vert Vis
2019/05/30 00:00:00	BASE	4.06	70	4.42	68	-9.9	83	-12.3	0	0	999.6	NA	0.0000		9999	15450	0	0	0
2019/05/30 00:01:00	BASE	3.79	70	4.42	68	-9.9	83	-12.3	0	0	999.6	NA	0.0000		9999	15390	0	0	0
2019/05/30 00:02:00	BASE	3.87	74	4.42	68	-9.9	82	-12.3	0	0	999.6	NA	0.0000		9999	15420	0	0	0
2019/05/30 00:03:00	BASE	4.00	77	4.42	68	-9.9	83	-12.3	0	0	999.6	NA	0.0000		9999	15720	16370	0	0
2019/05/30 00:04:00	BASE	3.52	82	4.42	68	-9.9	83	-12.3	0	0	999.6	NA	0.0000		9999	16440	0	0	0
2019/05/30 00:05:00	BASE	3.18	89	4.42	68	-9.9	83	-12.3	0	0	999.6	NA	0.0000		9999	16370	0	0	0
2019/05/30 00:06:00	BASE	3.28	88	4.42	68	-9.9	83	-12.3	0	0	999.6	NA	0.0000		9999	16270	0	0	0
2019/05/30 00:07:00	BASE	3.47	82	4.42	68	-9.9	83	-12.2	0	0	999.6	NA	0.0000		9999	16370	0	0	0
2019/05/30 00:08:00	BASE	3.61	81	4.42	68	-9.8	83	-12.2	0	0	999.6	NA	0.0000		9999	16210	0	0	0
2019/05/30 00:09:00	BASE	3.47	82	4.32	69	-9.8	83	-12.1	0	0	999.6	NA	0.0000		9999	16600	0	0	0
2019/05/30 00:10:00	BASE	3.28	79	4.32	69	-9.7	83	-12.1	0	0	999.7	NA	0.0000		9999	16440	0	0	0
2019/05/30 00:11:00	BASE	2.86	82	4.32	69	-9.7	83	-12.1	0	0	999.7	NA	0.0000		9999	16240	16670	0	0
2019/05/30 00:12:00	BASE	2.81	86	4.32	69	-9.8	83	-12.1	0	0	999.7	NA	0.0000		9999	0	0	0	0
2019/05/30 00:13:00	BASE	3.05	85	3.86	83	-9.8	83	-12.2	0	0	999.7	NA	0.0000		9999	0	0	0	0
2019/05/30 00:14:00	BASE	3.19	84	4.37	86	-9.9	83	-12.3	0	0	999.7	NA	0.0000		9999	0	0	0	0
2019/05/30 00:15:00	BASE	3.65	87	4.37	86	-9.9	82	-12.4	0	0	999.7	NA	0.0000		9999	16270	0	0	0
2019/05/30 00:16:00	BASE	3.52	98	4.37	86	-10.0	82	-12.5	0	0	999.7	NA	0.0000		9999	0	0	0	0
2019/05/30 00:17:00	BASE	3.39	98	4.37	86	-10.0	82	-12.5	0	0	999.7	NA	0.0000		9999	16600	0	0	0
2019/05/30 00:18:00	BASE	3.40	92	4.37	86	-10.0	82	-12.5	0	0	999.8	NA	0.0000		9999	16340	0	0	0
2019/05/30 00:19:00	BASE	3.27	91	4.37	86	-10.0	82	-12.5	0	0	999.8	NA	0.0000		9999	16370	0	0	0
2019/05/30 00:20:00	BASE	3.44	89	4.37	86	-10.0	82	-12.5	0	0	999.8	NA	0.0000		9999	0	0	0	0
2019/05/30 00:21:00	BASE	3.53	91	4.37	86	-10.0	82	-12.4	0	0	999.8	NA	0.0000		9999	16410	0	0	0
2019/05/30 00:22:00	BASE	3.44	93	4.37	86	-10.0	82	-12.4	0	0	999.8	NA	0.0000		9999	0	0	0	0
2019/05/30 00:23:00	BASE	3.24	94	4.37	86	-10.0	82	-12.5	0	0	999.8	NA	0.0000		9999	0	0	0	0
2019/05/30 00:24:00	BASE	3.20	92	4.27	96	-10.0	82	-12.5	0	0	999.8	NA	0.0000		9999	0	0	0	0
2019/05/30 00:25:00	BASE	3.14	93	4.06	91	-10.0	82	-12.5	0	0	999.9	NA	0.0000		9999	0	0	0	0
2019/05/30 00:26:00	BASE	3.15	98	4.06	91	-10.0	82	-12.5	0	0	999.9	NA	0.0000		9999	0	0	0	0
2019/05/30 00:27:00	BASE	3.31	100	3.81	91	-10.1	82	-12.6	0	0	999.9	NA	0.0000		9999	0	0	0	0
2019/05/30 00:28:00	BASE	3.30	98	3.81	91	-10.1	82	-12.6	0	0	999.9	NA	0.0000		9999	0	0	0	0
2019/05/30 00:29:00	BASE	3.24	99	3.81	91	-10.2	82	-12.7	0	0	999.9	NA	0.0000		9999	0	0	0	0
2019/05/30 00:30:00	BASE	3.37	97	3.81	91	-10.2	82	-12.7	0	0	999.9	NA	0.0000		9999	0	0	0	0
2019/05/30 00:31:00	BASE	3.40	94	3.70	99	-10.3	82	-12.8	0	0	1000.0	NA	0.0000		9999	0	0	0	0
2019/05/30 00:32:00	BASE	3.39	93	3.70	99	-10.3	82	-12.7	0	0	1000.0	NA	0.0000		9999	0	0	0	0
2019/05/30 00:33:00	BASE	3.41	91	3.70	99	-10.2	82	-12.7	0	0	999.9	NA	0.0000		9999	0	0	0	0
2019/05/30 00:34:00	BASE	3.22	88	3.70	99	-10.1	82	-12.6	0	0	999.9	NA	0.0000		9999	0	0	0	0
2019/05/30 00:35:00	BASE	3.22	83	3.70	99	-10.0	82	-12.4	0	0	1000.0	NA	0.0000		9999	0	0	0	0
2019/05/30 00:36:00	BASE	3.38	81	3.70	99	-9.9	82	-12.3	0	0	1000.1	NA	0.0000		9999	0	0	0	0
2019/05/30 00:37:00	BASE	3.46	79	3.70	99	-9.8	82	-12.2	0	0	1000.1	NA	0.0000		9999	0	0	0	0
2019/05/30 00:38:00	BASE	3.66	75	4.12	74	-9.8	82	-12.2	0	0	1000.1	NA	0.0000		9999	0	0	0	0
2019/05/30 00:39:00	BASE	3.91	72	4.22	70	-9.8	82	-12.3	0	0	1000.1	NA	0.0000		9999	0	0	0	0
2019/05/30 00:40:00	BASE	3.82	72	4.22	70	-9.9	82	-12.3	0	0	1000.1	NA	0.0000		9999	0	0	0	0
2019/05/30 00:41:00	BASE	3.60	75	4.22	70	-9.9	82	-12.4	0	0	1000.1	NA	0.0000		9999	0	0	0	0
2019/05/30 00:42:00	BASE	3.48	76	4.22	70	-9.9	82	-12.4	0	0	1000.1	NA	0.0000		9999	0	0	0	0
2019/05/30 00:43:00	BASE	3.38	75	4.22	70	-9.8	82	-12.3	0	0	1000.1	NA	0.0000		9999	0	0	0	0
2019/05/30 00:44:00	BASE	3.43	74	4.22	70	-9.8	82	-12.3	0	0	1000.2	NA	0.0000		9999	0	0	0	0
2019/05/30 00:45:00	BASE	3.56	69	4.22	70	-9.7	82	-12.2	0	0	1000.2	NA	0.0000		9999	0	0	0	0
2019/05/30 00:46:00	BASE	3.45	66	4.22	70	-9.7	82	-12.2	0	0	1000.2	NA	0.0000		9999	0	0	0	0
2019/05/30 00:47:00	BASE	3.08	64	4.22	70	-9.7	82	-12.1	0	0	1000.2	NA	0.0000		9999	0	0	0	0
2019/05/30 00:48:00	BASE	2.81	61	4.22	70	-9.6	82	-12.1	0	0	1000.2	NA	0.0000		9999	15910	0	0	0
2019/05/30 00:49:00	BASE	2.71	59	3.91	65	-9.7	82	-12.2	0	0	1000.3	NA	0.0000		9999	0	0	0	0
2019/05/30 00:50:00	BASE	2.84	62	3.91	65	-9.6	82	-12.2	0	0	1000.3	NA	0.0000		9999	0	0	0	0
2019/05/30 00:51:00	BASE	3.16	68	4.01	68	-9.7	81	-12.3	0	0	1000.3	NA	0.0000		9999	0	0	0	0
2019/05/30 00:52:00	BASE	3.20	64	4.01	68	-9.7	81	-12.3	0	0	1000.3	NA	0.0000		9999	0	0	0	0
2019/05/30 00:53:00	BASE	3.01	60	4.01	68	-9.7	81	-12.3	0	0	1000.3	NA	0.0000		9999	0	0	0	0
2019/05/30 00:54:00	BASE	2.93	58	4.22	48	-9.7	81	-12.4	0	0	1000.3	NA	0.0000		9999	0	0	0	0
2019/05/30 00:55:00	BASE	3.31	58	4.22	48	-9.8	81	-12.4	0	0	1000.2	NA	0.0000		9999	0	0	0	0
2019/05/30 00:56:00	BASE	3.52	58	4.22	48	-9.8	81	-12.4	0	0	1000.2	NA	0.0000		9999	0	0	0	0
2019/05/30 00:57:00	BASE	3.28	56	4.22	48	-9.8	81	-12.4	0	0	1000.2	NA	0.0000		9999	0	0	0	0
2019/05/30 00:58:00	BASE	3.39	57	4.32	57	-9.8	81	-12.4	0	0	1000.3	NA	0.0000		9999	0	0	0	0
2019/05/30 00:59:00	BASE	3.45	62	4.32	57	-9.8	82	-12.4	0	0	1000.3	NA	0.0000		9999	0	0	0	0
2019/05/30 01:00:00	BASE	3.37	63	4.32	57	-9.8	82	-12.4	0	0	1000.3	NA	0.0000		9999	0	0	0	0
2019/05/30 01:01:00	BASE	3.39	58	4.32	57	-9.8	82	-12.3	0	0	1000.3	NA	0.0000		9999	0	0	0	0
2019/05/30 01:02:00	BASE	3.21	61	4.32	57	-9.8	82	-12.4	0	0	1000.3	NA	0.0000		9999	0	0	0	0
2019/05/30 01:03:00	BASE	3.10	65	4.32	57	-9.8	81	-12.4	0	0	1000.3	NA	0.0000		9999	0	0	0	0
2019/05/30 01:04:00	BASE	2.96	64	4.32	57	-9.8	81	-12.4	0	0	1000.3	NA	0.0000		9999	0	0	0	0
2019/05/30 01:05:00	BASE	3.11	64	4.32	57	-9.8	81	-12.4	0	0	1000.3	NA	0.0000		9999	0	0	0	0
2019/05/30 01:06:00	BASE	3.29	65	4.32	57	-9.8	81	-12.5	0	0	1000.3	NA	0.0000		9999	0	0	0	0
2019/05/30 01:07:00	BASE	2.96	64	4.32	57	-9.9	81	-12.5	0	0	1000.3	NA	0.0000		9999	0	0	0	0
2019/05/30 01:08:00	BASE	3.02	65	4.12	62	-9.9	81	-12.5	0	0	1000.4	NA	0.0000		9999	0	0	0	0
2019/05/30 01:09:00	BASE	3.45	67	4.22	67	-9.9	81	-12.6	0	0	1000.3	NA	0.0000		9999	0	0	0	0
2019/05/30 01:10:00	BASE	3.44	62	4.22	67	-9.9	81	-12.5	0	0	1000.4	NA	0.0000		9999	0	0	0	0
2019/05/30 01:11:00	BASE	3.26	62	4.22	67	-9.8	81	-12.5	0	0	1000.4	NA	0.0000		9999	0	0	0	0
2019/05/30 01:12:00	BASE	3.10	61	4.22	67	-9.8	81	-12.5	0	0	1000.3	NA	0.0000		9999	0	0	0	0
2019/05/30 01:13:00	BASE	3.11	60	4.22	67	-9.8	81	-12.5	0	0	1000.3	NA	0.0000		9999	0	0	0	0
2019/05/30 01:14:00	BASE	3.22	64	4.22	67	-9.7	80	-12.4	0	0	1000.3	NA	0.0000		9999	0	0	0	0
2019/05/30 01:15:00	BASE	3.12	63	4.22	67	-9.6	80	-12.4	0	0	1000.3	NA	0.0000		9999	15290	0	0	0
2019/05/30 01:16:00	BASE	3.22	63	4.22	67	-9.6	80	-12.4	0	0	1000.3	NA	0.0000		9999	0	0	0	0
2019/05/30 01:17:00	BASE	3.53	66	4.22	67	-9.6	80	-12.4	0	0	1000.3	NA	0.0000		9999	0	0	0	0
2019/05/30 01:18:00	BASE	3.46	68	4.22	67	-9.6	80	-12.4	0	0	1000.3	NA	0.0000		9999	0	0	0	0
2019/05/30 01:19:00	BASE	3.30	69	3.91	73	-9.6	80	-12.4	0	0	1000.3	NA	0.0000		9999	0	0	0	0
2019/05/30 01:20:00	BASE	3.24	68	3.91	73	-9.6	80	-12.4	0	0	1000.3	NA	0.0000		9999	0	0	0	0
2019/05/30 01:21:00	BASE	3.02	69	3.91	73	-9.6	80	-12.4	0	0	1000.3	NA	0.0000		9999	0	0	0	0
2019/05/30 01:22:00	BASE	3.06	69	3.91	73	-9.6	80	-12.3	0	0	1000.4	NA	0.0000		9999	0	0	0	0
2019/05/30 01:23:00	BASE	3.20	71	3.91	73	-9.5	80	-12.3	0	0	1000.4	NA	0.0000		9999	13940	0	0	0
2019/05/30 01:24:00	BASE	3.41	68	3.91	73	-9.5	80	-12.2	0	0	1000.4	NA	0.0000		9999	0	0	0	0
2019/05/30 01:25:00	BASE	3.39	58	3.91	73	-9.4	80	-12.2	0	0	1000.3	NA	0.0000		9999	0	0	0	0
2019/05/30 01:26:00	BASE	3.27	56	3.91	73	-9.4	80	-12.2	0	0	1000.3	NA	0.0000		9999	0	0	0	0
2019/05/30 01:27:00	BASE	3.17	56	3.86	76	-9.4	80	-12.2	0	0	1000.3	NA	0.0000		9999	16040	0	0	0
2019/05/30 01:28:00	BASE	3.05	55	3.86	76	-9.4	80	-12.2	0	0	1000.3	NA	0.0000		9999	15680	0	0	0
2019/05/30 01:29:00	BASE	3.19	57	3.86	76	-9.4	80	-12.2	0	0	1000.4	NA	0.0000		9999	0	0	0	0
2019/05/30 01:30:00	BASE	3.18	59	3.86	76	-9.4	80	-12.2	0	0	1000.4	NA	0.0000		9999	0	0	0	0
2019/05/30 01:31:00	BASE	3.25	60	3.86	76	-9.4	80	-12.2	0	0	1000.4	NA	0.0000		9999	15950	0	0	0
2019/05/30 01:32:00	BASE	3.32	54	3.86	76	-9.4	80	-12.2	0	0	1000.4	NA	0.0000		9999	15320	0	0	0
2019/05/30 01:33:00	BASE	3.34	50	3.81	65	-9.4	80	-12.1	0	0	1000.4	NA	0.0000		9999	15780	0	0	0
2019/05/30 01:34:00	BASE	3.40	55	3.81	65	-9.4	81	-12.1	0	0	1000.4	NA	0.0000		9999	0	0	0	0
2019/05/30 01:35:00	BASE	3.29	60	3.81	65	-9.4	81	-12.0	0	0	1000.4	NA	0.0000		9999	0	0	0	0
2019/05/30 01:36:00	BASE	3.13	60	3.81	65	-9.3	81	-12.0	0	0	1000.4	NA	0.0000		9999	0	0	0	0
2019/05/30 01:37:00	BASE	2.95	58	3.81	65	-9.3	81	-12.0	0	0	1000.4	NA	0.0000		9999	0	0	0	0
2019/05/30 01:38:00	BASE	2.74	57	3.81	65	-9.3	81	-12.0	0	0	1000.4	NA	0.0000		9999	15390	0	0	0
2019/05/30 01:39:00	BASE	2.50	59	3.81	65	-9.3	81	-12.0	0	0	1000.4	NA	0.0000		9999	15320	0	0	0
2019/05/30 01:40:00	BASE	2.57	64	3.81	65	-9.3	81	-12.0	0	0	1000.4	NA	0.0000		9999	0	0	0	0
2019/05/30 01:41:00	BASE	2.54	65	3.76	51	-9.3	81	-11.9	0	0	1000.4	NA	0.0000		9999	0	0	0	0
2019/05/30 01:42:00	BASE	2.66	62	3.76	51	-9.3	81	-11.9	0	0	1000.4	NA	0.0000		9999	0	0	0	0
2019/05/30 01:43:00	BASE	2.96	65	3.70	62	-9.2	81	-11.9	0	0	1000.4	NA	0.0000		9999	0	0	0	0
2019/05/30 01:44:00	BASE	2.75	74	3.55	64	-9.2	81	-11.9	0	0	1000.5	NA	0.0000		9999	0	0	0	0
2019/05/30 01:45:00	BASE	2.71	90	3.34	58	-9.2	81	-11.8	0	0	1000.5	NA	0.0000		9999	0	0	0	0
2019/05/30 01:46:00	BASE	2.99	103	3.34	106	-9.2	81	-11.9	0	0	1000.5	NA	0.0000		9999	0	0	0	0
2019/05/30 01:47:00	BASE	2.95	107	3.34	106	-9.2	81	-11.9	0	0	1000.5	NA	0.0000		9999	15090	0	0	0
2019/05/30 01:48:00	BASE	2.73	109	3.34	106	-9.3	80	-12.0	0	0	1000.5	NA	0.0000		9999	0	0	0	0
2019/05/30 01:49:00	BASE	2.70	114	3.34	121	-9.3	80	-12.1	0	0	1000.5	NA	0.0000		9999	16080	0	0	0
2019/05/30 01:50:00	BASE	2.76	119	3.34	121	-9.4	80	-12.2	0	0	1000.6	NA	0.0000		9999	0	0	0	0
2019/05/30 01:51:00	BASE	2.86	118	3.34	121	-9.4	80	-12.3	0	0	1000.7	NA	0.0000		9999	0	0	0	0
2019/05/30 01:52:00	BASE	2.96	116	3.34	120	-9.4	80	-12.3	0	0	1000.7	NA	0.0000		9999	0	0	0	0
2019/05/30 01:53:00	BASE	2.98	116	3.34	120	-9.3	80	-12.2	0	0	1000.7	NA	0.0000		9999	0	0	0	0
2019/05/30 01:54:00	BASE	3.15	116	3.45	119	-9.3	80	-12.1	0	0	1000.7	NA	0.0000		9999	0	0	0	0
2019/05/30 01:55:00	BASE	3.27	114	3.45	119	-9.1	80	-12.0	0	0	1000.8	NA	0.0000		9999	0	0	0	0
2019/05/30 01:56:00	BASE	3.23	113	3.45	115	-9.0	80	-11.8	0	0	1000.8	NA	0.0000		9999	0	0	0	0
2019/05/30 01:57:00	BASE	3.33	114	3.45	116	-8.9	80	-11.8	0	0	1000.8	NA	0.0000		9999	0	0	0	0
2019/05/30 01:58:00	BASE	3.47	115	3.81	121	-8.9	79	-11.9	0	0	1000.8	NA	0.0000		9999	0	0	0	0
2019/05/30 01:59:00	BASE	3.45	117	3.81	121	-9.0	79	-11.9	0	0	1000.8	NA	0.0000		9999	0	0	0	0
2019/05/30 02:00:00	BASE	3.28	113	3.81	121	-9.0	79	-12.0	0	0	1000.8	NA	0.0000		9999	0	0	0	0
2019/05/30 02:01:00	BASE	3.37	107	3.86	107	-9.1	79	-12.1	0	0	1000.8	NA	0.0000		9999	0	0	0	0
2019/05/30 02:02:00	BASE	3.57	106	3.86	107	-9.2	78	-12.2	0	0	1000.8	NA	0.0000		9999	0	0	0	0
2019/05/30 02:03:00	BASE	3.67	104	4.01	101	-9.3	78	-12.3	0	0	1000.8	NA	0.0000		9999	0	0	0	0
2019/05/30 02:04:00	BASE	3.81	103	4.17	104	-9.3	78	-12.5	0	0	1000.9	NA	0.0000		9999	0	0	0	0
2019/05/30 02:05:00	BASE	3.78	107	4.22	113	-9.4	78	-12.6	0	0	1000.9	NA	0.0000		9999	0	0	0	0
2019/05/30 02:06:00	BASE	3.57	110	4.22	113	-9.5	78	-12.5	0	0	1000.9	NA	0.0000		9999	0	0	0	0
2019/05/30 02:07:00	BASE	3.60	115	4.27	130	-9.4	78	-12.5	0	0	1000.9	NA	0.0000		9999	0	0	0	0
2019/05/30 02:08:00	BASE	3.57	116	4.27	130	-9.4	78	-12.5	0	0	1000.9	NA	0.0000		9999	0	0	0	0
2019/05/30 02:09:00	BASE	3.33	113	4.27	130	-9.4	79	-12.4	0	0	1000.9	NA	0.0000		9999	0	0	0	0
2019/05/30 02:10:00	BASE	3.39	113	4.27	130	-9.3	79	-12.3	0	0	1000.9	NA	0.0000		9999	0	0	0	0
2019/05/30 02:11:00	BASE	3.40	115	4.27	130	-9.3	79	-12.3	0	0	1000.9	NA	0.0000		9999	0	0	0	0
2019/05/30 02:12:00	BASE	3.29	118	4.27	130	-9.3	78	-12.3	0	0	1000.9	NA	0.0000		9999	0	0	0	0
2019/05/30 02:13:00	BASE	3.20	118	4.27	130	-9.3	78	-12.3	0	0	1000.9	NA	0.0000		9999	0	0	0	0
2019/05/30 02:14:00	BASE	3.17	114	4.27	130	-9.2	78	-12.3	0	0	1000.9	NA	0.0000		9999	0	0	0	0
2019/05/30 02:15:00	BASE	3.20	115	4.27	130	-9.2	78	-12.4	0	0	1001.0	NA	0.0000		9999	0	0	0	0
2019/05/30 02:16:00	BASE	3.19	119	4.27	130	-9.2	78	-12.4	0	0	1001.0	NA	0.0000		9999	14210	0	0	0
2019/05/30 02:17:00	BASE	3.27	122	4.01	116	-9.2	78	-12.4	0	0	1001.0	NA	0.0000		9999	0	0	0	0
2019/05/30 02:18:00	BASE	3.42	121	4.01	116	-9.2	77	-12.4	0	0	1001.0	NA	0.0000		9999	14700	0	0	0
2019/05/30 02:19:00	BASE	3.50	120	4.01	116	-9.2	77	-12.5	0	0	1001.0	NA	0.0000		9999	15580	0	0	0
2019/05/30 02:20:00	BASE	3.59	117	3.96	113	-9.2	77	-12.5	0	0	1001.0	NA	0.0000		9999	16010	0	0	0
2019/05/30 02:21:00	BASE	3.71	115	3.96	115	-9.3	77	-12.5	0	0	1001.0	NA	0.0000		9999	15910	0	0	0
2019/05/30 02:22:00	BASE	3.72	116	3.96	115	-9.3	78	-12.5	0	0	1001.0	NA	0.0000		9999	0	0	0	0
2019/05/30 02:23:00	BASE	3.78	116	4.01	119	-9.2	78	-12.4	0	0	1001.1	NA	0.0000		9999	15950	0	0	0
2019/05/30 02:24:00	BASE	3.78	116	4.01	119	-9.2	78	-12.3	0	0	1001.1	NA	0.0000		9999	16340	0	0	0
2019/05/30 02:25:00	BASE	3.70	115	4.01	119	-9.2	78	-12.3	0	0	1001.1	NA	0.0000		9999	14500	0	0	0
2019/05/30 02:26:00	BASE	3.87	114	4.22	120	-9.2	77	-12.4	0	0	1001.1	NA	0.0000		9999	0	0	0	0
2019/05/30 02:27:00	BASE	4.06	113	4.32	115	-9.2	77	-12.5	0	0	1001.1	NA	0.0000		9999	16310	0	0	0
2019/05/30 02:28:00	BASE	4.21	113	4.63	117	-9.3	76	-12.7	0	0	1001.1	NA	0.0000		9999	15910	0	0	0
2019/05/30 02:29:00	BASE	4.33	115	4.73	124	-9.3	75	-12.9	0	0	1001.1	NA	0.0000		9999	15910	0	0	0
2019/05/30 02:30:00	BASE	4.25	118	4.73	124	-9.4	74	-13.1	0	0	1001.1	NA	0.0000		9999	0	0	0	0
2019/05/30 02:31:00	BASE	4.04	122	4.73	124	-9.4	74	-13.2	0	0	1001.1	NA	0.0000		9999	0	0	0	0
2019/05/30 02:32:00	BASE	3.90	123	4.73	124	-9.4	73	-13.3	0	0	1001.2	NA	0.0000		9999	0	0	0	0
2019/05/30 02:33:00	BASE	3.94	122	4.73	124	-9.5	73	-13.4	0	0	1001.3	NA	0.0000		9999	0	0	0	0
2019/05/30 02:34:00	BASE	4.01	121	4.73	124	-9.5	73	-13.5	0	0	1001.3	NA	0.0000		9999	0	0	0	0
2019/05/30 02:35:00	BASE	3.94	122	4.73	124	-9.5	72	-13.5	0	0	1001.3	NA	0.0000		9999	14570	0	0	0
2019/05/30 02:36:00	BASE	3.86	123	4.73	124	-9.5	72	-13.6	0	0	1001.3	NA	0.0000		9999	0	0	0	0
2019/05/30 02:37:00	BASE	3.82	121	4.73	124	-9.4	72	-13.6	0	0	1001.3	NA	0.0000		9999	15810	0	0	0
2019/05/30 02:38:00	BASE	3.70	120	4.73	124	-9.3	71	-13.6	0	0	1001.3	NA	0.0000		9999	16240	0	0	0
2019/05/30 02:39:00	BASE	3.65	123	4.48	125	-9.3	71	-13.6	0	0	1001.3	NA	0.0000		9999	16110	0	0	0
2019/05/30 02:40:00	BASE	3.77	126	4.32	121	-9.3	71	-13.6	0	0	1001.3	NA	0.0000		9999	0	0	0	0
2019/05/30 02:41:00	BASE	3.72	126	4.32	121	-9.3	71	-13.6	0	0	1001.3	NA	0.0000		9999	14830	0	0	0
2019/05/30 02:42:00	BASE	3.67	125	4.32	121	-9.3	71	-13.6	0	0	1001.3	NA	0.0000		9999	0	0	0	0
2019/05/30 02:43:00	BASE	3.75	123	4.32	121	-9.4	71	-13.6	0	0	1001.3	NA	0.0000		9999	0	0	0	0
2019/05/30 02:44:00	BASE	3.86	120	4.22	117	-9.4	71	-13.6	0	0	1001.3	NA	0.0000		9999	0	0	0	0
2019/05/30 02:45:00	BASE	3.92	118	4.22	117	-9.4	71	-13.7	0	0	1001.3	NA	0.0000		9999	0	0	0	0
2019/05/30 02:46:00	BASE	3.91	119	4.37	119	-9.3	71	-13.7	0	0	1001.3	NA	0.0000		9999	0	0	0	0
2019/05/30 02:47:00	BASE	4.04	122	4.37	119	-9.3	70	-13.8	0	0	1001.3	NA	0.0000		9999	0	0	0	0
2019/05/30 02:48:00	BASE	3.96	123	4.37	119	-9.3	70	-13.8	0	0	1001.3	NA	0.0000		9999	0	0	0	0
2019/05/30 02:49:00	BASE	3.82	124	4.37	119	-9.4	69	-13.9	0	0	1001.3	NA	0.0000		9999	0	0	0	0
2019/05/30 02:50:00	BASE	4.01	128	4.42	133	-9.4	69	-14.0	0	0	1001.4	NA	0.0000		9999	0	0	0	0
2019/05/30 02:51:00	BASE	3.87	132	4.42	133	-9.4	69	-14.1	0	0	1001.4	NA	0.0000		9999	0	0	0	0
2019/05/30 02:52:00	BASE	3.58	134	4.42	133	-9.4	68	-14.1	0	0	1001.5	NA	0.0000		9999	0	0	0	0
2019/05/30 02:53:00	BASE	3.42	133	4.42	133	-9.3	68	-14.1	0	0	1001.5	NA	0.0000		9999	0	0	0	0
2019/05/30 02:54:00	BASE	3.13	131	4.42	133	-9.3	68	-14.1	0	0	1001.5	NA	0.0000		9999	0	0	0	0
2019/05/30 02:55:00	BASE	2.93	131	4.42	133	-9.2	68	-14.1	0	0	1001.5	NA	0.0000		9999	0	0	0	0
2019/05/30 02:56:00	BASE	2.69	128	4.42	133	-9.2	68	-14.0	0	0	1001.5	NA	0.0000		9999	0	0	0	0
2019/05/30 02:57:00	BASE	2.56	121	4.42	133	-9.1	67	-14.0	0	0	1001.5	NA	0.0000		9999	0	0	0	0
2019/05/30 02:58:00	BASE	2.81	115	4.42	133	-9.1	67	-14.0	0	0	1001.5	NA	0.0000		9999	0	0	0	0
2019/05/30 02:59:00	BASE	3.08	114	4.42	133	-9.1	67	-14.1	0	0	1001.5	NA	0.0000		9999	0	0	0	0
2019/05/30 03:00:00	BASE	3.10	115	3.91	133	-9.1	67	-14.1	0	0	1001.5	NA	0.0000		9999	0	0	0	0
2019/05/30 03:01:00	BASE	3.20	117	3.70	122	-9.1	67	-14.1	0	0	1001.5	NA	0.0000		9999	0	0	0	0
2019/05/30 03:02:00	BASE	3.21	119	3.70	122	-9.1	67	-14.1	0	0	1001.5	NA	0.0000		9999	0	0	0	0
2019/05/30 03:03:00	BASE	3.10	119	3.70	122	-9.2	67	-14.2	0	0	1001.5	NA	0.0000		9999	0	0	0	0
2019/05/30 03:04:00	BASE	3.02	115	3.70	122	-9.2	67	-14.2	0	0	1001.5	NA	0.0000		9999	0	0	0	0
2019/05/30 03:05:00	BASE	2.83	117	3.70	122	-9.1	67	-14.1	0	0	1001.5	NA	0.0000		9999	0	0	0	0
2019/05/30 03:06:00	BASE	2.64	119	3.70	122	-9.1	67	-14.1	0	0	1001.5	NA	0.0000		9999	0	0	0	0
2019/05/30 03:07:00	BASE	2.69	117	3.70	122	-9.0	67	-14.0	0	0	1001.6	NA	0.0000		9999	0	0	0	0
2019/05/30 03:08:00	BASE	2.81	119	3.70	122	-9.0	67	-14.0	0	0	1001.6	NA	0.0000		9999	0	0	0	0
2019/05/30 03:09:00	BASE	2.78	121	3.70	122	-8.9	67	-14.0	0	0	1001.6	NA	0.0000		9999	0	0	0	0
2019/05/30 03:10:00	BASE	2.81	121	3.70	122	-9.0	67	-13.9	0	0	1001.6	NA	0.0000		9999	0	0	0	0
2019/05/30 03:11:00	BASE	2.89	117	3.24	121	-9.0	67	-14.0	0	0	1001.6	NA	0.0000		9999	0	0	0	0
2019/05/30 03:12:00	BASE	3.10	112	3.55	106	-9.1	68	-14.0	0	0	1001.6	NA	0.0000		9999	0	0	0	0
2019/05/30 03:13:00	BASE	3.40	107	3.65	110	-9.2	68	-14.1	0	0	1001.6	NA	0.0000		9999	0	0	0	0
2019/05/30 03:14:00	BASE	3.51	104	3.86	96	-9.3	68	-14.1	0	0	1001.6	NA	0.0000		9999	14340	0	0	0
2019/05/30 03:15:00	BASE	3.66	101	4.06	93	-9.4	68	-14.2	0	0	1001.6	NA	0.0000		9999	0	0	0	0
2019/05/30 03:16:00	BASE	3.79	98	4.48	104	-9.5	68	-14.4	0	0	1001.6	NA	0.0000		9999	14470	0	0	0
2019/05/30 03:17:00	BASE	3.61	96	4.48	104	-9.5	67	-14.4	0	0	1001.7	NA	0.0000		9999	0	0	0	0
2019/05/30 03:18:00	BASE	3.33	94	4.48	104	-9.5	67	-14.4	0	0	1001.7	NA	0.0000		9999	0	0	0	0
2019/05/30 03:19:00	BASE	3.28	98	4.48	104	-9.4	67	-14.5	0	0	1001.7	NA	0.0000		9999	0	0	0	0
2019/05/30 03:20:00	BASE	3.24	104	4.48	104	-9.3	66	-14.5	0	0	1001.7	NA	0.0000		9999	0	0	0	0
2019/05/30 03:21:00	BASE	3.28	107	4.48	104	-9.2	66	-14.4	0	0	1001.7	NA	0.0000		9999	14670	0	0	0
2019/05/30 03:22:00	BASE	3.26	110	4.48	104	-9.1	65	-14.4	0	0	1001.7	NA	0.0000		9999	14760	0	0	0
2019/05/30 03:23:00	BASE	3.28	109	4.48	104	-9.0	65	-14.4	0	0	1001.7	NA	0.0000		9999	13980	0	0	0
2019/05/30 03:24:00	BASE	3.28	106	4.48	104	-9.0	65	-14.4	0	0	1001.6	NA	0.0000		9999	14270	0	0	0
2019/05/30 03:25:00	BASE	3.23	100	4.48	104	-9.0	64	-14.5	0	0	1001.6	NA	0.0000		9999	14570	0	0	0
2019/05/30 03:26:00	BASE	3.35	97	4.01	97	-9.0	64	-14.6	0	0	1001.7	NA	0.0000		9999	0	0	0	0
2019/05/30 03:27:00	BASE	3.32	98	3.81	109	-9.1	64	-14.7	0	0	1001.7	NA	0.0000		9999	14470	0	0	0
2019/05/30 03:28:00	BASE	3.22	99	3.81	109	-9.2	64	-14.9	0	0	1001.7	NA	0.0000		9999	14270	0	0	0
2019/05/30 03:29:00	BASE	3.28	96	3.81	109	-9.3	63	-15.0	0	0	1001.7	NA	0.0000		9999	0	0	0	0
2019/05/30 03:30:00	BASE	3.53	92	3.81	88	-9.4	63	-15.1	0	0	1001.6	NA	0.0000		9999	14730	0	0	0
2019/05/30 03:31:00	BASE	3.62	94	3.81	88	-9.4	63	-15.2	0	0	1001.6	NA	0.0000		9999	14860	0	0	0
2019/05/30 03:32:00	BASE	3.63	94	3.96	92	-9.4	63	-15.1	0	0	1001.6	NA	0.0000		9999	14530	0	0	0
2019/05/30 03:33:00	BASE	3.72	94	4.01	95	-9.4	63	-15.0	0	0	1001.6	NA	0.0000		9999	0	0	0	0
2019/05/30 03:34:00	BASE	3.70	95	4.22	97	-9.4	64	-15.0	0	0	1001.6	NA	0.0000		9999	0	0	0	0
2019/05/30 03:35:00	BASE	3.78	95	4.22	97	-9.3	64	-14.9	0	0	1001.6	NA	0.0000		9999	0	0	0	0
2019/05/30 03:36:00	BASE	3.70	96	4.22	97	-9.3	64	-14.8	0	0	1001.6	NA	0.0000		9999	0	0	0	0
2019/05/30 03:37:00	BASE	3.51	98	4.22	97	-9.3	64	-14.8	0	0	1001.6	NA	0.0000		9999	0	0	0	0
2019/05/30 03:38:00	BASE	3.37	98	4.22	97	-9.3	64	-14.9	0	0	1001.6	NA	0.0000		9999	14210	0	0	0
2019/05/30 03:39:00	BASE	3.23	94	4.22	97	-9.4	64	-14.9	0	0	1001.6	NA	0.0000		9999	14630	0	0	0
2019/05/30 03:40:00	BASE	3.28	88	4.22	97	-9.4	64	-14.8	0	0	1001.6	NA	0.0000		9999	0	0	0	0
2019/05/30 03:41:00	BASE	3.28	86	4.22	97	-9.4	65	-14.8	0	0	1001.6	NA	0.0000		9999	0	0	0	0
2019/05/30 03:42:00	BASE	3.22	87	4.22	97	-9.3	65	-14.6	0	0	1001.6	NA	0.0000		9999	0	0	0	0
2019/05/30 03:43:00	BASE	3.24	88	4.22	97	-9.2	66	-14.5	0	0	1001.6	NA	0.0000		9999	0	0	0	0
2019/05/30 03:44:00	BASE	3.18	89	4.17	94	-9.2	66	-14.4	0	0	1001.6	NA	0.0000		9999	15060	0	0	0
2019/05/30 03:45:00	BASE	2.96	90	3.86	96	-9.1	66	-14.3	0	0	1001.6	NA	0.0000		9999	0	0	0	0
2019/05/30 03:46:00	BASE	2.74	92	3.86	96	-9.1	66	-14.3	0	0	1001.6	NA	0.0000		9999	15320	0	0	0
2019/05/30 03:47:00	BASE	2.66	94	3.45	86	-9.1	66	-14.3	0	0	1001.7	NA	0.0000		9999	15580	0	0	0
2019/05/30 03:48:00	BASE	2.45	94	3.45	86	-9.2	67	-14.2	0	0	1001.7	NA	0.0000		9999	17190	0	0	0
2019/05/30 03:49:00	BASE	2.34	91	3.45	86	-9.2	67	-14.2	0	0	1001.7	NA	0.0000		9999	0	0	0	0
2019/05/30 03:50:00	BASE	2.39	88	3.40	88	-9.2	67	-14.1	0	0	1001.7	NA	0.0000		9999	0	0	0	0
2019/05/30 03:51:00	BASE	2.30	85	3.40	88	-9.2	68	-14.0	0	0	1001.7	NA	0.0000		9999	0	0	0	0
2019/05/30 03:52:00	BASE	2.21	82	3.40	88	-9.1	69	-13.9	0	0	1001.7	NA	0.0000		9999	0	0	0	0
2019/05/30 03:53:00	BASE	2.08	82	3.34	91	-9.1	69	-13.7	0	0	1001.7	NA	0.0000		9999	14570	0	0	0
2019/05/30 03:54:00	BASE	2.08	84	2.98	89	-9.0	69	-13.6	0	0	1001.7	NA	0.0000		9999	14760	0	0	0
2019/05/30 03:55:00	BASE	2.13	87	2.83	93	-8.9	70	-13.4	0	0	1001.7	NA	0.0000		9999	14570	0	0	0
2019/05/30 03:56:00	BASE	2.27	91	2.83	93	-8.9	70	-13.3	0	0	1001.7	NA	0.0000		9999	14860	0	0	0
2019/05/30 03:57:00	BASE	2.25	97	2.68	91	-8.8	70	-13.3	0	0	1001.6	NA	0.0000		9999	14600	0	0	0
2019/05/30 03:58:00	BASE	2.25	97	2.68	91	-8.8	70	-13.3	0	0	1001.6	NA	0.0000		9999	0	0	0	0
2019/05/30 03:59:00	BASE	2.51	98	2.73	111	-8.8	70	-13.3	0	0	1001.7	NA	0.0000		9999	0	0	0	0
2019/05/30 04:00:00	BASE	2.55	109	2.73	111	-8.9	70	-13.3	0	0	1001.7	NA	0.0000		9999	0	0	0	0
2019/05/30 04:01:00	BASE	2.50	122	2.78	125	-8.9	70	-13.4	0	0	1001.8	NA	0.0000		9999	0	0	0	0
2019/05/30 04:02:00	BASE	2.39	128	2.78	125	-8.9	70	-13.4	0	0	1001.8	NA	0.0000		9999	0	0	0	0
2019/05/30 04:03:00	BASE	2.43	127	2.78	124	-9.0	70	-13.4	0	0	1001.8	NA	0.0000		9999	0	0	0	0
2019/05/30 04:04:00	BASE	2.40	125	2.78	124	-8.9	70	-13.4	0	0	1001.8	NA	0.0000		9999	0	0	0	0
2019/05/30 04:05:00	BASE	2.39	121	2.78	116	-8.9	70	-13.3	0	0	1001.8	NA	0.0000		9999	0	0	0	0
2019/05/30 04:06:00	BASE	2.64	115	2.88	106	-8.8	70	-13.3	0	0	1001.8	NA	0.0000		9999	0	0	0	0
2019/05/30 04:07:00	BASE	2.82	108	3.19	109	-8.8	70	-13.2	0	0	1001.7	NA	0.0000		9999	0	0	0	0
2019/05/30 04:08:00	BASE	2.96	103	3.29	99	-8.7	70	-13.1	0	0	1001.7	NA	0.0000		9999	0	0	0	0
2019/05/30 04:09:00	BASE	3.20	101	3.96	113	-8.7	70	-13.1	0	0	1001.7	NA	0.0000		9999	0	0	0	0
2019/05/30 04:10:00	BASE	3.82	107	4.48	117	-8.7	69	-13.3	0	0	1001.7	NA	0.0000		9999	0	0	0	0
2019/05/30 04:11:00	BASE	4.25	114	4.48	119	-8.8	69	-13.4	0	0	1001.7	NA	0.0000		9999	0	0	0	0
2019/05/30 04:12:00	BASE	4.44	115	4.99	114	-8.9	69	-13.6	0	0	1001.7	NA	0.0000		9999	0	0	0	0
2019/05/30 04:13:00	BASE	4.77	115	5.04	117	-9.1	69	-13.8	0	0	1001.7	NA	0.0000		9999	0	0	0	0
2019/05/30 04:14:00	BASE	5.00	114	5.40	111	-9.3	69	-14.0	0	0	1001.7	NA	0.0000		9999	0	0	0	0
2019/05/30 04:15:00	BASE	5.13	113	5.40	111	-9.4	69	-14.0	0	0	1001.7	NA	0.0000		9999	0	0	0	0
2019/05/30 04:16:00	BASE	5.17	115	5.40	116	-9.5	69	-14.1	0	0	1001.7	NA	0.0000		9999	0	0	0	0
2019/05/30 04:17:00	BASE	5.38	117	5.81	112	-9.6	69	-14.3	0	0	1001.7	NA	0.0000		9999	0	0	0	0
2019/05/30 04:18:00	BASE	5.40	117	5.81	112	-9.6	69	-14.3	0	0	1001.7	NA	0.0000		9999	0	0	0	0
2019/05/30 04:19:00	BASE	5.40	116	5.92	112	-9.7	69	-14.2	0	0	1001.7	NA	0.0000		9999	0	0	0	0
2019/05/30 04:20:00	BASE	5.80	114	6.43	115	-9.7	69	-14.3	0	0	1001.7	NA	0.0000		9999	0	0	0	0
2019/05/30 04:21:00	BASE	5.96	112	6.43	115	-9.7	70	-14.3	0	0	1001.7	NA	0.0000		9999	0	0	0	0
2019/05/30 04:22:00	BASE	5.86	111	6.43	115	-9.7	70	-14.2	0	0	1001.6	NA	0.0000		9999	0	0	0	0
2019/05/30 04:23:00	BASE	5.71	111	6.43	115	-9.7	70	-14.2	0	0	1001.6	NA	0.0000		9999	0	0	0	0
2019/05/30 04:24:00	BASE	5.59	110	6.43	115	-9.7	70	-14.1	0	0	1001.6	NA	0.0000		9999	0	0	0	0
2019/05/30 04:25:00	BASE	5.68	109	6.43	115	-9.6	70	-14.0	0	0	1001.6	NA	0.0000		9999	0	0	0	0
2019/05/30 04:26:00	BASE	5.69	111	6.43	115	-9.7	70	-14.1	0	0	1001.6	NA	0.0000		9999	0	0	0	0
2019/05/30 04:27:00	BASE	5.60	112	6.43	115	-9.7	70	-14.2	0	0	1001.6	NA	0.0000		9999	0	0	0	0
2019/05/30 04:28:00	BASE	5.62	114	6.43	115	-9.8	70	-14.2	0	0	1001.6	NA	0.0000		9999	0	0	0	0
2019/05/30 04:29:00	BASE	5.66	115	6.43	115	-9.9	70	-14.4	0	0	1001.6	NA	0.0000		9999	0	0	0	0
2019/05/30 04:30:00	BASE	5.55	117	6.38	110	-10.0	70	-14.4	0	0	1001.7	NA	0.0000		9999	0	0	0	0
2019/05/30 04:31:00	BASE	5.36	119	6.38	110	-10.0	70	-14.4	0	0	1001.7	NA	0.0000		9999	0	0	0	0
2019/05/30 04:32:00	BASE	5.42	119	6.38	110	-10.0	70	-14.4	0	0	1001.7	NA	0.0000		9999	0	0	0	0
2019/05/30 04:33:00	BASE	5.63	115	6.38	110	-9.9	70	-14.3	0	0	1001.7	NA	0.0000		9999	0	0	0	0
2019/05/30 04:34:00	BASE	5.56	111	6.38	110	-9.9	70	-14.3	0	0	1001.6	NA	0.0000		9999	0	0	0	0
2019/05/30 04:35:00	BASE	5.42	105	6.38	110	-9.9	70	-14.2	0	0	1001.6	NA	0.0000		9999	13350	0	0	0
2019/05/30 04:36:00	BASE	5.75	97	6.74	87	-9.8	70	-14.2	0	0	1001.5	NA	0.0000		9999	0	0	0	0
2019/05/30 04:37:00	BASE	6.42	91	6.94	86	-9.9	70	-14.3	0	0	1001.5	NA	0.0000		9999	13450	0	0	0
2019/05/30 04:38:00	BASE	6.70	89	6.94	86	-10.0	70	-14.5	0	0	1001.6	NA	0.0000		9999	0	0	0	0
2019/05/30 04:39:00	BASE	6.50	89	6.94	86	-10.1	69	-14.7	0	0	1001.6	NA	0.0000		9999	0	0	0	0
2019/05/30 04:40:00	BASE	6.13	91	6.94	86	-10.3	69	-15.0	0	0	1001.6	NA	0.0000		9999	0	0	0	0
2019/05/30 04:41:00	BASE	5.81	93	6.94	86	-10.4	68	-15.2	0	0	1001.6	NA	0.0000		9999	0	0	0	0
2019/05/30 04:42:00	BASE	6.03	97	7.00	95	-10.5	68	-15.3	0	0	1001.6	NA	0.0000		9999	0	0	0	0
2019/05/30 04:43:00	BASE	6.46	96	7.05	92	-10.5	68	-15.4	0	0	1001.6	NA	0.0000		9999	0	0	0	0
2019/05/30 04:44:00	BASE	6.66	94	7.05	90	-10.5	68	-15.3	0	0	1001.6	NA	0.0000		9999	0	0	0	0
2019/05/30 04:45:00	BASE	6.57	95	7.05	90	-10.4	67	-15.3	0	0	1001.7	NA	0.0000		9999	0	0	0	0
2019/05/30 04:46:00	BASE	6.29	98	7.05	90	-10.4	67	-15.3	0	0	1001.8	NA	0.0000		9999	0	0	0	0
2019/05/30 04:47:00	BASE	5.95	101	7.05	90	-10.3	67	-15.3	0	0	1001.8	NA	0.0000		9999	0	0	0	0
2019/05/30 04:48:00	BASE	5.67	104	7.05	90	-10.2	67	-15.2	0	0	1001.8	NA	0.0000		9999	0	0	0	0
2019/05/30 04:49:00	BASE	5.53	104	7.05	90	-10.1	66	-15.2	0	0	1001.8	NA	0.0000		9999	0	0	0	0
2019/05/30 04:50:00	BASE	5.44	104	7.05	90	-10.1	66	-15.2	0	0	1001.8	NA	0.0000		9999	0	0	0	0
2019/05/30 04:51:00	BASE	5.37	103	7.05	90	-10.0	66	-15.2	0	0	1001.8	NA	0.0000		9999	0	0	0	0
2019/05/30 04:52:00	BASE	5.54	97	7.05	90	-10.0	66	-15.2	0	0	1001.8	NA	0.0000		9999	0	0	0	0
2019/05/30 04:53:00	BASE	5.96	90	7.05	90	-10.1	66	-15.3	0	0	1001.8	NA	0.0000		9999	0	0	0	0
2019/05/30 04:54:00	BASE	6.24	86	6.84	96	-10.2	66	-15.4	0	0	1001.8	NA	0.0000		9999	0	0	0	0
2019/05/30 04:55:00	BASE	6.25	84	6.58	82	-10.3	65	-15.5	0	0	1001.7	NA	0.0000		9999	0	0	0	0
2019/05/30 04:56:00	BASE	6.04	86	6.58	82	-10.3	65	-15.6	0	0	1001.7	NA	0.0000		9999	0	0	0	0
2019/05/30 04:57:00	BASE	5.67	86	6.58	82	-10.4	65	-15.7	0	0	1001.8	NA	0.0000		9999	0	0	0	0
2019/05/30 04:58:00	BASE	5.55	83	6.58	82	-10.4	65	-15.7	0	0	1001.8	NA	0.0000		9999	0	0	0	0
2019/05/30 04:59:00	BASE	5.54	81	6.58	82	-10.4	65	-15.6	0	0	1001.8	NA	0.0000		9999	0	0	0	0
2019/05/30 05:00:00	BASE	5.28	83	6.58	82	-10.3	66	-15.5	0	0	1001.8	NA	0.0000		9999	0	0	0	0
2019/05/30 05:01:00	BASE	4.62	87	6.58	82	-10.3	66	-15.5	0	0	1001.8	NA	0.0000		9999	0	0	0	0
2019/05/30 05:02:00	BASE	4.13	84	6.58	82	-10.2	66	-15.3	0	0	1001.8	NA	0.0000		9999	0	0	0	0
2019/05/30 05:03:00	BASE	4.02	76	6.58	82	-10.0	66	-15.2	0	0	1001.8	NA	0.0000		9999	0	0	0	0
2019/05/30 05:04:00	BASE	3.79	73	6.53	88	-9.9	66	-15.1	0	0	1001.8	NA	0.0000		9999	0	0	0	0
2019/05/30 05:05:00	BASE	4.00	71	6.28	86	-9.9	66	-15.1	0	0	1001.8	NA	0.0000		9999	0	0	0	0
2019/05/30 05:06:00	BASE	3.94	70	6.02	83	-9.8	66	-15.0	0	0	1001.8	NA	0.0000		9999	0	0	0	0
2019/05/30 05:07:00	BASE	3.56	68	6.02	83	-9.8	65	-15.0	0	0	1001.8	NA	0.0000		9999	0	0	0	0
2019/05/30 05:08:00	BASE	4.05	70	5.61	77	-9.8	65	-15.1	0	0	1001.8	NA	0.0000		9999	0	0	0	0
2019/05/30 05:09:00	BASE	4.65	80	5.56	82	-9.9	65	-15.2	0	0	1001.8	NA	0.0000		9999	0	0	0	0
2019/05/30 05:10:00	BASE	4.74	82	5.30	76	-10.0	65	-15.2	0	0	1001.8	NA	0.0000		9999	14570	0	0	0
2019/05/30 05:11:00	BASE	4.89	78	5.30	76	-10.0	66	-15.2	0	0	1001.7	NA	0.0000		9999	0	0	0	0
2019/05/30 05:12:00	BASE	4.90	77	5.30	76	-10.1	66	-15.3	0	0	1001.7	NA	0.0000		9999	0	0	0	0
2019/05/30 05:13:00	BASE	4.74	73	5.30	76	-10.1	66	-15.3	0	0	1001.8	NA	0.0000		9999	0	0	0	0
2019/05/30 05:14:00	BASE	4.41	72	5.30	76	-10.2	66	-15.3	0	0	1001.8	NA	0.0000		9999	0	0	0	0
2019/05/30 05:15:00	BASE	4.05	77	5.30	76	-10.1	66	-15.2	0	0	1002.0	NA	0.0000		9999	0	0	0	0
2019/05/30 05:16:00	BASE	3.81	84	5.30	76	-10.1	66	-15.2	0	0	1002.0	NA	0.0000		9999	0	0	0	0
2019/05/30 05:17:00	BASE	3.51	86	5.30	76	-10.1	66	-15.2	0	0	1002.0	NA	0.0000		9999	0	0	0	0
2019/05/30 05:18:00	BASE	3.11	79	5.25	77	-10.0	66	-15.2	0	0	1002.0	NA	0.0000		9999	0	0	0	0
2019/05/30 05:19:00	BASE	2.73	75	5.25	77	-9.9	66	-15.0	0	0	1002.1	NA	0.0000		9999	0	0	0	0
2019/05/30 05:20:00	BASE	2.69	79	5.25	77	-9.9	66	-15.1	0	0	1002.1	NA	0.0000		9999	0	0	0	0
2019/05/30 05:21:00	BASE	2.97	84	5.04	79	-9.8	65	-15.1	0	0	1002.1	NA	0.0000		9999	0	0	0	0
2019/05/30 05:22:00	BASE	2.93	92	4.99	75	-9.7	65	-15.0	0	0	1002.1	NA	0.0000		9999	0	0	0	0
2019/05/30 05:23:00	BASE	2.66	95	4.94	68	-9.6	65	-15.0	0	0	1002.2	NA	0.0000		9999	13320	0	0	0
2019/05/30 05:24:00	BASE	2.65	89	4.12	83	-9.5	64	-15.0	0	0	1002.2	NA	0.0000		9999	15520	0	0	0
2019/05/30 05:25:00	BASE	2.64	86	3.76	88	-9.3	64	-14.9	0	0	1002.2	NA	0.0000		9999	15190	0	0	0
2019/05/30 05:26:00	BASE	3.13	86	4.48	90	-9.2	63	-14.9	0	0	1002.2	NA	0.0000		9999	15680	0	0	0
2019/05/30 05:27:00	BASE	3.42	85	4.48	90	-9.2	62	-15.1	0	0	1002.2	NA	0.0000		9999	14730	15810	0	0
2019/05/30 05:28:00	BASE	3.09	88	4.48	90	-9.2	62	-15.3	0	0	1002.2	NA	0.0000		9999	0	0	0	0
2019/05/30 05:29:00	BASE	2.85	96	4.48	90	-9.4	61	-15.5	0	0	1002.2	NA	0.0000		9999	0	0	0	0
2019/05/30 05:30:00	BASE	2.57	108	4.48	90	-9.5	60	-15.7	0	0	1002.2	NA	0.0000		9999	0	0	0	0
2019/05/30 05:31:00	BASE	2.26	125	4.48	90	-9.5	60	-15.8	0	0	1002.2	NA	0.0000		9999	14440	0	0	0
2019/05/30 05:32:00	BASE	2.23	133	4.48	90	-9.4	61	-15.6	0	0	1002.2	NA	0.0000		9999	14340	0	0	0
2019/05/30 05:33:00	BASE	2.48	135	4.48	90	-9.4	62	-15.4	0	0	1002.2	NA	0.0000		9999	14400	0	0	0
2019/05/30 05:34:00	BASE	2.50	137	4.48	90	-9.3	63	-15.1	0	0	1002.2	NA	0.0000		9999	0	0	0	0
2019/05/30 05:35:00	BASE	2.33	133	4.48	90	-9.2	64	-14.8	0	0	1002.2	NA	0.0000		9999	0	0	0	0
2019/05/30 05:36:00	BASE	2.29	131	4.01	83	-9.2	65	-14.6	0	0	1002.2	NA	0.0000		9999	0	0	0	0
2019/05/30 05:37:00	BASE	2.56	128	3.50	87	-9.2	66	-14.4	0	0	1002.2	NA	0.0000		9999	14470	0	0	0
2019/05/30 05:38:00	BASE	2.83	124	3.14	127	-9.1	67	-14.1	0	0	1002.2	NA	0.0000		9999	0	0	0	0
2019/05/30 05:39:00	BASE	2.99	128	3.55	129	-9.1	68	-14.0	0	0	1002.2	NA	0.0000		9999	14930	0	0	0
2019/05/30 05:40:00	BASE	2.98	129	3.55	129	-9.1	69	-13.9	0	0	1002.2	NA	0.0000		9999	0	0	0	0
2019/05/30 05:41:00	BASE	2.72	126	3.55	129	-9.1	69	-13.7	0	0	1002.2	NA	0.0000		9999	0	0	0	0
2019/05/30 05:42:00	BASE	2.39	124	3.55	129	-9.1	70	-13.6	0	0	1002.2	NA	0.0000		9999	15620	0	0	0
2019/05/30 05:43:00	BASE	2.15	120	3.55	129	-9.1	70	-13.5	0	0	1002.2	NA	0.0000		9999	14760	0	0	0
2019/05/30 05:44:00	BASE	2.30	119	3.55	129	-9.0	71	-13.4	0	0	1002.2	NA	0.0000		9999	14960	0	0	0
2019/05/30 05:45:00	BASE	2.42	119	3.55	129	-9.0	71	-13.3	0	0	1002.2	NA	0.0000		9999	14930	0	0	0
2019/05/30 05:46:00	BASE	2.42	114	3.55	129	-9.0	71	-13.3	0	0	1002.2	NA	0.0000		9999	14760	0	0	0
2019/05/30 05:47:00	BASE	2.53	112	3.55	129	-9.0	71	-13.3	0	0	1002.2	NA	0.0000		9999	14600	0	0	0
2019/05/30 05:48:00	BASE	2.67	108	3.55	129	-8.9	71	-13.3	0	0	1002.2	NA	0.0000		9999	14860	0	0	0
2019/05/30 05:49:00	BASE	2.77	103	3.34	130	-8.9	71	-13.3	0	0	1002.2	NA	0.0000		9999	14830	0	0	0
2019/05/30 05:50:00	BASE	2.77	102	3.09	100	-8.9	70	-13.4	0	0	1002.2	NA	0.0000		9999	14670	0	0	0
2019/05/30 05:51:00	BASE	2.88	104	3.14	99	-8.9	70	-13.4	0	0	1002.2	NA	0.0000		9999	14670	0	0	0
2019/05/30 05:52:00	BASE	2.98	101	3.24	98	-9.1	69	-13.7	0	0	1002.3	NA	0.0000		9999	15160	0	0	0
2019/05/30 05:53:00	BASE	2.93	94	3.24	98	-9.2	69	-13.8	0	0	1002.4	NA	0.0000		9999	14760	0	0	0
2019/05/30 05:54:00	BASE	2.77	95	3.24	98	-9.3	69	-14.0	0	0	1002.5	NA	0.0000		9999	0	0	0	0
2019/05/30 05:55:00	BASE	2.44	93	3.24	98	-9.4	68	-14.1	0	0	1002.6	NA	0.0000		9999	14930	0	0	0
2019/05/30 05:56:00	BASE	2.05	94	3.24	98	-9.3	68	-14.2	0	0	1002.6	NA	0.0000		9999	14930	0	0	0
2019/05/30 05:57:00	BASE	1.62	99	3.24	98	-9.2	67	-14.2	0	0	1002.6	NA	0.0000		9999	15090	0	0	0
2019/05/30 05:58:00	BASE	1.47	103	3.24	98	-9.1	66	-14.3	0	0	1002.6	NA	0.0000		9999	0	0	0	0
2019/05/30 05:59:00	BASE	1.54	100	3.24	98	-9.1	65	-14.5	0	0	1002.6	NA	0.0000		9999	0	0	0	0
2019/05/30 06:00:00	BASE	1.30	88	3.24	98	-9.0	64	-14.6	0	0	1002.6	NA	0.0000		9999	0	0	0	0
2019/05/30 06:01:00	BASE	1.29	74	3.24	98	-9.0	63	-14.8	0	0	1002.6	NA	0.0000		9999	0	0	0	0
2019/05/30 06:02:00	BASE	1.48	63	3.19	92	-9.0	62	-14.9	0	0	1002.6	NA	0.0000		9999	0	0	0	0
2019/05/30 06:03:00	BASE	1.43	60	3.09	108	-8.9	61	-15.0	0	0	1002.7	NA	0.0000		9999	0	0	0	0
2019/05/30 06:04:00	BASE	1.42	57	2.52	92	-8.9	61	-15.1	0	0	1002.7	NA	0.0000		9999	14730	0	0	0
2019/05/30 06:05:00	BASE	1.62	60	2.21	104	-8.9	60	-15.3	0	0	1002.6	NA	0.0000		9999	14670	0	0	0
2019/05/30 06:06:00	BASE	1.94	69	2.21	70	-8.9	59	-15.5	0	0	1002.6	NA	0.0000		9999	14440	0	0	0
2019/05/30 06:07:00	BASE	1.96	73	2.21	70	-8.9	58	-15.7	0	0	1002.6	NA	0.0000		9999	14570	0	0	0
2019/05/30 06:08:00	BASE	1.78	75	2.21	70	-8.9	58	-15.8	0	0	1002.7	NA	0.0000		9999	14370	0	0	0
2019/05/30 06:09:00	BASE	1.87	84	2.26	100	-9.0	57	-15.9	0	0	1002.6	NA	0.0000		9999	14170	0	0	0
2019/05/30 06:10:00	BASE	2.16	91	3.04	88	-9.0	57	-16.0	0	0	1002.6	NA	0.0000		9999	14140	0	0	0
2019/05/30 06:11:00	BASE	2.53	92	3.09	94	-8.9	56	-16.0	0	0	1002.6	NA	0.0000		9999	14210	0	0	0
2019/05/30 06:12:00	BASE	3.24	90	4.68	78	-9.0	56	-16.2	0	0	1002.6	NA	0.0000		9999	16440	0	0	0
2019/05/30 06:13:00	BASE	3.86	81	5.25	82	-9.1	56	-16.4	0	0	1002.6	NA	0.0000		9999	16570	0	0	0
2019/05/30 06:14:00	BASE	3.60	74	5.25	82	-9.2	55	-16.5	0	0	1002.6	NA	0.0000		9999	16630	0	0	0
2019/05/30 06:15:00	BASE	3.09	70	5.25	82	-9.2	55	-16.6	0	0	1002.6	NA	0.0000		9999	16340	0	0	0
2019/05/30 06:16:00	BASE	3.18	64	5.25	82	-9.3	54	-16.8	0	0	1002.6	NA	0.0000		9999	16470	0	0	0
2019/05/30 06:17:00	BASE	3.95	63	5.25	82	-9.3	54	-17.0	0	0	1002.6	NA	0.0000		9999	16140	0	0	0
2019/05/30 06:18:00	BASE	4.45	64	5.25	82	-9.3	53	-17.1	0	0	1002.6	NA	0.0000		9999	15810	0	0	0
2019/05/30 06:19:00	BASE	4.24	66	5.25	82	-9.3	52	-17.3	0	0	1002.6	NA	0.0000		9999	15720	0	0	0
2019/05/30 06:20:00	BASE	4.22	72	5.25	82	-9.3	52	-17.4	0	0	1002.7	NA	0.0000		9999	0	0	0	0
2019/05/30 06:21:00	BASE	4.28	78	5.25	82	-9.3	51	-17.6	0	0	1002.6	NA	0.0000		9999	0	0	0	0
2019/05/30 06:22:00	BASE	4.19	80	5.25	82	-9.3	51	-17.6	0	0	1002.6	NA	0.0000		9999	0	0	0	0
2019/05/30 06:23:00	BASE	4.20	81	4.73	78	-9.2	50	-17.7	0	0	1002.6	NA	0.0000		9999	0	0	0	0
2019/05/30 06:24:00	BASE	4.16	84	4.73	78	-9.2	50	-17.7	0	0	1002.6	NA	0.0000		9999	0	0	0	0
2019/05/30 06:25:00	BASE	4.05	88	4.73	78	-9.2	51	-17.6	0	0	1002.6	NA	0.0000		9999	0	0	0	0
2019/05/30 06:26:00	BASE	4.00	91	4.73	78	-9.2	51	-17.6	0	0	1002.7	NA	0.0000		9999	0	0	0	0
2019/05/30 06:27:00	BASE	3.98	91	4.73	78	-9.2	51	-17.4	0	0	1002.7	NA	0.0000		9999	0	0	0	0
2019/05/30 06:28:00	BASE	3.90	90	4.73	78	-9.1	51	-17.3	0	0	1002.7	NA	0.0000		9999	0	0	0	0
2019/05/30 06:29:00	BASE	3.79	91	4.73	78	-9.1	52	-17.2	0	0	1002.7	NA	0.0000		9999	0	0	0	0
2019/05/30 06:30:00	BASE	3.49	99	4.53	91	-9.0	52	-17.1	0	0	1002.8	NA	0.0000		9999	0	0	0	0
2019/05/30 06:31:00	BASE	3.17	100	4.53	91	-9.1	53	-16.9	0	0	1002.8	NA	0.0000		9999	0	0	0	0
2019/05/30 06:32:00	BASE	3.20	96	4.53	91	-9.1	54	-16.8	0	0	1002.8	NA	0.0000		9999	0	0	0	0
2019/05/30 06:33:00	BASE	3.54	95	4.53	91	-9.1	55	-16.6	0	0	1002.8	NA	0.0000		9999	0	0	0	0
2019/05/30 06:34:00	BASE	3.55	92	4.53	91	-9.2	56	-16.3	0	0	1002.8	NA	0.0000		9999	0	0	0	0
2019/05/30 06:35:00	BASE	3.17	93	4.53	91	-9.1	58	-16.0	0	0	1002.8	NA	0.0000		9999	0	0	0	0
2019/05/30 06:36:00	BASE	3.28	96	4.37	93	-9.1	59	-15.6	0	0	1002.8	NA	0.0000		9999	0	0	0	0
2019/05/30 06:37:00	BASE	4.04	88	4.99	85	-9.2	61	-15.4	0	0	1002.8	NA	0.0000		9999	0	0	0	0
2019/05/30 06:38:00	BASE	4.79	78	5.30	76	-9.2	62	-15.2	0	0	1002.8	NA	0.0000		9999	15850	0	0	0
2019/05/30 06:39:00	BASE	5.04	73	5.56	73	-9.3	63	-15.1	0	0	1002.9	NA	0.0000		9999	15810	0	0	0
2019/05/30 06:40:00	BASE	4.56	70	5.56	73	-9.4	64	-15.0	0	0	1002.9	NA	0.0000		9999	15880	0	0	0
2019/05/30 06:41:00	BASE	3.99	68	5.56	73	-9.5	65	-14.9	0	0	1002.9	NA	0.0000		9999	16110	0	0	0
2019/05/30 06:42:00	BASE	4.07	73	5.56	73	-9.4	66	-14.6	0	0	1002.9	NA	0.0000		9999	16010	0	0	0
2019/05/30 06:43:00	BASE	4.26	80	5.56	73	-9.4	66	-14.5	0	0	1002.9	NA	0.0000		9999	16010	0	0	0
2019/05/30 06:44:00	BASE	4.04	81	5.56	73	-9.4	67	-14.4	0	0	1002.9	NA	0.0000		9999	16110	0	0	0
2019/05/30 06:45:00	BASE	3.56	76	5.56	73	-9.4	67	-14.3	0	0	1002.9	NA	0.0000		9999	16180	0	0	0
2019/05/30 06:46:00	BASE	3.27	72	5.56	73	-9.3	68	-14.2	0	0	1002.9	NA	0.0000		9999	15950	0	0	0
2019/05/30 06:47:00	BASE	2.98	77	5.56	73	-9.2	68	-14.0	0	0	1002.9	NA	0.0000		9999	15880	0	0	0
2019/05/30 06:48:00	BASE	3.19	87	5.56	73	-9.1	68	-13.9	0	0	1002.9	NA	0.0000		9999	16080	0	0	0
2019/05/30 06:49:00	BASE	3.76	89	4.48	87	-9.1	68	-14.0	0	0	1003.0	NA	0.0000		9999	0	0	0	0
2019/05/30 06:50:00	BASE	4.06	88	4.63	92	-9.1	67	-14.0	0	0	1003.0	NA	0.0000		9999	16140	0	0	0
2019/05/30 06:51:00	BASE	4.22	92	4.63	92	-9.1	67	-14.1	0	0	1003.0	NA	0.0000		9999	0	0	0	0
2019/05/30 06:52:00	BASE	3.98	96	4.63	92	-9.2	67	-14.2	0	0	1003.0	NA	0.0000		9999	0	0	0	0
2019/05/30 06:53:00	BASE	3.25	104	4.63	92	-9.2	67	-14.2	0	0	1003.0	NA	0.0000		9999	0	0	0	0
2019/05/30 06:54:00	BASE	2.78	99	4.63	92	-9.1	67	-14.0	0	0	1003.0	NA	0.0000		9999	0	0	0	0
2019/05/30 06:55:00	BASE	3.02	92	4.63	92	-9.1	68	-13.9	0	0	1003.0	NA	0.0000		9999	0	0	0	0
2019/05/30 06:56:00	BASE	3.36	96	4.63	92	-9.0	68	-13.8	0	0	1003.1	NA	0.0000		9999	0	0	0	0
2019/05/30 06:57:00	BASE	3.59	95	4.63	92	-9.0	69	-13.7	0	0	1003.2	NA	0.0000		9999	0	0	0	0
2019/05/30 06:58:00	BASE	3.66	89	4.63	92	-9.0	69	-13.6	0	0	1003.2	NA	0.0000		9999	0	0	0	0
2019/05/30 06:59:00	BASE	3.69	87	4.63	92	-9.1	70	-13.6	0	0	1003.2	NA	0.0000		9999	0	0	0	0
2019/05/30 07:00:00	BASE	3.85	89	4.37	98	-9.0	70	-13.5	0	0	1003.2	NA	0.0000		9999	0	0	0	0
2019/05/30 07:01:00	BASE	3.90	89	4.32	84	-9.0	71	-13.4	0	0	1003.2	NA	0.0000		9999	0	0	0	0
2019/05/30 07:02:00	BASE	3.81	85	4.32	84	-9.0	71	-13.2	0	0	1003.2	NA	0.0000		9999	0	0	0	0
2019/05/30 07:03:00	BASE	3.72	84	4.32	84	-8.9	72	-13.1	0	0	1003.2	NA	0.0000		9999	0	0	0	0
2019/05/30 07:04:00	BASE	3.51	85	4.32	84	-8.8	72	-13.0	0	0	1003.2	NA	0.0000		9999	0	0	0	0
2019/05/30 07:05:00	BASE	3.33	86	4.32	84	-8.8	72	-12.9	0	0	1003.2	NA	0.0000		9999	0	0	0	0
2019/05/30 07:06:00	BASE	3.57	87	4.32	84	-8.8	72	-12.9	0	0	1003.2	NA	0.0000		9999	0	0	0	0
2019/05/30 07:07:00	BASE	3.65	87	4.32	84	-8.9	72	-12.9	0	0	1003.3	NA	0.0000		9999	0	0	0	0
2019/05/30 07:08:00	BASE	3.17	86	4.32	84	-8.8	73	-12.9	0	0	1003.3	NA	0.0000		9999	0	0	0	0
2019/05/30 07:09:00	BASE	3.06	88	4.58	82	-8.9	73	-12.9	0	0	1003.2	NA	0.0000		9999	0	0	0	0
2019/05/30 07:10:00	BASE	4.30	82	5.76	69	-9.0	73	-13.0	0	0	1003.2	NA	0.0000		9999	0	0	0	0
2019/05/30 07:11:00	BASE	5.14	68	5.76	69	-9.1	73	-13.1	0	0	1003.2	NA	0.0000		9999	0	0	0	0
2019/05/30 07:12:00	BASE	4.62	62	5.76	69	-9.2	72	-13.2	0	0	1003.2	NA	0.0000		9999	0	0	0	0
2019/05/30 07:13:00	BASE	4.20	63	5.76	69	-9.2	72	-13.3	0	0	1003.3	NA	0.0000		9999	0	0	0	0
2019/05/30 07:14:00	BASE	4.44	73	5.76	69	-9.3	71	-13.5	0	0	1003.3	NA	0.0000		9999	0	0	0	0
2019/05/30 07:15:00	BASE	4.86	82	5.76	69	-9.3	71	-13.7	0	0	1003.3	NA	0.0000		9999	0	0	0	0
2019/05/30 07:16:00	BASE	4.68	83	5.76	69	-9.2	69	-13.8	0	0	1003.3	NA	0.0000		9999	0	0	0	0
2019/05/30 07:17:00	BASE	4.32	91	5.76	69	-9.3	68	-14.1	0	0	1003.3	NA	0.0000		9999	0	0	0	0
2019/05/30 07:18:00	BASE	4.20	101	5.76	69	-9.3	66	-14.4	0	0	1003.4	NA	0.0000		9999	0	0	0	0
2019/05/30 07:19:00	BASE	4.32	106	5.76	69	-9.2	65	-14.5	0	0	1003.4	NA	0.0000		9999	0	0	0	0
2019/05/30 07:20:00	BASE	4.71	114	5.50	108	-9.1	64	-14.6	0	0	1003.4	NA	0.0000		9999	0	0	0	0
2019/05/30 07:21:00	BASE	4.46	117	5.50	108	-9.1	64	-14.6	0	0	1003.4	NA	0.0000		9999	0	0	0	0
2019/05/30 07:22:00	BASE	3.86	114	5.50	108	-9.1	64	-14.5	0	0	1003.4	NA	0.0000		9999	0	0	0	0
2019/05/30 07:23:00	BASE	3.82	114	5.50	108	-9.1	65	-14.5	0	0	1003.4	NA	0.0000		9999	0	0	0	0
2019/05/30 07:24:00	BASE	3.90	112	5.50	108	-9.1	65	-14.5	0	0	1003.4	NA	0.0000		9999	0	0	0	0
2019/05/30 07:25:00	BASE	4.01	110	5.50	108	-9.1	66	-14.3	0	0	1003.4	NA	0.0000		9999	0	0	0	0
2019/05/30 07:26:00	BASE	4.06	109	5.50	108	-9.1	66	-14.3	0	0	1003.4	NA	0.0000		9999	0	0	0	0
2019/05/30 07:27:00	BASE	4.14	109	5.50	108	-9.1	67	-14.1	0	0	1003.4	NA	0.0000		9999	0	0	0	0
2019/05/30 07:28:00	BASE	4.50	110	5.50	108	-9.0	67	-14.1	0	0	1003.4	NA	0.0000		9999	0	0	0	0
2019/05/30 07:29:00	BASE	4.46	113	5.50	108	-9.0	67	-14.0	0	0	1003.4	NA	0.0000		9999	0	0	0	0
2019/05/30 07:30:00	BASE	4.22	117	5.04	120	-9.0	67	-13.9	0	0	1003.4	NA	0.0000		9999	0	0	0	0
2019/05/30 07:31:00	BASE	4.45	120	5.14	120	-9.0	68	-13.9	0	0	1003.4	NA	0.0000		9999	0	0	0	0
2019/05/30 07:32:00	BASE	4.31	123	5.14	120	-9.1	68	-13.9	0	0	1003.4	NA	0.0000		9999	0	0	0	0
2019/05/30 07:33:00	BASE	3.99	126	5.14	120	-9.1	68	-13.8	0	0	1003.5	NA	0.0000		9999	0	0	0	0
2019/05/30 07:34:00	BASE	4.07	125	5.14	120	-9.0	69	-13.7	0	0	1003.5	NA	0.0000		9999	0	0	0	0
2019/05/30 07:35:00	BASE	4.07	124	5.14	120	-9.0	69	-13.6	0	0	1003.4	NA	0.0000		9999	0	0	0	0
2019/05/30 07:36:00	BASE	3.60	123	5.14	120	-9.0	70	-13.5	0	0	1003.4	NA	0.0000		9999	0	0	0	0
2019/05/30 07:37:00	BASE	3.19	122	5.14	120	-8.9	70	-13.4	0	0	1003.4	NA	0.0000		9999	0	0	0	0
2019/05/30 07:38:00	BASE	3.28	119	5.14	120	-8.8	70	-13.4	0	0	1003.4	NA	0.0000		9999	0	0	0	0
2019/05/30 07:39:00	BASE	3.65	116	5.14	120	-8.8	70	-13.4	0	0	1003.4	NA	0.0000		9999	0	0	0	0
2019/05/30 07:40:00	BASE	3.87	121	5.14	120	-8.8	69	-13.4	0	0	1003.5	NA	0.0000		9999	0	0	0	0
2019/05/30 07:41:00	BASE	3.63	124	4.68	134	-8.8	69	-13.5	0	0	1003.5	NA	0.0000		9999	0	0	0	0
2019/05/30 07:42:00	BASE	3.51	125	4.68	134	-8.9	68	-13.6	0	0	1003.5	NA	0.0000		9999	0	0	0	0
2019/05/30 07:43:00	BASE	3.71	125	4.68	134	-8.9	68	-13.8	0	0	1003.5	NA	0.0000		9999	0	0	0	0
2019/05/30 07:44:00	BASE	3.95	127	4.68	134	-9.0	68	-13.9	0	0	1003.5	NA	0.0000		9999	0	0	0	0
2019/05/30 07:45:00	BASE	3.89	126	4.53	122	-9.1	67	-14.1	0	0	1003.5	NA	0.0000		9999	0	0	0	0
2019/05/30 07:46:00	BASE	3.70	124	4.53	122	-9.2	67	-14.3	0	0	1003.5	NA	0.0000		9999	0	0	0	0
2019/05/30 07:47:00	BASE	3.66	119	4.53	122	-9.2	66	-14.4	0	0	1003.5	NA	0.0000		9999	0	0	0	0
2019/05/30 07:48:00	BASE	3.79	111	4.53	122	-9.1	66	-14.3	0	0	1003.5	NA	0.0000		9999	0	0	0	0
2019/05/30 07:49:00	BASE	4.18	108	4.89	100	-9.0	66	-14.3	0	0	1003.6	NA	0.0000		9999	0	0	0	0
2019/05/30 07:50:00	BASE	4.50	106	4.99	107	-8.9	65	-14.3	0	0	1003.6	NA	0.0000		9999	0	0	0	0
2019/05/30 07:51:00	BASE	4.47	106	4.99	107	-8.7	64	-14.3	0	0	1003.6	NA	0.0000		9999	0	0	0	0
2019/05/30 07:52:00	BASE	4.28	109	4.99	107	-8.7	63	-14.4	0	0	1003.6	NA	0.0000		9999	0	0	0	0
2019/05/30 07:53:00	BASE	4.00	112	4.99	107	-8.7	62	-14.7	0	0	1003.6	NA	0.0000		9999	0	0	0	0
2019/05/30 07:54:00	BASE	3.95	111	4.99	107	-8.8	61	-14.9	0	0	1003.6	NA	0.0000		9999	0	0	0	0
2019/05/30 07:55:00	BASE	4.35	106	4.99	107	-8.8	60	-15.1	0	0	1003.6	NA	0.0000		9999	0	0	0	0
2019/05/30 07:56:00	BASE	4.36	108	4.99	107	-8.8	60	-15.2	0	0	1003.6	NA	0.0000		9999	0	0	0	0
2019/05/30 07:57:00	BASE	3.96	116	4.99	107	-8.8	59	-15.4	0	0	1003.6	NA	0.0000		9999	0	0	0	0
2019/05/30 07:58:00	BASE	3.78	123	4.99	107	-8.9	59	-15.4	0	0	1003.6	NA	0.0000		9999	0	0	0	0
2019/05/30 07:59:00	BASE	4.00	125	4.99	124	-8.9	59	-15.5	0	0	1003.6	NA	0.0000		9999	0	0	0	0
2019/05/30 08:00:00	BASE	4.26	122	4.99	124	-8.9	59	-15.4	0	0	1003.6	NA	0.0000		9999	0	0	0	0
2019/05/30 08:01:00	BASE	4.38	119	4.99	124	-8.9	60	-15.3	0	0	1003.6	NA	0.0000		9999	0	0	0	0
2019/05/30 08:02:00	BASE	4.72	115	5.25	102	-9.0	60	-15.3	0	0	1003.7	NA	0.0000		9999	0	0	0	0
2019/05/30 08:03:00	BASE	5.35	105	6.12	99	-9.1	61	-15.3	0	0	1003.8	NA	0.0000		9999	0	0	0	0
2019/05/30 08:04:00	BASE	5.84	96	6.12	99	-9.1	61	-15.4	0	0	1003.8	NA	0.0000		9999	0	0	0	0
2019/05/30 08:05:00	BASE	5.86	95	6.12	95	-9.3	60	-15.8	0	0	1003.8	NA	0.0000		9999	0	0	0	0
2019/05/30 08:06:00	BASE	5.65	95	6.12	95	-9.5	58	-16.2	0	0	1003.8	NA	0.0000		9999	0	0	0	0
2019/05/30 08:07:00	BASE	5.45	95	6.12	95	-9.5	57	-16.5	0	0	1003.8	NA	0.0000		9999	0	0	0	0
2019/05/30 08:08:00	BASE	5.29	102	6.12	95	-9.5	55	-16.8	0	0	1003.8	NA	0.0000		9999	0	0	0	0
2019/05/30 08:09:00	BASE	5.44	111	6.12	95	-9.4	54	-17.0	0	0	1003.8	NA	0.0000		9999	0	0	0	0
2019/05/30 08:10:00	BASE	5.67	115	6.12	95	-9.3	53	-17.1	0	0	1003.9	NA	0.0000		9999	0	0	0	0
2019/05/30 08:11:00	BASE	5.62	114	6.12	95	-9.2	52	-17.2	0	0	1003.8	NA	0.0000		9999	0	0	0	0
2019/05/30 08:12:00	BASE	5.54	109	6.12	95	-9.2	52	-17.2	0	0	1003.8	NA	0.0000		9999	0	0	0	0
2019/05/30 08:13:00	BASE	5.49	104	6.12	95	-9.2	52	-17.2	0	0	1003.8	NA	0.0000		9999	0	0	0	0
2019/05/30 08:14:00	BASE	5.48	109	6.12	95	-9.2	52	-17.2	0	0	1003.8	NA	0.0000		9999	0	0	0	0
2019/05/30 08:15:00	BASE	5.47	120	6.07	115	-9.1	52	-17.1	0	0	1003.8	NA	0.0000		9999	0	0	0	0
2019/05/30 08:16:00	BASE	5.64	123	6.28	123	-9.1	52	-17.1	0	0	1003.8	NA	0.0000		9999	0	0	0	0
2019/05/30 08:17:00	BASE	6.10	125	7.41	126	-9.0	52	-17.1	0	0	1003.8	NA	0.0000		9999	0	0	0	0
2019/05/30 08:18:00	BASE	6.53	127	7.41	126	-8.9	52	-17.1	0	0	1003.8	NA	0.0000		9999	0	0	0	0
2019/05/30 08:19:00	BASE	6.17	124	7.41	126	-8.8	51	-17.1	0	0	1003.8	NA	0.0000		9999	0	0	0	0
2019/05/30 08:20:00	BASE	5.65	119	7.41	126	-8.7	51	-17.1	0	0	1003.8	NA	0.0000		9999	0	0	0	0
2019/05/30 08:21:00	BASE	5.97	117	7.41	126	-8.6	50	-17.1	0	0	1003.8	NA	0.0000		9999	0	0	0	0
2019/05/30 08:22:00	BASE	6.18	117	7.41	126	-8.6	49	-17.3	0	0	1003.9	NA	0.0000		9999	0	0	0	0
2019/05/30 08:23:00	BASE	5.92	118	7.41	126	-8.8	49	-17.6	0	0	1003.9	NA	0.0000		9999	0	0	0	0
2019/05/30 08:24:00	BASE	5.95	116	7.41	126	-9.0	49	-17.8	0	0	1003.9	NA	0.0000		9999	0	0	0	0
2019/05/30 08:25:00	BASE	6.38	111	7.41	126	-9.2	49	-18.0	0	0	1003.9	NA	0.0000		9999	0	0	0	0
2019/05/30 08:26:00	BASE	6.47	111	7.41	126	-9.4	49	-18.0	0	0	1003.9	NA	0.0000		9999	0	0	0	0
2019/05/30 08:27:00	BASE	6.84	110	7.97	102	-9.4	50	-18.0	0	0	1004.0	NA	0.0000		9999	0	0	0	0
2019/05/30 08:28:00	BASE	7.64	107	8.28	108	-9.4	50	-18.0	0	0	1004.0	NA	0.0000		9999	0	0	0	0
2019/05/30 08:29:00	BASE	8.14	105	9.00	102	-9.4	50	-18.0	0	0	1003.9	NA	0.0000		9999	0	0	0	0
2019/05/30 08:30:00	BASE	8.39	105	9.00	102	-9.5	50	-18.1	0	0	1003.9	NA	0.0000		9999	0	0	0	0
2019/05/30 08:31:00	BASE	8.31	109	9.00	102	-9.6	49	-18.3	0	0	1003.9	NA	0.0000		9999	0	0	0	0
2019/05/30 08:32:00	BASE	8.15	113	9.00	102	-9.6	49	-18.3	0	0	1004.0	NA	0.0000		9999	0	0	0	0
2019/05/30 08:33:00	BASE	8.08	115	9.00	118	-9.6	49	-18.2	0	0	1004.0	NA	0.0000		9999	0	0	0	0
2019/05/30 08:34:00	BASE	8.17	115	9.00	118	-9.5	49	-18.2	0	0	1004.0	NA	0.0000		9999	0	0	0	0
2019/05/30 08:35:00	BASE	8.25	114	9.00	118	-9.5	50	-18.1	0	0	1004.0	NA	0.0000		9999	0	0	0	0
2019/05/30 08:36:00	BASE	8.33	117	9.00	118	-9.4	50	-17.9	0	0	1004.0	NA	0.0000		9999	0	0	0	0
2019/05/30 08:37:00	BASE	8.45	120	9.00	118	-9.3	50	-17.7	0	0	1004.0	NA	0.0000		9999	0	0	0	0
2019/05/30 08:38:00	BASE	8.44	118	9.00	118	-9.3	51	-17.6	0	0	1004.0	NA	0.0000		9999	0	0	0	0
2019/05/30 08:39:00	BASE	8.27	118	9.00	118	-9.2	51	-17.5	0	0	1004.0	NA	0.0000		9999	0	0	0	0
2019/05/30 08:40:00	BASE	8.58	119	10.13	120	-9.1	51	-17.3	0	0	1004.0	NA	0.0000		9999	0	0	0	0
2019/05/30 08:41:00	BASE	9.15	120	10.13	120	-8.9	52	-17.1	0	0	1003.9	NA	0.0000		9999	0	0	0	0
2019/05/30 08:42:00	BASE	8.81	123	10.13	120	-8.7	52	-16.8	0	0	1003.9	NA	0.0000		9999	0	0	0	0
2019/05/30 08:43:00	BASE	8.13	125	10.13	120	-8.6	52	-16.6	0	0	1004.0	NA	0.0000		9999	0	0	0	0
2019/05/30 08:44:00	BASE	7.80	126	10.13	120	-8.4	53	-16.3	0	0	1004.0	NA	0.0000		9999	0	0	0	0
2019/05/30 08:45:00	BASE	7.41	122	10.13	120	-8.2	53	-16.1	0	0	1004.0	NA	0.0000		9999	0	0	0	0
2019/05/30 08:46:00	BASE	7.07	120	10.13	120	-8.2	53	-16.0	0	0	1004.0	NA	0.0000		9999	0	0	0	0
2019/05/30 08:47:00	BASE	7.16	120	10.13	120	-8.2	53	-16.0	0	0	1004.0	NA	0.0000		9999	0	0	0	0
2019/05/30 08:48:00	BASE	7.24	120	10.13	120	-8.3	53	-16.1	0	0	1004.0	NA	0.0000		9999	0	0	0	0
2019/05/30 08:49:00	BASE	7.51	116	10.13	120	-8.4	53	-16.2	0	0	1004.0	NA	0.0000		9999	0	0	0	0
2019/05/30 08:50:00	BASE	7.90	111	9.98	121	-8.7	53	-16.6	0	0	1004.0	NA	0.0000		9999	0	0	0	0
2019/05/30 08:51:00	BASE	7.61	118	8.85	128	-9.0	53	-16.8	0	0	1004.0	NA	0.0000		9999	0	0	0	0
2019/05/30 08:52:00	BASE	6.99	126	8.85	128	-9.1	53	-16.9	0	0	1004.0	NA	0.0000		9999	0	0	0	0
2019/05/30 08:53:00	BASE	6.38	128	8.39	122	-9.2	53	-17.0	0	0	1004.0	NA	0.0000		9999	0	0	0	0
2019/05/30 08:54:00	BASE	6.23	131	8.39	122	-9.2	53	-17.0	0	0	1004.0	NA	0.0000		9999	0	0	0	0
2019/05/30 08:55:00	BASE	6.16	136	8.39	122	-8.9	53	-16.9	0	0	1004.1	NA	0.0000		9999	0	0	0	0
2019/05/30 08:56:00	BASE	5.94	134	8.39	122	-8.7	52	-16.8	0	0	1004.1	NA	0.0000		9999	0	0	0	0
2019/05/30 08:57:00	BASE	5.70	130	8.39	122	-8.5	51	-16.9	0	0	1004.1	NA	0.0000		9999	0	0	0	0
2019/05/30 08:58:00	BASE	5.43	122	8.39	122	-8.5	50	-17.1	0	0	1004.1	NA	0.0000		9999	0	0	0	0
2019/05/30 08:59:00	BASE	4.98	116	8.39	122	-8.4	49	-17.3	0	0	1004.1	NA	0.0000		9999	0	0	0	0
2019/05/30 09:00:00	BASE	4.55	119	7.56	121	-8.4	48	-17.4	0	0	1004.1	NA	0.0000		9999	0	0	0	0
2019/05/30 09:01:00	BASE	4.99	123	7.46	130	-8.4	48	-17.5	0	0	1004.2	NA	0.0000		9999	0	0	0	0
2019/05/30 09:02:00	BASE	5.74	124	6.89	134	-8.5	48	-17.6	0	0	1004.2	NA	0.0000		9999	0	0	0	0
2019/05/30 09:03:00	BASE	6.21	125	7.10	130	-8.5	48	-17.6	0	0	1004.2	NA	0.0000		9999	0	0	0	0
2019/05/30 09:04:00	BASE	6.53	130	7.10	130	-8.5	48	-17.5	0	0	1004.2	NA	0.0000		9999	0	0	0	0
2019/05/30 09:05:00	BASE	6.36	136	7.10	130	-8.5	48	-17.4	0	0	1004.2	NA	0.0000		9999	0	0	0	0
2019/05/30 09:06:00	BASE	5.88	139	7.10	130	-8.4	49	-17.2	0	0	1004.2	NA	0.0000		9999	0	0	0	0
2019/05/30 09:07:00	BASE	5.70	138	7.10	130	-8.4	49	-17.1	0	0	1004.2	NA	0.0000		9999	0	0	0	0
2019/05/30 09:08:00	BASE	6.06	137	7.41	144	-8.3	49	-17.1	0	0	1004.2	NA	0.0000		9999	0	0	0	0
2019/05/30 09:09:00	BASE	6.64	136	7.41	144	-8.3	49	-17.2	0	0	1004.2	NA	0.0000		9999	0	0	0	0
2019/05/30 09:10:00	BASE	6.80	136	7.41	144	-8.4	49	-17.3	0	0	1004.3	NA	0.0000		9999	0	0	0	0
2019/05/30 09:11:00	BASE	6.92	136	7.77	136	-8.5	49	-17.4	0	0	1004.3	NA	0.0000		9999	0	0	0	0
2019/05/30 09:12:00	BASE	7.43	136	7.92	135	-8.6	49	-17.5	0	0	1004.4	NA	0.0000		9999	0	0	0	0
2019/05/30 09:13:00	BASE	7.98	135	8.44	134	-8.7	49	-17.5	0	0	1004.4	NA	0.0000		9999	0	0	0	0
2019/05/30 09:14:00	BASE	8.37	134	8.95	132	-8.9	50	-17.5	0	0	1004.4	NA	0.0000		9999	0	0	0	0
2019/05/30 09:15:00	BASE	8.42	129	8.95	115	-8.9	50	-17.4	0	0	1004.5	NA	0.0000		9999	0	0	0	0
2019/05/30 09:16:00	BASE	8.42	127	9.16	130	-8.9	50	-17.4	0	0	1004.5	NA	0.0000		9999	0	0	0	0
2019/05/30 09:17:00	BASE	8.16	133	9.16	130	-8.8	51	-17.2	0	0	1004.5	NA	0.0000		9999	0	0	0	0
2019/05/30 09:18:00	BASE	7.90	135	9.16	130	-8.8	51	-17.1	0	0	1004.5	NA	0.0000		9999	0	0	0	0
2019/05/30 09:19:00	BASE	8.41	133	9.88	125	-8.7	51	-17.0	0	0	1004.5	NA	0.0000		9999	0	0	0	0
2019/05/30 09:20:00	BASE	9.32	128	10.19	126	-8.6	51	-16.8	0	0	1004.5	NA	0.0000		9999	0	0	0	0
2019/05/30 09:21:00	BASE	9.47	126	10.19	126	-8.5	52	-16.7	0	0	1004.6	NA	0.0000		9999	0	0	0	0
2019/05/30 09:22:00	BASE	8.70	125	10.19	126	-8.4	51	-16.7	0	0	1004.6	NA	0.0000		9999	0	0	0	0
2019/05/30 09:23:00	BASE	8.02	124	10.19	126	-8.3	51	-16.7	0	0	1004.6	NA	0.0000		9999	0	0	0	0
2019/05/30 09:24:00	BASE	7.18	123	10.19	126	-8.2	50	-16.8	0	0	1004.6	NA	0.0000		9999	0	0	0	0
2019/05/30 09:25:00	BASE	6.19	123	10.19	126	-8.1	49	-16.9	0	0	1004.6	NA	0.0000		9999	0	0	0	0
2019/05/30 09:26:00	BASE	5.62	124	10.19	126	-8.3	49	-17.2	0	0	1004.6	NA	0.0000		9999	0	0	0	0
2019/05/30 09:27:00	BASE	6.03	123	10.19	126	-8.4	48	-17.4	0	0	1004.6	NA	0.0000		9999	0	0	0	0
2019/05/30 09:28:00	BASE	6.54	122	10.19	126	-8.5	49	-17.4	0	0	1004.7	NA	0.0000		9999	0	0	0	0
2019/05/30 09:29:00	BASE	6.28	122	10.19	126	-8.6	49	-17.4	0	0	1004.7	NA	0.0000		9999	0	0	0	0
2019/05/30 09:30:00	BASE	5.67	121	9.88	123	-8.7	49	-17.4	0	0	1004.7	NA	0.0000		9999	0	0	0	0
2019/05/30 09:31:00	BASE	5.26	118	8.85	129	-8.5	49	-17.3	0	0	1004.7	NA	0.0000		9999	0	0	0	0
2019/05/30 09:32:00	BASE	5.44	112	8.64	121	-8.4	49	-17.3	0	0	1004.7	NA	0.0000		9999	0	0	0	0
2019/05/30 09:33:00	BASE	5.24	110	7.25	122	-8.4	48	-17.4	0	0	1004.7	NA	0.0000		9999	0	0	0	0
2019/05/30 09:34:00	BASE	5.07	113	7.15	125	-8.3	48	-17.5	0	0	1004.8	NA	0.0000		9999	0	0	0	0
2019/05/30 09:35:00	BASE	5.41	110	7.15	125	-8.4	47	-17.6	0	0	1004.8	NA	0.0000		9999	0	0	0	0
2019/05/30 09:36:00	BASE	5.68	105	7.15	125	-8.5	47	-17.7	0	0	1004.9	NA	0.0000		9999	0	0	0	0
2019/05/30 09:37:00	BASE	5.68	102	7.15	125	-8.5	47	-17.8	0	0	1004.9	NA	0.0000		9999	0	0	0	0
2019/05/30 09:38:00	BASE	5.68	102	6.69	121	-8.5	47	-17.8	0	0	1004.9	NA	0.0000		9999	0	0	0	0
2019/05/30 09:39:01	BASE	6.02	103	6.48	104	-8.5	47	-17.8	0	0	1004.9	NA	0.0000		9999	0	0	0	0
2019/05/30 09:40:01	BASE	6.43	99	7.10	90	-8.5	47	-17.9	0	0	1004.9	NA	0.0000		9999	0	0	0	0
2019/05/30 09:41:01	BASE	6.66	99	7.15	98	-8.6	47	-17.9	0	0	1005.0	NA	0.0000		9999	0	0	0	0
2019/05/30 09:42:01	BASE	6.35	103	7.15	98	-8.7	47	-17.9	0	0	1005.0	NA	0.0000		9999	0	0	0	0
2019/05/30 09:43:01	BASE	6.04	99	7.15	98	-8.9	48	-18.0	0	0	1005.0	NA	0.0000		9999	0	0	0	0
2019/05/30 09:44:01	BASE	6.06	98	7.15	98	-8.9	49	-17.8	0	0	1005.1	NA	0.0000		9999	0	0	0	0
2019/05/30 09:45:01	BASE	6.35	102	7.25	100	-8.8	49	-17.7	0	0	1005.1	NA	0.0000		9999	0	0	0	0
2019/05/30 09:46:01	BASE	6.23	107	7.25	100	-8.7	49	-17.5	0	0	1005.1	NA	0.0000		9999	0	0	0	0
2019/05/30 09:47:01	BASE	5.73	113	7.25	100	-8.6	49	-17.5	0	0	1005.1	NA	0.0000		9999	0	0	0	0
2019/05/30 09:48:01	BASE	5.56	112	7.25	100	-8.6	49	-17.4	0	0	1005.1	NA	0.0000		9999	0	0	0	0
2019/05/30 09:49:01	BASE	5.48	109	7.25	100	-8.6	49	-17.4	0	0	1005.1	NA	0.0000		9999	0	0	0	0
2019/05/30 09:50:01	BASE	5.44	108	7.25	100	-8.7	50	-17.3	0	0	1005.1	NA	0.0000		9999	0	0	0	0
2019/05/30 09:51:01	BASE	5.73	109	7.25	100	-8.6	50	-17.2	0	0	1005.2	NA	0.0000		9999	0	0	0	0
2019/05/30 09:52:00	BASE	6.42	114	7.25	100	-8.5	50	-17.2	0	0	1005.2	NA	0.0000		9999	0	0	0	0
2019/05/30 09:53:00	BASE	6.60	114	7.25	100	-8.6	49	-17.3	0	0	1005.2	NA	0.0000		9999	0	0	0	0
2019/05/30 09:54:00	BASE	6.21	111	7.25	100	-8.5	49	-17.4	0	0	1005.3	NA	0.0000		9999	0	0	0	0
2019/05/30 09:55:01	BASE	5.90	108	6.94	116	-8.5	49	-17.4	0	0	1005.3	NA	0.0000		9999	0	0	0	0
2019/05/30 09:56:00	BASE	6.10	104	6.94	116	-8.6	49	-17.4	0	0	1005.3	NA	0.0000		9999	0	0	0	0
2019/05/30 09:57:00	BASE	5.98	98	6.94	116	-8.5	49	-17.3	0	0	1005.3	NA	0.0000		9999	0	0	0	0
2019/05/30 09:58:00	BASE	5.79	96	6.94	116	-8.3	49	-17.1	0	0	1005.3	NA	0.0000		9999	0	0	0	0
2019/05/30 09:59:01	BASE	5.71	99	6.94	116	-8.2	49	-17.2	0	0	1005.3	NA	0.0000		9999	0	0	0	0
2019/05/30 10:00:01	BASE	5.11	99	6.94	116	-8.2	48	-17.3	0	0	1005.3	NA	0.0000		9999	0	0	0	0
2019/05/30 10:01:01	BASE	5.22	101	6.94	116	-8.2	47	-17.4	0	0	1005.3	NA	0.0000		9999	0	0	0	0
2019/05/30 10:02:01	BASE	5.95	103	6.94	116	-8.2	47	-17.6	0	0	1005.3	NA	0.0000		9999	0	0	0	0
2019/05/30 10:03:01	BASE	6.39	97	7.00	93	-8.3	46	-17.8	0	0	1005.3	NA	0.0000		9999	0	0	0	0
2019/05/30 10:04:01	BASE	6.41	96	7.00	93	-8.4	46	-17.9	0	0	1005.3	NA	0.0000		9999	0	0	0	0
2019/05/30 10:05:01	BASE	6.05	102	7.00	93	-8.4	46	-18.0	0	0	1005.3	NA	0.0000		9999	0	0	0	0
2019/05/30 10:06:01	BASE	6.10	104	7.00	93	-8.5	46	-18.0	0	0	1005.3	NA	0.0000		9999	0	0	0	0
2019/05/30 10:07:01	BASE	6.44	103	7.00	93	-8.4	46	-18.0	0	0	1005.3	NA	0.0000		9999	0	0	0	0
2019/05/30 10:08:01	BASE	6.90	100	7.82	96	-8.3	46	-17.9	0	0	1005.4	NA	0.0000		9999	0	0	0	0
2019/05/30 10:09:01	BASE	7.44	94	7.92	88	-8.1	46	-17.7	0	0	1005.4	NA	0.0000		9999	0	0	0	0
2019/05/30 10:10:01	BASE	7.61	89	8.75	85	-8.1	45	-17.8	0	0	1005.4	NA	0.0000		9999	0	0	0	0
2019/05/30 10:11:01	BASE	8.23	86	9.77	87	-8.1	45	-17.9	0	0	1005.4	NA	0.0000		9999	0	0	0	0
2019/05/30 10:12:01	BASE	8.81	86	9.77	87	-8.3	45	-18.1	0	0	1005.4	NA	0.0000		9999	0	0	0	0
2019/05/30 10:13:01	BASE	8.34	88	9.77	87	-8.4	45	-18.3	0	0	1005.4	NA	0.0000		9999	0	0	0	0
2019/05/30 10:14:01	BASE	8.33	88	9.77	87	-8.6	45	-18.5	0	0	1005.4	NA	0.0000		9999	0	0	0	0
2019/05/30 10:15:00	BASE	9.02	88	9.98	90	-8.7	45	-18.5	0	0	1005.4	NA	0.0000		9999	0	0	0	0
2019/05/30 10:16:00	BASE	9.23	88	9.98	90	-8.7	45	-18.4	0	0	1005.4	NA	0.0000		9999	0	0	0	0
2019/05/30 10:17:00	BASE	9.18	90	9.98	90	-8.8	45	-18.5	0	0	1005.4	NA	0.0000		9999	0	0	0	0
2019/05/30 10:18:01	BASE	8.74	95	9.98	90	-8.8	45	-18.5	0	0	1005.5	NA	0.0000		9999	0	0	0	0
2019/05/30 10:19:01	BASE	7.90	98	9.98	90	-8.8	46	-18.5	0	0	1005.5	NA	0.0000		9999	0	0	0	0
2019/05/30 10:20:01	BASE	7.35	99	9.98	90	-8.9	46	-18.4	0	0	1005.6	NA	0.0000		9999	0	0	0	0
2019/05/30 10:21:01	BASE	7.29	104	9.98	90	-8.9	46	-18.4	0	0	1005.6	NA	0.0000		9999	0	0	0	0
2019/05/30 10:22:01	BASE	7.56	106	9.98	90	-8.8	47	-18.2	0	0	1005.6	NA	0.0000		9999	0	0	0	0
2019/05/30 10:23:01	BASE	7.88	103	9.98	90	-8.7	47	-18.0	0	0	1005.6	NA	0.0000		9999	0	0	0	0
2019/05/30 10:24:01	BASE	7.71	103	9.98	90	-8.6	48	-17.8	0	0	1005.6	NA	0.0000		9999	0	0	0	0
2019/05/30 10:25:01	BASE	7.42	100	9.83	92	-8.5	48	-17.6	0	0	1005.6	NA	0.0000		9999	0	0	0	0
2019/05/30 10:26:01	BASE	7.32	96	9.83	92	-8.3	48	-17.4	0	0	1005.6	NA	0.0000		9999	0	0	0	0
2019/05/30 10:27:01	BASE	7.38	94	8.75	96	-8.3	48	-17.4	0	0	1005.7	NA	0.0000		9999	0	0	0	0
2019/05/30 10:28:01	BASE	7.32	95	8.39	104	-8.3	47	-17.5	0	0	1005.7	NA	0.0000		9999	0	0	0	0
2019/05/30 10:29:01	BASE	7.65	91	9.47	83	-8.4	47	-17.6	0	0	1005.7	NA	0.0000		9999	0	0	0	0
2019/05/30 10:30:01	BASE	9.32	84	12.81	86	-8.4	47	-17.7	0	0	1005.7	NA	0.0000		9999	0	0	0	0
2019/05/30 10:31:01	BASE	10.18	83	12.81	86	-8.5	47	-17.8	0	0	1005.7	NA	0.0000		9999	0	0	0	0
2019/05/30 10:32:01	BASE	9.80	86	12.81	86	-8.6	47	-17.9	0	0	1005.7	NA	0.0000		9999	0	0	0	0
2019/05/30 10:33:01	BASE	9.66	90	12.81	86	-8.6	46	-18.1	0	0	1005.7	NA	0.0000		9999	0	0	0	0
2019/05/30 10:34:01	BASE	9.49	89	12.81	86	-8.7	46	-18.2	0	0	1005.7	NA	0.0000		9999	0	0	0	0
2019/05/30 10:35:01	BASE	9.73	90	12.81	86	-8.7	46	-18.3	0	0	1005.7	NA	0.0000		9999	0	0	0	0
2019/05/30 10:36:01	BASE	9.40	92	12.81	86	-8.9	46	-18.4	0	0	1005.7	NA	0.0000		9999	0	0	0	0
2019/05/30 10:37:01	BASE	8.41	94	12.81	86	-8.9	46	-18.4	0	0	1005.8	NA	0.0000		9999	0	0	0	0
2019/05/30 10:38:01	BASE	8.14	97	12.81	86	-8.9	46	-18.3	0	0	1005.8	NA	0.0000		9999	0	0	0	0
2019/05/30 10:39:01	BASE	8.07	100	12.81	86	-8.9	47	-18.3	0	0	1005.7	NA	0.0000		9999	0	0	0	0
2019/05/30 10:40:01	BASE	7.91	101	11.01	88	-8.9	47	-18.2	0	0	1005.7	NA	0.0000		9999	0	0	0	0
2019/05/30 10:41:01	BASE	8.03	105	11.01	88	-8.8	47	-18.0	0	0	1005.8	NA	0.0000		9999	0	0	0	0
2019/05/30 10:42:01	BASE	8.17	107	11.01	88	-8.7	47	-18.0	0	0	1005.8	NA	0.0000		9999	0	0	0	0
2019/05/30 10:43:01	BASE	8.26	105	11.01	88	-8.6	47	-18.0	0	0	1005.8	NA	0.0000		9999	0	0	0	0
2019/05/30 10:44:01	BASE	8.17	103	11.01	88	-8.5	47	-17.9	0	0	1005.8	NA	0.0000		9999	0	0	0	0
2019/05/30 10:45:01	BASE	8.05	104	9.88	93	-8.4	46	-17.9	0	0	1005.8	NA	0.0000		9999	0	0	0	0
2019/05/30 10:46:01	BASE	8.16	104	9.67	108	-8.3	46	-17.9	0	0	1005.8	NA	0.0000		9999	0	0	0	0
2019/05/30 10:47:01	BASE	8.01	106	9.67	108	-8.3	46	-17.8	0	0	1005.8	NA	0.0000		9999	0	0	0	0
2019/05/30 10:48:01	BASE	8.07	105	9.67	108	-8.2	46	-17.8	0	0	1005.9	NA	0.0000		9999	0	0	0	0
2019/05/30 10:49:01	BASE	8.34	101	9.67	108	-8.1	46	-17.8	0	0	1005.9	NA	0.0000		9999	0	0	0	0
2019/05/30 10:50:01	BASE	7.61	94	9.67	108	-8.0	46	-17.7	0	0	1005.9	NA	0.0000		9999	0	0	0	0
2019/05/30 10:51:01	BASE	7.62	89	9.67	108	-8.1	45	-17.8	0	0	1005.9	NA	0.0000		9999	0	0	0	0
2019/05/30 10:52:01	BASE	8.70	91	9.77	90	-8.2	45	-17.9	0	0	1006.0	NA	0.0000		9999	0	0	0	0
2019/05/30 10:53:01	BASE	8.17	100	9.77	90	-8.2	45	-18.0	0	0	1006.0	NA	0.0000		9999	0	0	0	0
2019/05/30 10:54:01	BASE	7.94	114	10.03	121	-8.3	45	-18.1	0	0	1006.0	NA	0.0000		9999	0	0	0	0
2019/05/30 10:55:01	BASE	8.82	122	10.08	121	-8.3	45	-18.1	0	0	1006.0	NA	0.0000		9999	0	0	0	0
2019/05/30 10:56:01	BASE	8.29	123	10.08	121	-8.2	45	-18.0	0	0	1005.9	NA	0.0000		9999	0	0	0	0
2019/05/30 10:57:01	BASE	8.00	121	10.08	121	-8.1	45	-17.9	0	0	1005.9	NA	0.0000		9999	0	0	0	0
2019/05/30 10:58:01	BASE	8.88	112	10.08	121	-8.0	45	-17.8	0	0	1005.9	NA	0.0000		9999	0	0	0	0
2019/05/30 10:59:01	BASE	9.58	96	10.75	89	-8.1	45	-17.9	0	0	1005.9	NA	0.0000		9999	0	0	0	0
2019/05/30 11:00:01	BASE	10.31	92	11.32	93	-8.3	45	-18.0	0	0	1006.0	NA	0.0000		9999	0	0	0	0
2019/05/30 11:01:01	BASE	10.21	97	11.32	93	-8.6	46	-18.2	0	0	1006.0	NA	0.0000		9999	0	0	0	0
2019/05/30 11:02:01	BASE	9.60	101	11.32	93	-8.9	46	-18.3	0	0	1005.9	NA	0.0000		9999	0	0	0	0
2019/05/30 11:03:01	BASE	8.69	102	11.32	93	-9.0	47	-18.3	0	0	1006.0	NA	0.0000		9999	0	0	0	0
2019/05/30 11:04:01	BASE	7.67	102	11.32	93	-9.0	47	-18.3	0	0	1006.0	NA	0.0000		9999	0	0	0	0
2019/05/30 11:05:01	BASE	7.38	98	11.32	93	-8.9	47	-18.2	0	0	1006.0	NA	0.0000		9999	0	0	0	0
2019/05/30 11:06:01	BASE	7.79	94	11.32	93	-8.6	46	-18.1	0	0	1006.1	NA	0.0000		9999	0	0	0	0
2019/05/30 11:07:01	BASE	8.96	92	11.32	93	-8.4	46	-18.0	0	0	1006.1	NA	0.0000		9999	0	0	0	0
2019/05/30 11:08:01	BASE	10.23	88	11.32	93	-8.3	45	-18.1	0	0	1006.0	NA	0.0000		9999	0	0	0	0
2019/05/30 11:09:01	BASE	11.03	87	11.68	82	-8.3	45	-18.1	0	0	1006.1	NA	0.0000		9999	0	0	0	0
2019/05/30 11:10:01	BASE	11.24	88	12.71	95	-8.2	45	-18.1	0	0	1006.0	NA	0.0000		9999	0	0	0	0
2019/05/30 11:11:01	BASE	11.06	90	12.71	95	-8.2	45	-18.1	0	0	1006.1	NA	0.0000		9999	0	0	0	0
2019/05/30 11:12:01	BASE	11.26	94	12.71	95	-8.3	45	-18.2	0	0	1006.1	NA	0.0000		9999	0	0	0	0
2019/05/30 11:13:01	BASE	11.39	94	12.71	95	-8.3	45	-18.1	0	0	1006.1	NA	0.0000		9999	0	0	0	0
2019/05/30 11:14:01	BASE	11.46	91	12.71	83	-8.3	45	-18.1	0	0	1006.1	NA	0.0000		9999	0	0	0	0
2019/05/30 11:15:01	BASE	11.64	93	12.96	91	-8.4	46	-18.1	0	0	1006.1	NA	0.0000		9999	0	0	0	0
2019/05/30 11:16:01	BASE	11.80	93	13.17	91	-8.5	46	-18.0	0	0	1006.0	NA	0.0000		9999	0	0	0	0
2019/05/30 11:17:01	BASE	11.67	91	13.17	91	-8.5	46	-18.0	0	0	1006.1	NA	0.0000		9999	0	0	0	0
2019/05/30 11:18:01	BASE	10.84	90	13.17	91	-8.5	47	-17.9	0	0	1006.1	NA	0.0000		9999	0	0	0	0
2019/05/30 11:19:01	BASE	10.13	87	13.17	91	-8.5	47	-17.8	0	0	1006.2	NA	0.0000		9999	0	0	0	0
2019/05/30 11:20:01	BASE	9.64	84	13.17	91	-8.7	47	-17.9	0	0	1006.2	NA	0.0000		9999	0	0	0	0
2019/05/30 11:21:01	BASE	9.31	87	13.17	91	-8.6	48	-17.7	0	0	1006.2	NA	0.0000		9999	0	0	0	0
2019/05/30 11:22:01	BASE	9.46	94	13.17	91	-8.5	48	-17.6	0	0	1006.3	NA	0.0000		9999	0	0	0	0
2019/05/30 11:23:01	BASE	10.45	94	13.17	91	-8.6	48	-17.6	0	0	1006.3	NA	0.0000		9999	0	0	0	0
2019/05/30 11:24:01	BASE	11.12	92	13.17	91	-8.5	48	-17.6	0	0	1006.3	NA	0.0000		9999	0	0	0	0
2019/05/30 11:25:01	BASE	11.15	93	13.17	91	-8.4	48	-17.5	0	0	1006.3	NA	0.0000		9999	0	0	0	0
2019/05/30 11:26:01	BASE	12.15	94	14.10	94	-8.5	47	-17.7	0	0	1006.3	NA	0.0000		9999	0	0	0	0
2019/05/30 11:27:01	BASE	12.90	91	14.10	94	-8.6	47	-17.9	0	0	1006.3	NA	0.0000		9999	0	0	0	0
2019/05/30 11:28:01	BASE	12.81	90	14.92	93	-8.5	47	-17.9	0	0	1006.4	NA	0.0000		9999	0	0	0	0
2019/05/30 11:29:01	BASE	13.25	91	15.59	90	-8.6	47	-17.9	0	0	1006.4	NA	0.0000		9999	0	0	0	0
2019/05/30 11:30:01	BASE	13.84	91	15.59	90	-8.6	47	-17.9	0	0	1006.4	NA	0.0000		9999	0	0	0	0
2019/05/30 11:31:01	BASE	13.95	90	16.46	89	-8.6	47	-17.8	0	0	1006.3	NA	0.0000		9999	0	0	0	0
2019/05/30 11:32:01	BASE	14.43	89	16.46	89	-8.5	48	-17.6	0	0	1006.3	NA	0.0000		9999	0	0	0	0
2019/05/30 11:33:01	BASE	14.57	92	16.46	89	-8.5	48	-17.5	0	0	1006.3	NA	0.0000		9999	0	0	0	0
2019/05/30 11:34:01	BASE	13.88	94	16.46	89	-8.4	48	-17.4	0	0	1006.3	NA	0.0000		9999	0	0	0	0
2019/05/30 11:35:01	BASE	13.51	94	16.46	89	-8.3	48	-17.3	0	0	1006.3	NA	0.0000		9999	0	0	0	0
2019/05/30 11:36:01	BASE	13.59	96	16.46	89	-8.3	49	-17.2	0	0	1006.3	NA	0.0000		9999	0	0	0	0
2019/05/30 11:37:01	BASE	13.86	97	16.46	89	-8.4	49	-17.1	0	0	1006.3	NA	0.0000		9999	0	0	0	0
2019/05/30 11:38:01	BASE	14.58	96	16.46	89	-8.4	50	-17.1	0	0	1006.3	NA	0.0000		9999	0	0	0	0
2019/05/30 11:39:01	BASE	14.36	98	16.46	89	-8.5	50	-17.1	0	0	1006.3	NA	0.0000		9999	0	0	0	0
2019/05/30 11:40:01	BASE	14.14	96	16.46	89	-8.6	50	-17.1	0	0	1006.3	NA	0.0000		9999	0	0	0	0
2019/05/30 11:41:01	BASE	14.97	93	16.41	90	-8.7	50	-17.2	0	0	1006.3	NA	0.0000		9999	0	0	0	0
2019/05/30 11:42:01	BASE	14.75	92	15.95	91	-8.8	50	-17.3	0	0	1006.3	NA	0.0000		9999	0	0	0	0
2019/05/30 11:43:01	BASE	14.55	91	15.95	91	-8.8	50	-17.3	0	0	1006.3	NA	0.0000		9999	0	0	0	0
2019/05/30 11:44:01	BASE	14.48	93	15.95	91	-8.9	50	-17.3	0	0	1006.3	NA	0.0000		9999	0	0	0	0
2019/05/30 11:45:01	BASE	13.92	98	15.95	91	-8.8	51	-17.3	0	0	1006.4	NA	0.0000		9999	0	0	0	0
2019/05/30 11:46:01	BASE	13.67	99	15.95	91	-8.8	51	-17.1	0	0	1006.4	NA	0.0000		9999	0	0	0	0
2019/05/30 11:47:01	BASE	14.18	100	15.95	91	-8.7	51	-17.0	0	0	1006.4	NA	0.0000		9999	0	0	0	0
2019/05/30 11:48:01	BASE	14.55	101	15.95	91	-8.6	51	-16.9	0	0	1006.5	NA	0.0000		9999	0	0	0	0
2019/05/30 11:49:01	BASE	14.15	101	15.95	91	-8.5	51	-16.9	0	0	1006.5	NA	0.0000		9999	0	0	0	0
2019/05/30 11:50:01	BASE	14.23	98	16.36	93	-8.5	51	-17.0	0	0	1006.5	NA	0.0000		9999	0	0	0	0
2019/05/30 11:51:01	BASE	15.09	95	16.41	93	-8.6	50	-17.1	0	0	1006.5	NA	0.0000		9999	0	0	0	0
2019/05/30 11:52:01	BASE	15.39	94	16.41	93	-8.7	50	-17.2	0	0	1006.5	NA	0.0000		9999	0	0	0	0
2019/05/30 11:53:01	BASE	15.09	92	16.41	93	-8.8	50	-17.4	0	0	1006.5	NA	0.0000		9999	0	0	0	0
2019/05/30 11:54:01	BASE	15.15	92	16.41	93	-9.0	50	-17.5	0	0	1006.5	NA	0.0000		9999	0	0	0	0
2019/05/30 11:55:01	BASE	15.17	93	16.41	93	-9.1	51	-17.4	0	0	1006.5	NA	0.0000		9999	0	0	0	0
2019/05/30 11:56:01	BASE	15.37	94	16.77	92	-9.2	51	-17.5	0	0	1006.5	NA	0.0000		9999	0	0	0	0
2019/05/30 11:57:01	BASE	15.16	96	16.77	92	-9.2	52	-17.4	0	0	1006.6	NA	0.0000		9999	0	0	0	0
2019/05/30 11:58:01	BASE	14.93	96	17.08	93	-9.2	52	-17.2	0	0	1006.6	NA	0.0000		9999	0	0	0	0
2019/05/30 11:59:01	BASE	15.04	93	17.08	93	-9.2	53	-17.0	0	0	1006.6	NA	0.0000		9999	0	0	0	0
2019/05/30 12:00:01	BASE	14.44	92	17.08	93	-9.1	53	-17.0	0	0	1006.6	NA	0.0000		9999	0	0	0	0
2019/05/30 12:01:01	BASE	14.79	92	17.18	89	-9.0	53	-16.9	0	0	1006.6	NA	0.0000		9999	0	0	0	0
2019/05/30 12:02:01	BASE	14.74	93	17.18	89	-8.9	52	-16.9	0	0	1006.6	NA	0.0000		9999	0	0	0	0
2019/05/30 12:03:01	BASE	14.13	94	17.18	89	-8.9	52	-17.0	0	0	1006.5	NA	0.0000		9999	0	0	0	0
2019/05/30 12:04:01	BASE	14.44	94	17.18	89	-9.0	52	-17.0	0	0	1006.6	NA	0.0000		9999	0	0	0	0
2019/05/30 12:05:01	BASE	14.23	96	17.18	89	-9.0	52	-17.0	0	0	1006.7	NA	0.0000		9999	0	0	0	0
2019/05/30 12:06:01	BASE	13.30	94	17.18	89	-9.0	53	-16.9	0	0	1006.7	NA	0.0000		9999	0	0	0	0
2019/05/30 12:07:01	BASE	13.30	92	17.18	89	-9.0	53	-16.9	0	0	1006.7	NA	0.0000		9999	0	0	0	0
2019/05/30 12:08:01	BASE	13.61	91	17.18	89	-8.9	53	-16.8	0	0	1006.7	NA	0.0000		9999	0	0	0	0
2019/05/30 12:09:01	BASE	13.94	88	17.18	89	-8.7	52	-16.8	0	0	1006.7	NA	0.0000		9999	0	0	0	0
2019/05/30 12:10:01	BASE	14.38	90	17.18	89	-8.6	51	-16.9	0	0	1006.7	NA	0.0000		9999	0	0	0	0
2019/05/30 12:11:01	BASE	14.24	93	15.43	86	-8.5	51	-17.0	0	0	1006.7	NA	0.0000		9999	0	0	0	0
2019/05/30 12:12:01	BASE	14.15	91	15.43	86	-8.4	50	-17.0	0	0	1006.7	NA	0.0000		9999	0	0	0	0
2019/05/30 12:13:01	BASE	14.58	90	15.95	91	-8.5	50	-17.1	0	0	1006.7	NA	0.0000		9999	0	0	0	0
2019/05/30 12:14:01	BASE	14.43	93	15.95	91	-8.5	50	-17.1	0	0	1006.8	NA	0.0000		9999	0	0	0	0
2019/05/30 12:15:01	BASE	13.43	93	15.95	91	-8.5	50	-17.1	0	0	1006.8	NA	0.0000		9999	0	0	0	0
2019/05/30 12:16:01	BASE	13.60	93	15.95	91	-8.5	50	-17.1	0	0	1006.9	NA	0.0000		9999	0	0	0	0
2019/05/30 12:17:01	BASE	14.16	92	15.95	91	-8.6	51	-17.0	0	0	1006.9	NA	0.0000		9999	0	0	0	0
2019/05/30 12:18:01	BASE	13.46	89	15.95	91	-8.7	51	-17.0	0	0	1006.9	NA	0.0000		9999	0	0	0	0
2019/05/30 12:19:01	BASE	12.63	89	15.95	91	-8.8	52	-17.0	0	0	1006.9	NA	0.0000		9999	0	0	0	0
2019/05/30 12:20:01	BASE	12.69	89	15.95	91	-9.0	52	-17.0	0	0	1006.9	NA	0.0000		9999	0	0	0	0
2019/05/30 12:21:01	BASE	11.78	94	15.95	91	-9.1	53	-16.9	0	0	1006.9	NA	0.0000		9999	0	0	0	0
2019/05/30 12:22:01	BASE	11.13	98	15.95	91	-9.1	53	-16.8	0	0	1006.9	NA	0.0000		9999	0	0	0	0
2019/05/30 12:23:01	BASE	12.35	95	15.12	89	-9.0	54	-16.7	0	0	1006.9	NA	0.0000		9999	0	0	0	0
2019/05/30 12:24:01	BASE	13.43	93	15.12	89	-9.0	53	-16.7	0	0	1006.9	NA	0.0000		9999	0	0	0	0
2019/05/30 12:25:01	BASE	14.39	92	15.48	89	-8.9	53	-16.7	0	0	1006.9	NA	0.0000		9999	0	0	0	0
2019/05/30 12:26:01	BASE	14.64	92	15.48	89	-8.8	53	-16.7	0	0	1006.9	NA	0.0000		9999	0	0	0	0
2019/05/30 12:27:01	BASE	13.68	94	15.48	89	-8.8	53	-16.7	0	0	1007.0	NA	0.0000		9999	0	0	0	0
2019/05/30 12:28:01	BASE	13.02	93	15.48	89	-8.8	53	-16.7	0	0	1007.0	NA	0.0000		9999	0	0	0	0
2019/05/30 12:29:01	BASE	13.07	90	15.48	89	-8.8	53	-16.7	0	0	1007.0	NA	0.0000		9999	0	0	0	0
2019/05/30 12:30:01	BASE	13.57	89	15.48	89	-8.8	53	-16.6	0	0	1007.1	NA	0.0000		9999	0	0	0	0
2019/05/30 12:31:01	BASE	13.92	92	15.48	89	-8.9	53	-16.7	0	0	1007.1	NA	0.0000		9999	0	0	0	0
2019/05/30 12:32:01	BASE	14.39	94	15.95	92	-8.9	53	-16.7	0	0	1007.1	NA	0.0000		9999	0	0	0	0
2019/05/30 12:33:01	BASE	14.18	96	15.95	92	-8.9	53	-16.8	0	0	1007.1	NA	0.0000		9999	0	0	0	0
2019/05/30 12:34:01	BASE	13.01	96	15.95	92	-9.0	53	-16.8	0	0	1007.2	NA	0.0000		9999	0	0	0	0
2019/05/30 12:35:01	BASE	13.36	93	15.95	92	-9.0	53	-16.8	0	0	1007.1	NA	0.0000		9999	0	0	0	0
2019/05/30 12:36:01	BASE	14.22	90	15.95	92	-8.9	53	-16.8	0	0	1007.2	NA	0.0000		9999	0	0	0	0
2019/05/30 12:37:01	BASE	13.70	93	15.95	92	-8.8	53	-16.8	0	0	1007.2	NA	0.0000		9999	0	0	0	0
2019/05/30 12:38:01	BASE	12.84	92	15.95	92	-8.8	52	-16.8	0	0	1007.2	NA	0.0000		9999	0	0	0	0
2019/05/30 12:39:01	BASE	12.35	88	15.95	92	-8.6	52	-16.8	0	0	1007.2	NA	0.0000		9999	0	0	0	0
2019/05/30 12:40:01	BASE	13.18	91	15.95	92	-8.5	51	-16.8	0	0	1007.1	NA	0.0000		9999	0	0	0	0
2019/05/30 12:41:01	BASE	13.80	91	15.95	92	-8.4	51	-16.8	0	0	1007.2	NA	0.0000		9999	0	0	0	0
2019/05/30 12:42:01	BASE	13.18	89	15.48	90	-8.4	50	-16.9	0	0	1007.2	NA	0.0000		9999	0	0	0	0
2019/05/30 12:43:01	BASE	12.28	87	15.48	90	-8.3	50	-16.9	0	0	1007.3	NA	0.0000		9999	0	0	0	0
2019/05/30 12:44:01	BASE	11.25	87	15.48	90	-8.3	50	-16.9	0	0	1007.3	NA	0.0000		9999	0	0	0	0
2019/05/30 12:45:01	BASE	10.84	87	15.48	90	-8.3	50	-16.8	0	0	1007.3	NA	0.0000		9999	0	0	0	0
2019/05/30 12:46:01	BASE	10.82	88	15.48	90	-8.3	51	-16.8	0	0	1007.3	NA	0.0000		9999	0	0	0	0
2019/05/30 12:47:01	BASE	10.64	92	15.48	90	-8.3	50	-16.8	0	0	1007.3	NA	0.0000		9999	0	0	0	0
2019/05/30 12:48:01	BASE	10.45	91	15.48	90	-8.4	50	-16.9	0	0	1007.3	NA	0.0000		9999	0	0	0	0
2019/05/30 12:49:01	BASE	10.93	86	15.48	90	-8.4	51	-16.8	0	0	1007.3	NA	0.0000		9999	0	0	0	0
2019/05/30 12:50:01	BASE	11.54	82	14.15	88	-8.3	51	-16.7	0	0	1007.3	NA	0.0000		9999	0	0	0	0
2019/05/30 12:51:01	BASE	11.52	83	13.68	87	-8.3	51	-16.7	0	0	1007.4	NA	0.0000		9999	0	0	0	0
2019/05/30 12:52:01	BASE	10.53	86	13.48	85	-8.1	50	-16.7	0	0	1007.4	NA	0.0000		9999	0	0	0	0
2019/05/30 12:53:01	BASE	9.99	88	12.45	85	-7.9	50	-16.6	0	0	1007.3	NA	0.0000		9999	0	0	0	0
2019/05/30 12:54:01	BASE	10.58	87	12.45	85	-7.8	49	-16.7	0	0	1007.3	NA	0.0000		9999	0	0	0	0
2019/05/30 12:55:01	BASE	11.53	85	13.94	86	-7.7	48	-16.8	0	0	1007.3	NA	0.0000		9999	0	0	0	0
2019/05/30 12:56:01	BASE	12.08	84	13.94	86	-7.7	48	-16.9	0	0	1007.4	NA	0.0000		9999	0	0	0	0
2019/05/30 12:57:01	BASE	11.76	86	13.94	86	-7.7	48	-16.9	0	0	1007.4	NA	0.0000		9999	0	0	0	0
2019/05/30 12:58:01	BASE	11.69	89	13.94	86	-7.6	48	-16.9	0	0	1007.5	NA	0.0000		9999	0	0	0	0
2019/05/30 12:59:01	BASE	11.96	90	13.94	86	-7.6	47	-16.9	0	0	1007.4	NA	0.0000		9999	0	0	0	0
2019/05/30 13:00:01	BASE	12.33	85	14.46	77	-7.6	47	-16.9	0	0	1007.4	NA	0.0000		9999	0	0	0	0
2019/05/30 13:01:01	BASE	12.14	84	14.46	77	-7.6	47	-16.9	0	0	1007.3	NA	0.0000		9999	0	0	0	0
2019/05/30 13:02:01	BASE	11.39	89	14.46	77	-7.6	47	-17.0	0	0	1007.3	NA	0.0000		9999	0	0	0	0
2019/05/30 13:03:01	BASE	10.31	89	14.46	77	-7.7	47	-17.1	0	0	1007.3	NA	0.0000		9999	0	0	0	0
2019/05/30 13:04:01	BASE	10.03	88	14.46	77	-7.8	47	-17.2	1	0	1007.4	NA	0.0000		9999	0	0	0	0
2019/05/30 13:05:01	BASE	11.14	89	14.46	77	-8.0	48	-17.2	1	0	1007.4	NA	0.0000		9999	0	0	0	0
2019/05/30 13:06:01	BASE	11.32	91	14.46	77	-8.0	48	-17.1	1	0	1007.4	NA	0.0000		9999	0	0	0	0
2019/05/30 13:07:01	BASE	10.55	93	14.46	77	-8.1	48	-17.1	1	0	1007.5	NA	0.0000		9999	0	0	0	0
2019/05/30 13:08:01	BASE	9.99	93	14.46	77	-8.2	49	-17.1	1	0	1007.6	NA	0.0000		9999	0	0	0	0
2019/05/30 13:09:01	BASE	9.85	95	14.46	77	-8.3	49	-17.1	1	0	1007.6	NA	0.0000		9999	0	0	0	0
2019/05/30 13:10:01	BASE	10.34	94	13.32	78	-8.4	49	-17.2	1	0	1007.6	NA	0.0000		9999	0	0	0	0
2019/05/30 13:11:00	BASE	10.88	89	13.32	78	-8.5	50	-17.2	1	0	1007.6	NA	0.0000		9999	0	0	0	0
2019/05/30 13:12:01	BASE	11.65	88	13.53	94	-8.5	50	-17.1	1	0	1007.6	NA	0.0000		9999	0	0	0	0
2019/05/30 13:13:01	BASE	12.18	91	14.66	91	-8.4	50	-17.1	1	0	1007.6	NA	0.0000		9999	0	0	0	0
2019/05/30 13:14:01	BASE	13.40	92	15.64	95	-8.3	49	-17.1	1	0	1007.6	NA	0.0000		9999	0	0	0	0
2019/05/30 13:15:01	BASE	13.14	90	15.64	95	-8.3	49	-17.2	1	0	1007.6	NA	0.0000		9999	0	0	0	0
2019/05/30 13:16:01	BASE	11.81	90	15.64	95	-8.3	48	-17.3	1	0	1007.6	NA	0.0000		9999	0	0	0	0
2019/05/30 13:17:01	BASE	11.51	88	15.64	95	-8.3	48	-17.3	1	0	1007.7	NA	0.0000		9999	0	0	0	0
2019/05/30 13:18:01	BASE	11.93	89	15.64	95	-8.4	49	-17.3	1	0	1007.7	NA	0.0000		9999	0	0	0	0
2019/05/30 13:19:01	BASE	13.06	90	15.64	95	-8.3	49	-17.3	1	0	1007.7	NA	0.0000		9999	0	0	0	0
2019/05/30 13:20:01	BASE	12.96	91	15.64	95	-8.3	49	-17.2	1	0	1007.8	NA	0.0000		9999	0	0	0	0
2019/05/30 13:21:01	BASE	12.22	93	15.64	95	-8.3	48	-17.4	2	0	1007.8	NA	0.0000		9999	0	0	0	0
2019/05/30 13:22:01	BASE	12.42	92	15.64	95	-8.4	48	-17.5	2	0	1007.8	NA	0.0000		9999	0	0	0	0
2019/05/30 13:23:01	BASE	13.22	92	15.64	95	-8.5	48	-17.5	2	0	1007.8	NA	0.0000		9999	0	0	0	0
2019/05/30 13:24:01	BASE	13.00	91	14.15	93	-8.6	48	-17.5	2	0	1007.8	NA	0.0000		9999	0	0	0	0
2019/05/30 13:25:01	BASE	12.06	92	14.15	93	-8.7	49	-17.6	2	0	1007.8	NA	0.0000		9999	0	0	0	0
2019/05/30 13:26:01	BASE	11.98	93	14.40	89	-8.7	49	-17.5	2	0	1007.8	NA	0.0000		9999	0	0	0	0
2019/05/30 13:27:01	BASE	13.20	91	14.61	95	-8.6	49	-17.4	2	0	1007.8	NA	0.0000		9999	0	0	0	0
2019/05/30 13:28:01	BASE	13.97	91	14.76	93	-8.5	49	-17.4	2	0	1007.8	NA	0.0000		9999	0	0	0	0
2019/05/30 13:29:01	BASE	13.55	91	15.02	91	-8.4	48	-17.4	2	0	1007.8	NA	0.0000		9999	0	0	0	0
2019/05/30 13:30:01	BASE	13.15	90	15.02	91	-8.4	48	-17.5	2	0	1007.7	NA	0.0000		9999	0	0	0	0
2019/05/30 13:31:01	BASE	12.99	88	15.02	91	-8.3	48	-17.5	3	0	1007.8	NA	0.0000		9999	0	0	0	0
2019/05/30 13:32:01	BASE	12.59	87	15.02	91	-8.3	48	-17.5	3	0	1007.7	NA	0.0000		9999	0	0	0	0
2019/05/30 13:33:01	BASE	12.71	91	15.02	91	-8.4	48	-17.5	3	0	1007.7	NA	0.0000		9999	0	0	0	0
2019/05/30 13:34:01	BASE	12.99	94	15.02	91	-8.3	48	-17.4	3	0	1007.7	NA	0.0000		9999	0	0	0	0
2019/05/30 13:35:01	BASE	13.06	94	15.02	91	-8.2	48	-17.4	3	0	1007.8	NA	0.0000		9999	0	0	0	0
2019/05/30 13:36:01	BASE	12.92	93	15.02	91	-8.2	47	-17.5	3	0	1007.8	NA	0.0000		9999	0	0	0	0
2019/05/30 13:37:01	BASE	12.76	93	15.02	91	-8.2	47	-17.5	3	0	1007.8	NA	0.0000		9999	0	0	0	0
2019/05/30 13:38:01	BASE	12.48	94	15.02	91	-8.2	47	-17.6	3	0	1007.8	NA	0.0000		9999	0	0	0	0
2019/05/30 13:39:00	BASE	11.81	94	14.92	91	-8.3	47	-17.6	3	0	1007.9	NA	0.0000		9999	0	0	0	0
2019/05/30 13:40:01	BASE	11.59	97	14.15	92	-8.3	47	-17.5	4	0	1007.9	NA	0.0000		9999	0	0	0	0
2019/05/30 13:41:00	BASE	12.32	96	14.15	92	-8.3	48	-17.4	4	0	1007.9	NA	0.0000		9999	0	0	0	0
2019/05/30 13:42:01	BASE	12.80	91	14.15	92	-8.3	48	-17.4	4	0	1007.9	NA	0.0000		9999	0	0	0	0
2019/05/30 13:43:01	BASE	13.32	89	15.48	86	-8.3	48	-17.3	4	0	1007.9	NA	0.0000		9999	0	0	0	0
2019/05/30 13:44:01	BASE	14.19	90	15.48	86	-8.2	48	-17.3	4	0	1007.9	NA	0.0000		9999	0	0	0	0
2019/05/30 13:45:00	BASE	13.88	92	15.48	86	-8.1	48	-17.3	4	0	1008.0	NA	0.0000		9999	0	0	0	0
2019/05/30 13:46:01	BASE	13.85	93	15.48	86	-8.1	47	-17.3	5	0	1007.9	NA	0.0000		9999	0	0	0	0
2019/05/30 13:47:00	BASE	14.13	95	15.48	86	-8.0	47	-17.3	5	0	1008.0	NA	0.0000		9999	0	0	0	0
2019/05/30 13:48:01	BASE	14.40	93	15.84	92	-8.0	48	-17.2	5	0	1008.0	NA	0.0000		9999	0	0	0	0
2019/05/30 13:49:00	BASE	14.92	93	16.36	93	-8.0	48	-17.2	5	0	1008.1	NA	0.0000		9999	0	0	0	0
2019/05/30 13:50:01	BASE	14.90	93	16.36	93	-7.9	48	-17.1	5	0	1008.0	NA	0.0000		9999	0	0	0	0
2019/05/30 13:51:00	BASE	15.09	92	16.82	90	-7.9	47	-17.2	5	0	1008.0	NA	0.0000		9999	0	0	0	0
2019/05/30 13:52:01	BASE	16.28	94	17.85	95	-7.9	47	-17.3	5	0	1007.9	NA	0.0000		9999	0	0	0	0
2019/05/30 13:53:00	BASE	16.58	94	17.90	92	-8.0	47	-17.3	6	0	1008.0	NA	0.0000		9999	0	0	0	0
2019/05/30 13:54:01	BASE	15.51	93	17.90	92	-8.1	48	-17.3	6	0	1008.0	NA	0.0000		9999	0	0	0	0
2019/05/30 13:55:01	BASE	14.48	92	17.90	92	-8.1	48	-17.2	6	0	1008.0	NA	0.0000		9999	0	0	0	0
2019/05/30 13:56:01	BASE	14.72	91	17.90	92	-8.2	49	-17.1	6	0	1008.0	NA	0.0000		9999	0	0	0	0
2019/05/30 13:57:01	BASE	14.98	91	17.90	92	-8.2	49	-17.0	6	0	1008.1	NA	0.0000		9999	0	0	0	0
2019/05/30 13:58:01	BASE	15.13	92	17.90	92	-8.1	49	-17.0	6	0	1008.0	NA	0.0000		9999	0	0	0	0
2019/05/30 13:59:01	BASE	15.64	91	17.90	92	-8.1	49	-16.9	7	0	1008.0	NA	0.0000		9999	0	0	0	0
2019/05/30 14:00:01	BASE	15.57	89	17.90	92	-8.0	49	-16.9	7	0	1008.0	NA	0.0000		9999	0	0	0	0
2019/05/30 14:01:01	BASE	16.07	89	17.90	91	-8.0	49	-16.8	7	0	1008.0	NA	0.0000		9999	0	0	0	0
2019/05/30 14:02:01	BASE	15.62	90	17.90	91	-8.0	49	-16.8	7	0	1008.1	NA	0.0000		9999	0	0	0	0
2019/05/30 14:03:01	BASE	14.63	91	17.90	91	-7.9	49	-16.7	7	0	1008.2	NA	0.0000		9999	0	0	0	0
2019/05/30 14:04:01	BASE	14.39	91	17.90	91	-7.8	49	-16.6	7	0	1008.1	NA	0.0000		9999	0	0	0	0
2019/05/30 14:05:01	BASE	14.62	92	17.90	91	-7.8	49	-16.6	8	0	1008.2	NA	0.0000		9999	0	0	0	0
2019/05/30 14:06:01	BASE	14.83	94	17.90	91	-7.8	49	-16.6	8	0	1008.2	NA	0.0000		9999	0	0	0	0
2019/05/30 14:07:01	BASE	14.81	96	17.90	91	-7.8	49	-16.6	8	0	1008.2	NA	0.0000		9999	0	0	0	0
2019/05/30 14:08:01	BASE	15.80	94	17.95	92	-7.9	49	-16.6	8	0	1008.2	NA	0.0000		9999	0	0	0	0
2019/05/30 14:09:01	BASE	16.38	95	17.95	92	-7.9	49	-16.7	8	0	1008.2	NA	0.0000		9999	0	0	0	0
2019/05/30 14:10:01	BASE	15.77	96	17.95	92	-8.0	50	-16.6	8	0	1008.2	NA	0.0000		9999	0	0	0	0
2019/05/30 14:11:01	BASE	16.04	94	17.95	92	-8.0	50	-16.6	8	0	1008.1	NA	0.0000		9999	0	0	0	0
2019/05/30 14:12:01	BASE	15.35	92	17.95	92	-8.1	51	-16.5	9	0	1008.3	NA	0.0000		9999	0	0	0	0
2019/05/30 14:13:01	BASE	13.85	91	17.95	92	-8.0	51	-16.4	9	0	1008.4	NA	0.0000		9999	0	0	0	0
2019/05/30 14:14:01	BASE	14.03	93	17.95	92	-8.0	51	-16.4	9	0	1008.3	NA	0.0000		9999	0	0	0	0
2019/05/30 14:15:01	BASE	14.39	96	17.95	92	-7.9	50	-16.4	9	0	1008.4	NA	0.0000		9999	0	0	0	0
2019/05/30 14:16:01	BASE	14.23	99	17.95	92	-7.8	50	-16.5	9	0	1008.4	NA	0.0000		9999	0	0	0	0
2019/05/30 14:17:01	BASE	13.67	100	17.95	92	-7.8	50	-16.6	9	0	1008.4	NA	0.0000		9999	0	0	0	0
2019/05/30 14:18:01	BASE	13.65	95	17.54	96	-7.9	50	-16.6	9	0	1008.4	NA	0.0000		9999	0	0	0	0
2019/05/30 14:19:01	BASE	14.29	95	17.54	96	-7.9	50	-16.7	10	0	1008.4	NA	0.0000		9999	0	0	0	0
2019/05/30 14:20:01	BASE	13.73	98	17.54	96	-8.0	50	-16.7	10	0	1008.4	NA	0.0000		9999	0	0	0	0
2019/05/30 14:21:00	BASE	12.71	98	16.05	96	-8.1	50	-16.7	10	0	1008.4	NA	0.0000		9999	0	0	0	0
2019/05/30 14:22:01	BASE	12.76	98	16.05	96	-8.0	50	-16.6	10	0	1008.4	NA	0.0000		9999	0	0	0	0
2019/05/30 14:23:01	BASE	12.99	96	16.05	96	-8.0	50	-16.7	10	0	1008.4	NA	0.0000		9999	0	0	0	0
2019/05/30 14:24:01	BASE	12.19	97	16.05	96	-8.1	49	-16.8	10	0	1008.6	NA	0.0000		9999	0	0	0	0
2019/05/30 14:25:01	BASE	12.36	96	16.00	104	-8.1	50	-16.8	10	0	1008.6	NA	0.0000		9999	0	0	0	0
2019/05/30 14:26:01	BASE	13.64	93	15.69	98	-8.1	50	-16.8	11	0	1008.6	NA	0.0000		9999	0	0	0	0
2019/05/30 14:27:00	BASE	14.61	93	16.10	90	-8.1	50	-16.8	11	0	1008.5	NA	0.0000		9999	0	0	0	0
2019/05/30 14:28:01	BASE	15.30	94	16.51	93	-8.1	50	-16.8	11	0	1008.5	NA	0.0000		9999	0	0	0	0
2019/05/30 14:29:01	BASE	14.89	94	16.51	93	-8.1	50	-16.7	11	0	1008.6	NA	0.0000		9999	0	0	0	0
2019/05/30 14:30:01	BASE	13.67	92	16.51	93	-8.1	50	-16.6	11	0	1008.6	NA	0.0000		9999	0	0	0	0
2019/05/30 14:31:01	BASE	13.56	92	16.51	93	-8.1	50	-16.6	11	0	1008.6	NA	0.0000		9999	0	0	0	0
2019/05/30 14:32:01	BASE	14.67	91	16.51	93	-8.0	50	-16.6	11	0	1008.5	NA	0.0000		9999	0	0	0	0
2019/05/30 14:33:01	BASE	14.39	92	16.51	93	-8.0	50	-16.7	12	0	1008.6	NA	0.0000		9999	0	0	0	0
2019/05/30 14:34:01	BASE	13.34	95	16.51	93	-8.0	50	-16.7	12	0	1008.6	NA	0.0000		9999	0	0	0	0
2019/05/30 14:35:01	BASE	12.73	96	16.51	93	-7.9	49	-16.7	12	0	1008.6	NA	0.0000		9999	0	0	0	0
2019/05/30 14:36:01	BASE	12.57	91	16.51	93	-7.8	49	-16.6	12	0	1008.6	NA	0.0000		9999	0	0	0	0
2019/05/30 14:37:01	BASE	13.65	90	16.51	93	-7.7	49	-16.6	12	0	1008.6	NA	0.0000		9999	0	0	0	0
2019/05/30 14:38:01	BASE	14.18	95	16.36	98	-7.6	49	-16.6	12	0	1008.6	NA	0.0000		9999	0	0	0	0
2019/05/30 14:39:01	BASE	13.24	100	16.36	98	-7.6	48	-16.6	12	0	1008.7	NA	0.0000		9999	0	0	0	0
2019/05/30 14:40:01	BASE	12.91	96	16.36	98	-7.5	48	-16.6	12	0	1008.7	NA	0.0000		9999	0	0	0	0
2019/05/30 14:41:01	BASE	14.04	88	16.36	98	-7.5	48	-16.6	13	0	1008.6	NA	0.0000		9999	0	0	0	0
2019/05/30 14:42:01	BASE	14.73	88	17.23	100	-7.5	49	-16.5	13	0	1008.6	NA	0.0000		9999	0	0	0	0
2019/05/30 14:43:00	BASE	14.24	90	17.23	100	-7.6	49	-16.5	13	0	1008.7	NA	0.0000		9999	0	0	0	0
2019/05/30 14:44:01	BASE	13.24	88	17.23	100	-7.7	49	-16.5	13	0	1008.7	NA	0.0000		9999	0	0	0	0
2019/05/30 14:45:01	BASE	13.33	90	17.23	100	-7.7	50	-16.4	13	0	1008.6	NA	0.0000		9999	0	0	0	0
2019/05/30 14:46:01	BASE	14.26	88	17.23	100	-7.7	50	-16.3	13	0	1008.7	NA	0.0000		9999	0	0	0	0
2019/05/30 14:47:01	BASE	13.83	86	17.23	100	-7.7	51	-16.2	13	0	1008.7	NA	0.0000		9999	0	0	0	0
2019/05/30 14:48:01	BASE	12.84	92	17.23	100	-7.6	51	-16.1	13	0	1008.8	NA	0.0000		9999	0	0	0	0
2019/05/30 14:49:00	BASE	11.90	101	17.23	100	-7.5	50	-16.1	13	0	1008.8	NA	0.0000		9999	0	0	0	0
2019/05/30 14:50:01	BASE	11.95	105	17.23	100	-7.5	50	-16.2	14	0	1008.8	NA	0.0000		9999	0	0	0	0
2019/05/30 14:51:01	BASE	11.45	98	17.23	100	-7.4	50	-16.2	14	0	1008.9	NA	0.0000		9999	0	0	0	0
2019/05/30 14:52:01	BASE	12.75	94	17.03	96	-7.4	50	-16.2	14	0	1008.8	NA	0.0000		9999	0	0	0	0
2019/05/30 14:53:01	BASE	14.08	94	17.03	96	-7.3	50	-16.1	14	0	1008.8	NA	0.0000		9999	0	0	0	0
2019/05/30 14:54:01	BASE	13.04	94	17.03	96	-7.3	50	-16.1	14	0	1008.8	NA	0.0000		9999	0	0	0	0
2019/05/30 14:55:01	BASE	13.73	96	17.03	96	-7.3	49	-16.1	14	0	1008.8	NA	0.0000		9999	0	0	0	0
2019/05/30 14:56:01	BASE	14.58	96	17.03	96	-7.3	49	-16.1	14	0	1008.8	NA	0.0000		9999	0	0	0	0
2019/05/30 14:57:00	BASE	13.50	94	17.03	96	-7.3	49	-16.1	14	0	1008.9	NA	0.0000		9999	0	0	0	0
2019/05/30 14:58:01	BASE	11.66	92	17.03	96	-7.3	50	-16.0	14	0	1009.0	NA	0.0000		9999	0	0	0	0
2019/05/30 14:59:01	BASE	11.17	95	17.03	96	-7.3	50	-16.0	14	0	1009.0	NA	0.0000		9999	0	0	0	0
2019/05/30 15:00:02	BASE	11.35	97	17.03	96	-7.3	50	-15.9	14	0	1009.0	NA	0.0000		9999	0	0	0	0
2019/05/30 15:01:00	BASE	12.32	93	17.03	96	-7.2	50	-15.9	15	0	1009.0	NA	0.0000		9999	0	0	0	0
2019/05/30 15:02:01	BASE	14.48	89	17.90	83	-7.3	50	-15.9	15	0	1009.0	NA	0.0000		9999	0	0	0	0
2019/05/30 15:03:01	BASE	16.37	87	18.88	87	-7.3	50	-16.0	15	0	1009.0	NA	0.0000		9999	0	0	0	0
2019/05/30 15:04:01	BASE	17.34	88	19.03	93	-7.4	51	-15.9	15	0	1009.0	NA	0.0000		9999	0	0	0	0
2019/05/30 15:05:01	BASE	16.91	89	19.03	93	-7.5	51	-15.9	15	0	1009.1	NA	0.0000		9999	0	0	0	0
2019/05/30 15:06:01	BASE	15.16	92	19.03	93	-7.6	52	-15.9	15	0	1009.1	NA	0.0000		9999	0	0	0	0
2019/05/30 15:07:01	BASE	12.95	92	19.03	93	-7.7	52	-15.8	15	0	1009.2	NA	0.0000		9999	0	0	0	0
2019/05/30 15:08:01	BASE	12.32	94	19.03	93	-7.7	53	-15.7	15	0	1009.2	NA	0.0000		9999	0	0	0	0
2019/05/30 15:09:01	BASE	13.10	95	19.03	93	-7.7	54	-15.5	15	0	1009.2	NA	0.0000		9999	0	0	0	0
2019/05/30 15:10:01	BASE	13.39	92	19.03	93	-7.7	54	-15.4	15	0	1009.2	NA	0.0000		9999	0	0	0	0
2019/05/30 15:11:00	BASE	14.31	94	19.03	93	-7.7	54	-15.4	15	0	1009.3	NA	0.0000		9999	0	0	0	0
2019/05/30 15:12:01	BASE	15.46	96	19.03	93	-7.7	54	-15.3	15	0	1009.3	NA	0.0000		9999	0	0	0	0
2019/05/30 15:13:00	BASE	15.43	94	19.03	93	-7.6	54	-15.3	16	0	1009.4	NA	0.0000		9999	0	0	0	0
2019/05/30 15:14:01	BASE	15.76	92	18.78	90	-7.6	54	-15.4	16	0	1009.3	NA	0.0000		9999	0	0	0	0
2019/05/30 15:15:00	BASE	15.95	92	18.78	90	-7.6	54	-15.3	16	0	1009.4	NA	0.0000		9999	0	0	0	0
2019/05/30 15:16:01	BASE	15.18	92	18.78	90	-7.6	54	-15.3	16	0	1009.4	NA	0.0000		9999	0	0	0	0
2019/05/30 15:17:00	BASE	14.76	93	19.29	103	-7.5	54	-15.3	16	0	1009.4	NA	0.0000		9999	0	0	0	0
2019/05/30 15:18:01	BASE	14.89	92	19.29	103	-7.5	54	-15.2	16	0	1009.3	NA	0.0000		9999	0	0	0	0
2019/05/30 15:19:00	BASE	14.83	93	19.29	103	-7.4	54	-15.1	16	0	1009.4	NA	0.0000		9999	0	0	0	0
2019/05/30 15:20:00	BASE	13.94	96	19.29	103	-7.3	54	-15.1	16	0	1009.4	NA	0.0000		9999	0	0	0	0
2019/05/30 15:21:00	BASE	14.97	99	19.29	103	-7.3	54	-15.0	16	0	1009.4	NA	0.0000		9999	0	0	0	0
2019/05/30 15:22:01	BASE	17.00	100	19.29	103	-7.3	54	-15.0	16	0	1009.4	NA	0.0000		9999	0	0	0	0
2019/05/30 15:23:00	BASE	16.56	100	19.29	103	-7.2	54	-14.9	16	0	1009.5	NA	0.0000		9999	0	0	0	0
2019/05/30 15:24:01	BASE	15.69	97	19.29	103	-7.2	54	-15.0	16	0	1009.5	NA	0.0000		9999	0	0	0	0
2019/05/30 15:25:00	BASE	15.28	92	19.29	103	-7.2	54	-15.0	16	0	1009.5	NA	0.0000		9999	0	0	0	0
2019/05/30 15:26:01	BASE	14.92	92	19.29	103	-7.2	53	-15.1	16	0	1009.5	NA	0.0000		9999	0	0	0	0
2019/05/30 15:27:00	BASE	16.10	93	20.73	93	-7.2	53	-15.1	16	0	1009.4	NA	0.0000		9999	0	0	0	0
2019/05/30 15:28:01	BASE	18.76	94	22.53	93	-7.2	53	-15.2	16	0	1009.3	NA	0.0000		9999	0	0	0	0
2019/05/30 15:29:00	BASE	19.28	97	22.53	93	-7.2	52	-15.3	16	0	1009.5	NA	0.0000		9999	0	0	0	0
2019/05/30 15:30:01	BASE	16.94	100	22.53	93	-7.1	52	-15.4	17	0	1009.5	NA	0.0000		9999	0	0	0	0
2019/05/30 15:31:00	BASE	15.10	99	22.53	93	-7.0	51	-15.5	17	0	1009.6	NA	0.0000		9999	0	0	0	0
2019/05/30 15:32:01	BASE	14.62	102	22.53	93	-6.9	50	-15.5	17	0	1009.6	NA	0.0000		9999	0	0	0	0
2019/05/30 15:33:00	BASE	14.08	104	22.53	93	-6.8	50	-15.6	17	0	1009.6	NA	0.0000		9999	0	0	0	0
2019/05/30 15:34:01	BASE	14.07	96	22.53	93	-6.9	50	-15.6	17	0	1009.6	NA	0.0000		9999	0	0	0	0
2019/05/30 15:35:01	BASE	13.41	93	22.53	93	-7.0	50	-15.6	17	0	1009.7	NA	0.0000		9999	0	0	0	0
2019/05/30 15:36:01	BASE	11.36	98	22.53	93	-7.2	51	-15.6	17	0	1009.7	NA	0.0000		9999	0	0	0	0
2019/05/30 15:37:01	BASE	10.26	100	22.53	93	-7.4	52	-15.6	17	0	1009.7	NA	0.0000		9999	0	0	0	0
2019/05/30 15:38:01	BASE	11.13	97	19.86	96	-7.7	53	-15.6	17	0	1009.7	NA	0.0000		9999	0	0	0	0
2019/05/30 15:39:01	BASE	13.17	97	18.31	99	-7.8	54	-15.5	17	0	1009.7	NA	0.0000		9999	0	0	0	0
2019/05/30 15:40:00	BASE	13.51	98	16.77	100	-7.9	55	-15.4	17	0	1009.7	NA	0.0000		9999	0	0	0	0
2019/05/30 15:41:00	BASE	12.58	96	16.77	100	-7.7	55	-15.3	17	0	1009.7	NA	0.0000		9999	0	0	0	0
2019/05/30 15:42:01	BASE	12.12	101	16.77	100	-7.6	54	-15.4	17	0	1009.8	NA	0.0000		9999	0	0	0	0
2019/05/30 15:43:00	BASE	11.83	106	16.77	100	-7.3	52	-15.4	17	0	1009.8	NA	0.0000		9999	0	0	0	0
2019/05/30 15:44:00	BASE	12.50	104	15.84	102	-7.2	51	-15.6	17	0	1009.8	NA	0.0000		9999	0	0	0	0
2019/05/30 15:45:00	BASE	13.06	100	15.84	102	-7.0	50	-15.7	17	0	1009.8	NA	0.0000		9999	0	0	0	0
2019/05/30 15:46:01	BASE	13.70	100	15.84	102	-6.9	49	-15.9	17	0	1009.8	NA	0.0000		9999	0	0	0	0
2019/05/30 15:47:00	BASE	13.39	101	15.84	102	-6.8	48	-15.9	17	0	1010.0	NA	0.0000		9999	0	0	0	0
2019/05/30 15:48:00	BASE	12.51	102	15.84	102	-6.7	47	-16.1	17	0	1010.0	NA	0.0000		9999	0	0	0	0
2019/05/30 15:49:00	BASE	13.42	107	15.54	106	-6.8	47	-16.2	17	0	1010.0	NA	0.0000		9999	0	0	0	0
2019/05/30 15:50:00	BASE	13.73	110	15.54	106	-6.8	47	-16.1	18	0	1010.1	NA	0.0000		9999	0	0	0	0
2019/05/30 15:51:00	BASE	13.86	106	16.00	97	-6.8	48	-16.1	18	0	1010.0	NA	0.0000		9999	0	0	0	0
2019/05/30 15:52:01	BASE	15.15	102	16.98	101	-6.9	48	-16.0	18	0	1010.0	NA	0.0000		9999	0	0	0	0
2019/05/30 15:53:00	BASE	15.29	103	16.98	101	-6.9	49	-15.8	18	0	1010.1	NA	0.0000		9999	0	0	0	0
2019/05/30 15:54:01	BASE	14.10	110	16.98	101	-6.8	49	-15.7	18	0	1010.2	NA	0.0000		9999	0	0	0	0
2019/05/30 15:55:00	BASE	13.55	111	16.98	101	-6.9	49	-15.7	18	0	1010.2	NA	0.0000		9999	0	0	0	0
2019/05/30 15:56:00	BASE	14.25	106	16.98	101	-6.9	49	-15.7	18	0	1010.1	NA	0.0000		9999	0	0	0	0
2019/05/30 15:57:00	BASE	16.01	103	17.95	101	-6.9	49	-15.8	18	0	1010.2	NA	0.0000		9999	0	0	0	0
2019/05/30 15:58:01	BASE	16.17	103	18.01	101	-6.9	49	-15.9	18	0	1010.3	NA	0.0000		9999	0	0	0	0
2019/05/30 15:59:00	BASE	15.27	103	18.01	101	-6.9	48	-16.0	18	0	1010.3	NA	0.0000		9999	0	0	0	0
2019/05/30 16:00:00	BASE	14.80	103	18.01	101	-7.0	49	-16.1	18	0	1010.4	NA	0.0000		9999	0	0	0	0
2019/05/30 16:01:00	BASE	15.45	103	19.70	102	-7.1	49	-16.0	19	0	1010.3	NA	0.0000		9999	0	0	0	0
2019/05/30 16:02:01	BASE	16.02	104	19.70	102	-7.2	49	-16.0	20	0	1010.4	NA	0.0000		9999	0	0	0	0
2019/05/30 16:03:00	BASE	15.41	103	19.70	102	-7.1	50	-15.9	20	0	1010.4	NA	0.0000		9999	0	0	0	0
2019/05/30 16:04:00	BASE	14.39	102	19.70	102	-7.1	50	-15.8	21	0	1010.5	NA	0.0000		9999	0	0	0	0
2019/05/30 16:05:00	BASE	14.09	101	19.70	102	-7.0	49	-15.8	22	0	1010.5	NA	0.0000		9999	0	0	0	0
2019/05/30 16:06:00	BASE	15.55	98	19.91	100	-6.9	49	-15.9	23	0	1010.5	NA	0.0000		9999	0	0	0	0
2019/05/30 16:07:00	BASE	16.87	100	19.91	100	-6.9	48	-16.0	24	0	1010.4	NA	0.0000		9999	0	0	0	0
2019/05/30 16:08:00	BASE	17.76	103	20.06	115	-6.8	48	-16.1	24	0	1010.5	NA	0.0000		9999	0	0	0	0
2019/05/30 16:09:00	BASE	16.87	102	20.06	115	-6.7	47	-16.2	26	0	1010.6	NA	0.0000		9999	0	0	0	0
2019/05/30 16:10:01	BASE	15.40	96	20.06	115	-6.7	47	-16.2	27	0	1010.6	NA	0.0000		9999	0	0	0	0
2019/05/30 16:11:00	BASE	13.72	92	20.06	115	-6.7	46	-16.3	28	0	1010.7	NA	0.0000		9999	0	0	0	0
2019/05/30 16:12:00	BASE	11.95	90	20.06	115	-6.8	47	-16.3	28	0	1010.7	NA	0.0000		9999	0	0	0	0
2019/05/30 16:13:01	BASE	13.65	90	20.06	115	-6.9	47	-16.3	29	0	1010.7	NA	0.0000		9999	0	0	0	0
2019/05/30 16:14:00	BASE	15.62	95	20.06	115	-7.1	48	-16.3	30	0	1010.7	NA	0.0000		9999	0	0	0	0
2019/05/30 16:15:00	BASE	16.31	99	20.06	115	-7.2	48	-16.2	31	0	1010.6	NA	0.0000		9999	0	0	0	0
2019/05/30 16:16:00	BASE	17.36	99	20.06	115	-7.2	49	-16.1	32	0	1010.6	NA	0.0000		9999	0	0	0	0
2019/05/30 16:17:00	BASE	16.67	95	20.06	115	-7.0	49	-16.1	32	0	1010.6	NA	0.0000		9999	0	0	0	0
2019/05/30 16:18:01	BASE	15.01	92	19.55	100	-6.9	48	-16.0	33	0	1010.6	NA	0.0000		9999	0	0	0	0
2019/05/30 16:19:00	BASE	13.73	94	19.55	100	-6.8	48	-16.1	34	0	1010.6	NA	0.0000		9999	0	0	0	0
2019/05/30 16:20:00	BASE	11.88	98	19.55	100	-6.7	47	-16.1	35	0	1010.7	NA	0.0000		9999	0	0	0	0
2019/05/30 16:21:00	BASE	12.68	98	19.55	100	-6.8	47	-16.2	36	0	1010.7	NA	0.0000		9999	0	0	0	0
2019/05/30 16:22:01	BASE	15.87	98	19.55	100	-6.8	47	-16.2	36	0	1010.6	NA	0.0000		9999	0	0	0	0
2019/05/30 16:23:01	BASE	16.33	101	19.55	100	-6.9	47	-16.2	37	0	1010.7	NA	0.0000		9999	0	0	0	0
2019/05/30 16:24:00	BASE	14.88	101	19.55	100	-6.9	48	-16.1	38	0	1010.8	NA	0.0000		9999	0	0	0	0
2019/05/30 16:25:00	BASE	13.73	90	19.55	100	-6.9	48	-16.1	39	0	1010.8	NA	0.0000		9999	0	0	0	0
2019/05/30 16:26:01	BASE	12.70	87	18.78	102	-7.0	48	-16.1	39	0	1010.8	NA	0.0000		9999	0	0	0	0
2019/05/30 16:27:00	BASE	12.17	89	18.78	102	-7.2	49	-16.2	40	0	1010.8	NA	0.0000		9999	0	0	0	0
2019/05/30 16:28:00	BASE	12.23	92	18.78	102	-7.5	49	-16.3	40	0	1010.8	NA	0.0000		9999	0	0	0	0
2019/05/30 16:29:00	BASE	11.47	96	18.78	102	-7.7	50	-16.4	40	0	1010.9	NA	0.0000		9999	0	0	0	0
2019/05/30 16:30:00	BASE	10.86	96	18.78	102	-7.9	50	-16.5	41	0	1010.9	NA	0.0000		9999	0	0	0	0
2019/05/30 16:31:00	BASE	12.20	94	18.78	102	-7.9	51	-16.4	40	0	1010.8	NA	0.0000		9999	0	0	0	0
2019/05/30 16:32:01	BASE	13.98	90	17.18	79	-7.8	51	-16.2	41	0	1010.8	NA	0.0000		9999	0	0	0	0
2019/05/30 16:33:00	BASE	15.02	86	17.34	75	-7.8	51	-16.1	40	0	1010.8	NA	0.0000		9999	0	0	0	0
2019/05/30 16:34:01	BASE	14.05	87	17.34	75	-7.7	51	-16.2	40	0	1010.9	NA	0.0000		9999	0	0	0	0
2019/05/30 16:35:00	BASE	12.54	91	17.34	75	-7.7	50	-16.2	40	0	1010.9	NA	0.0000		9999	0	0	0	0
2019/05/30 16:36:00	BASE	12.60	88	17.34	75	-7.6	50	-16.3	40	0	1010.9	NA	0.0000		9999	0	0	0	0
2019/05/30 16:37:00	BASE	13.00	87	17.34	75	-7.6	49	-16.5	40	0	1010.9	NA	0.0000		9999	0	0	0	0
2019/05/30 16:38:01	BASE	13.06	89	17.34	75	-7.6	48	-16.7	40	0	1010.9	NA	0.0000		9999	0	0	0	0
2019/05/30 16:39:01	BASE	13.35	90	17.34	75	-7.6	48	-16.8	40	0	1011.0	NA	0.0000		9999	0	0	0	0
2019/05/30 16:40:00	BASE	14.32	92	17.34	75	-7.6	48	-16.9	40	0	1011.1	NA	0.0000		9999	0	0	0	0
2019/05/30 16:41:00	BASE	14.50	92	17.34	75	-7.7	48	-16.9	39	0	1011.1	NA	0.0000		9999	0	0	0	0
2019/05/30 16:42:01	BASE	13.22	90	17.34	75	-7.7	48	-16.9	39	0	1011.1	NA	0.0000		9999	0	0	0	0
2019/05/30 16:43:00	BASE	12.05	90	16.20	98	-7.7	48	-16.9	39	0	1011.2	NA	0.0000		9999	0	0	0	0
2019/05/30 16:44:01	BASE	11.55	93	16.20	98	-7.7	48	-16.9	39	0	1011.2	NA	0.0000		9999	0	0	0	0
2019/05/30 16:45:01	BASE	11.78	96	16.20	98	-7.7	48	-16.9	39	0	1011.1	NA	0.0000		9999	0	0	0	0
2019/05/30 16:46:01	BASE	11.95	96	16.20	98	-7.7	48	-16.8	39	0	1011.1	NA	0.0000		9999	0	0	0	0
2019/05/30 16:47:00	BASE	10.99	97	16.20	98	-7.7	48	-16.9	38	0	1011.2	NA	0.0000		9999	0	0	0	0
2019/05/30 16:48:01	BASE	10.73	97	16.20	98	-7.7	48	-16.9	38	0	1011.2	NA	0.0000		9999	0	0	0	0
2019/05/30 16:49:00	BASE	11.67	94	16.20	98	-7.6	47	-16.9	38	0	1011.2	NA	0.0000		9999	0	0	0	0
2019/05/30 16:50:00	BASE	11.81	94	15.33	93	-7.7	47	-17.0	38	0	1011.3	NA	0.0000		9999	0	0	0	0
2019/05/30 16:51:00	BASE	12.10	99	13.99	90	-8.0	48	-17.2	38	0	1011.3	NA	0.0000		9999	0	0	0	0
2019/05/30 16:52:01	BASE	12.73	106	14.25	109	-8.1	49	-17.1	37	0	1011.3	NA	0.0000		9999	0	0	0	0
2019/05/30 16:53:00	BASE	12.62	108	14.25	109	-8.2	49	-16.9	37	0	1011.3	NA	0.0000		9999	0	0	0	0
2019/05/30 16:54:01	BASE	12.30	106	14.25	109	-8.1	50	-16.8	37	0	1011.4	NA	0.0000		9999	0	0	0	0
2019/05/30 16:55:00	BASE	12.85	105	14.97	100	-7.9	50	-16.6	37	0	1011.3	NA	0.0000		9999	0	0	0	0
2019/05/30 16:56:01	BASE	14.50	104	16.31	103	-7.5	49	-16.5	37	0	1011.3	NA	0.0000		9999	0	0	0	0
2019/05/30 16:57:00	BASE	15.10	106	16.82	107	-7.2	48	-16.5	37	0	1011.4	NA	0.0000		9999	0	0	0	0
2019/05/30 16:58:01	BASE	14.68	109	16.82	107	-7.1	47	-16.5	36	0	1011.4	NA	0.0000		9999	0	0	0	0
2019/05/30 16:59:01	BASE	14.53	110	16.82	107	-7.0	46	-16.6	36	0	1011.4	NA	0.0000		9999	0	0	0	0
2019/05/30 17:00:00	BASE	14.48	113	16.82	107	-6.9	46	-16.6	36	0	1011.4	NA	0.0000		9999	0	0	0	0
2019/05/30 17:01:01	BASE	13.39	112	16.82	107	-6.9	46	-16.6	36	0	1011.4	NA	0.0000		9999	0	0	0	0
2019/05/30 17:02:00	BASE	12.99	108	16.82	107	-6.8	46	-16.7	35	0	1011.5	NA	0.0000		9999	0	0	0	0
2019/05/30 17:03:00	BASE	13.69	106	16.82	107	-6.9	46	-16.7	35	0	1011.5	NA	0.0000		9999	0	0	0	0
2019/05/30 17:04:01	BASE	12.33	98	16.82	107	-7.0	46	-16.6	35	0	1011.5	NA	0.0000		9999	0	0	0	0
2019/05/30 17:05:00	BASE	12.39	97	16.87	100	-7.1	47	-16.7	35	0	1011.5	NA	0.0000		9999	0	0	0	0
2019/05/30 17:06:01	BASE	15.06	102	17.29	96	-7.3	48	-16.5	34	0	1011.4	NA	0.0000		9999	0	0	0	0
2019/05/30 17:07:00	BASE	16.00	101	17.29	96	-7.3	49	-16.3	34	0	1011.5	NA	0.0000		9999	0	0	0	0
2019/05/30 17:08:01	BASE	14.78	101	17.29	96	-7.3	49	-16.2	34	0	1011.5	NA	0.0000		9999	0	0	0	0
2019/05/30 17:09:01	BASE	14.48	98	17.29	96	-7.2	49	-16.1	34	0	1011.5	NA	0.0000		9999	0	0	0	0
2019/05/30 17:10:00	BASE	14.04	94	17.29	96	-7.0	48	-16.0	33	0	1011.6	NA	0.0000		9999	0	0	0	0
2019/05/30 17:11:00	BASE	13.21	91	17.29	96	-6.8	48	-16.1	33	0	1011.6	NA	0.0000		9999	0	0	0	0
2019/05/30 17:12:00	BASE	13.47	91	17.29	96	-6.9	47	-16.3	33	0	1011.7	NA	0.0000		9999	0	0	0	0
2019/05/30 17:13:00	BASE	13.81	92	17.29	96	-7.2	48	-16.4	32	0	1011.7	NA	0.0000		9999	0	0	0	0
2019/05/30 17:14:01	BASE	13.89	93	17.29	96	-7.3	48	-16.5	32	0	1011.6	NA	0.0000		9999	0	0	0	0
2019/05/30 17:15:00	BASE	13.69	91	17.29	96	-7.5	48	-16.6	32	0	1011.6	NA	0.0000		9999	0	0	0	0
2019/05/30 17:16:01	BASE	13.13	88	17.08	102	-7.5	48	-16.7	31	0	1011.7	NA	0.0000		9999	0	0	0	0
2019/05/30 17:17:00	BASE	12.77	87	16.51	91	-7.5	48	-16.7	31	0	1011.6	NA	0.0000		9999	0	0	0	0
2019/05/30 17:18:00	BASE	13.81	88	16.51	91	-7.4	47	-16.8	30	0	1011.6	NA	0.0000		9999	0	0	0	0
2019/05/30 17:19:01	BASE	14.25	91	16.51	91	-7.4	47	-16.9	30	0	1011.7	NA	0.0000		9999	0	0	0	0
2019/05/30 17:20:00	BASE	14.06	93	16.51	91	-7.5	47	-17.0	30	0	1011.7	NA	0.0000		9999	0	0	0	0
2019/05/30 17:21:00	BASE	14.05	95	16.51	91	-7.6	47	-17.1	29	0	1011.7	NA	0.0000		9999	0	0	0	0
2019/05/30 17:22:00	BASE	14.03	97	16.62	94	-7.8	47	-17.1	29	0	1011.7	NA	0.0000		9999	0	0	0	0
2019/05/30 17:23:00	BASE	14.17	97	16.62	94	-8.0	48	-17.0	29	0	1011.7	NA	0.0000		9999	0	0	0	0
2019/05/30 17:24:00	BASE	13.17	95	16.62	94	-8.1	49	-16.9	28	0	1011.7	NA	0.0000		9999	0	0	0	0
2019/05/30 17:25:00	BASE	11.83	93	16.62	94	-8.2	50	-16.9	28	0	1011.7	NA	0.0000		9999	0	0	0	0
2019/05/30 17:26:01	BASE	12.42	87	16.62	94	-8.3	50	-16.8	27	0	1011.8	NA	0.0000		9999	0	0	0	0
2019/05/30 17:27:00	BASE	13.45	85	16.62	94	-8.1	50	-16.7	27	0	1011.7	NA	0.0000		9999	0	0	0	0
2019/05/30 17:28:00	BASE	13.68	89	16.62	94	-8.0	49	-16.8	27	0	1011.7	NA	0.0000		9999	0	0	0	0
2019/05/30 17:29:00	BASE	13.71	84	16.62	94	-7.8	48	-16.9	26	0	1011.7	NA	0.0000		9999	0	0	0	0
2019/05/30 17:30:00	BASE	13.76	79	16.62	94	-7.6	47	-17.0	26	0	1011.7	NA	0.0000		9999	0	0	0	0
2019/05/30 17:31:00	BASE	12.99	82	16.62	94	-7.4	46	-17.1	25	0	1011.8	NA	0.0000		9999	0	0	0	0
2019/05/30 17:32:01	BASE	11.83	83	16.51	98	-7.4	45	-17.2	25	0	1011.9	NA	0.0000		9999	0	0	0	0
2019/05/30 17:33:00	BASE	11.49	83	16.51	98	-7.2	45	-17.2	25	0	1011.9	NA	0.0000		9999	0	0	0	0
2019/05/30 17:34:00	BASE	11.16	84	16.51	98	-7.1	44	-17.2	24	0	1011.9	NA	0.0000		9999	0	0	0	0
2019/05/30 17:35:00	BASE	11.63	85	16.51	98	-6.9	44	-17.2	24	0	1011.9	NA	0.0000		9999	0	0	0	0
2019/05/30 17:36:00	BASE	11.79	86	16.51	98	-6.9	43	-17.3	24	0	1012.0	NA	0.0000		9999	0	0	0	0
2019/05/30 17:37:00	BASE	11.05	90	16.51	98	-6.8	43	-17.4	23	0	1012.0	NA	0.0000		9999	0	0	0	0
2019/05/30 17:38:00	BASE	11.19	92	15.43	84	-6.9	43	-17.4	23	0	1012.0	NA	0.0000		9999	0	0	0	0
2019/05/30 17:39:00	BASE	10.80	90	14.76	73	-7.0	43	-17.6	22	0	1012.0	NA	0.0000		9999	0	0	0	0
2019/05/30 17:40:00	BASE	10.98	96	13.63	97	-7.1	43	-17.7	22	0	1011.9	NA	0.0000		9999	0	0	0	0
2019/05/30 17:41:00	BASE	10.93	100	13.63	97	-7.1	43	-17.7	21	0	1012.0	NA	0.0000		9999	0	0	0	0
2019/05/30 17:42:00	BASE	9.96	98	13.63	97	-7.2	43	-17.7	21	0	1012.0	NA	0.0000		9999	0	0	0	0
2019/05/30 17:43:00	BASE	9.43	96	13.63	97	-7.3	43	-17.7	20	0	1012.0	NA	0.0000		9999	0	0	0	0
2019/05/30 17:44:00	BASE	8.39	91	13.63	97	-7.4	43	-17.8	19	0	1012.0	NA	0.0000		9999	0	0	0	0
2019/05/30 17:45:00	BASE	8.57	90	13.63	97	-7.6	44	-17.8	18	0	1012.0	NA	0.0000		9999	0	0	0	0
2019/05/30 17:46:00	BASE	9.15	89	13.63	97	-7.8	45	-17.7	18	0	1012.0	NA	0.0000		9999	0	0	0	0
2019/05/30 17:47:00	BASE	10.75	88	13.63	97	-7.8	46	-17.5	17	0	1012.0	NA	0.0000		9999	0	0	0	0
2019/05/30 17:48:00	BASE	11.38	92	13.63	97	-7.8	46	-17.5	16	0	1012.1	NA	0.0000		9999	0	0	0	0
2019/05/30 17:49:00	BASE	10.56	92	13.63	97	-7.7	46	-17.4	15	0	1012.0	NA	0.0000		9999	0	0	0	0
2019/05/30 17:50:00	BASE	11.26	91	13.27	88	-7.6	45	-17.4	15	0	1012.0	NA	0.0000		9999	0	0	0	0
2019/05/30 17:51:00	BASE	11.37	90	13.27	88	-7.4	45	-17.4	14	0	1012.0	NA	0.0000		9999	0	0	0	0
2019/05/30 17:52:00	BASE	12.22	89	14.97	89	-7.3	44	-17.5	13	0	1011.9	NA	0.0000		9999	0	0	0	0
2019/05/30 17:53:00	BASE	12.76	90	14.97	89	-7.1	43	-17.5	13	0	1012.0	NA	0.0000		9999	0	0	0	0
2019/05/30 17:54:00	BASE	11.42	94	14.97	89	-7.0	43	-17.5	12	0	1012.1	NA	0.0000		9999	0	0	0	0
2019/05/30 17:55:00	BASE	10.61	94	14.97	89	-6.9	43	-17.5	12	0	1012.1	NA	0.0000		9999	0	0	0	0
2019/05/30 17:56:00	BASE	10.16	96	14.97	89	-7.0	43	-17.6	11	0	1012.2	NA	0.0000		9999	0	0	0	0
2019/05/30 17:57:00	BASE	9.53	97	14.97	89	-7.2	43	-17.6	11	0	1012.2	NA	0.0000		9999	0	0	0	0
2019/05/30 17:58:00	BASE	10.03	95	14.97	89	-7.5	45	-17.5	10	0	1012.2	NA	0.0000		9999	0	0	0	0
2019/05/30 17:59:00	BASE	11.70	95	14.97	89	-7.7	46	-17.4	10	0	1012.2	NA	0.0000		9999	0	0	0	0
2019/05/30 18:00:00	BASE	12.40	96	14.97	89	-7.8	46	-17.4	10	0	1012.2	NA	0.0000		9999	0	0	0	0
2019/05/30 18:01:00	BASE	12.14	102	14.97	89	-7.7	46	-17.4	10	0	1012.2	NA	0.0000		9999	0	0	0	0
2019/05/30 18:02:00	BASE	12.27	101	13.79	97	-7.6	45	-17.4	9	0	1012.2	NA	0.0000		9999	0	0	0	0
2019/05/30 18:03:00	BASE	12.65	95	13.58	95	-7.5	44	-17.6	9	0	1012.2	NA	0.0000		9999	0	0	0	0
2019/05/30 18:04:00	BASE	13.31	96	14.71	99	-7.6	44	-17.7	9	0	1012.2	NA	0.0000		9999	0	0	0	0
2019/05/30 18:05:00	BASE	13.13	95	14.71	99	-7.7	44	-17.8	9	0	1012.2	NA	0.0000		9999	0	0	0	0
2019/05/30 18:06:00	BASE	11.89	96	14.71	99	-7.8	45	-17.7	8	0	1012.2	NA	0.0000		9999	0	0	0	0
2019/05/30 18:07:00	BASE	10.50	93	14.71	99	-7.8	45	-17.7	8	0	1012.2	NA	0.0000		9999	0	0	0	0
2019/05/30 18:08:00	BASE	9.49	89	14.71	99	-7.8	45	-17.6	8	0	1012.2	NA	0.0000		9999	0	0	0	0
2019/05/30 18:09:00	BASE	9.58	89	14.71	99	-7.9	46	-17.6	8	0	1012.2	NA	0.0000		9999	0	0	0	0
2019/05/30 18:10:00	BASE	9.53	90	14.71	99	-7.9	46	-17.5	8	0	1012.2	NA	0.0000		9999	0	0	0	0
2019/05/30 18:11:00	BASE	9.70	91	14.71	99	-8.0	46	-17.5	7	0	1012.3	NA	0.0000		9999	0	0	0	0
2019/05/30 18:12:01	BASE	10.07	89	14.71	99	-8.2	47	-17.6	7	0	1012.3	NA	0.0000		9999	0	0	0	0
2019/05/30 18:13:00	BASE	9.98	89	14.71	99	-8.3	47	-17.6	7	0	1012.3	NA	0.0000		9999	0	0	0	0
2019/05/30 18:14:00	BASE	10.46	89	13.48	96	-8.3	47	-17.5	7	0	1012.3	NA	0.0000		9999	0	0	0	0
2019/05/30 18:15:00	BASE	11.23	90	12.45	96	-8.2	47	-17.5	7	0	1012.4	NA	0.0000		9999	0	0	0	0
2019/05/30 18:16:00	BASE	11.28	93	11.94	96	-8.2	47	-17.6	7	0	1012.5	NA	0.0000		9999	0	0	0	0
2019/05/30 18:17:00	BASE	11.56	96	12.71	94	-8.2	46	-17.7	7	0	1012.5	NA	0.0000		9999	0	0	0	0
2019/05/30 18:18:00	BASE	11.54	99	12.71	94	-8.2	46	-17.7	7	0	1012.5	NA	0.0000		9999	0	0	0	0
2019/05/30 18:19:00	BASE	10.77	98	12.71	94	-8.3	46	-17.8	6	0	1012.6	NA	0.0000		9999	0	0	0	0
2019/05/30 18:20:00	BASE	10.29	94	12.71	94	-8.4	47	-17.7	6	0	1012.6	NA	0.0000		9999	0	0	0	0
2019/05/30 18:21:00	BASE	9.74	94	12.71	94	-8.3	47	-17.6	6	0	1012.6	NA	0.0000		9999	0	0	0	0
2019/05/30 18:22:00	BASE	9.09	92	12.71	94	-8.1	46	-17.6	6	0	1012.6	NA	0.0000		9999	0	0	0	0
2019/05/30 18:23:00	BASE	9.55	90	12.71	94	-7.9	45	-17.6	6	0	1012.6	NA	0.0000		9999	0	0	0	0
2019/05/30 18:24:00	BASE	10.34	88	12.71	94	-7.7	44	-17.8	6	0	1012.7	NA	0.0000		9999	0	0	0	0
2019/05/30 18:25:00	BASE	10.30	88	12.71	94	-7.7	44	-18.0	6	0	1012.7	NA	0.0000		9999	0	0	0	0
2019/05/30 18:26:00	BASE	10.52	91	12.71	94	-7.7	43	-18.1	5	0	1012.7	NA	0.0000		9999	0	0	0	0
2019/05/30 18:27:00	BASE	11.11	93	12.09	97	-7.8	43	-18.2	5	0	1012.7	NA	0.0000		9999	0	0	0	0
2019/05/30 18:28:00	BASE	11.04	95	11.78	95	-8.0	43	-18.3	5	0	1012.7	NA	0.0000		9999	0	0	0	0
2019/05/30 18:29:00	BASE	10.31	98	11.78	95	-8.0	44	-18.2	5	0	1012.7	NA	0.0000		9999	0	0	0	0
2019/05/30 18:30:00	BASE	9.96	103	11.78	95	-8.0	44	-18.2	5	0	1012.7	NA	0.0000		9999	0	0	0	0
2019/05/30 18:31:00	BASE	9.80	109	11.78	95	-8.0	44	-18.1	5	0	1012.7	NA	0.0000		9999	0	0	0	0
2019/05/30 18:32:00	BASE	10.11	114	11.78	117	-7.9	44	-18.0	5	0	1012.7	NA	0.0000		9999	0	0	0	0
2019/05/30 18:33:00	BASE	9.98	113	11.78	117	-7.7	44	-17.8	5	0	1012.8	NA	0.0000		9999	0	0	0	0
2019/05/30 18:34:00	BASE	9.81	109	11.78	117	-7.7	45	-17.7	4	0	1012.8	NA	0.0000		9999	0	0	0	0
2019/05/30 18:35:00	BASE	9.95	104	11.78	117	-7.6	45	-17.4	4	0	1012.8	NA	0.0000		9999	0	0	0	0
2019/05/30 18:36:00	BASE	9.81	100	11.78	117	-7.5	46	-17.1	4	0	1012.8	NA	0.0000		9999	0	0	0	0
2019/05/30 18:37:00	BASE	8.88	100	11.78	117	-7.3	46	-17.0	4	0	1012.7	NA	0.0000		9999	0	0	0	0
2019/05/30 18:38:00	BASE	7.80	100	11.78	117	-7.2	46	-17.0	4	0	1012.8	NA	0.0000		9999	0	0	0	0
2019/05/30 18:39:00	BASE	8.07	95	11.78	117	-7.2	45	-17.0	4	0	1012.8	NA	0.0000		9999	0	0	0	0
2019/05/30 18:40:00	BASE	8.45	99	11.78	117	-7.2	45	-17.2	4	0	1012.8	NA	0.0000		9999	0	0	0	0
2019/05/30 18:41:00	BASE	8.63	109	11.78	117	-7.3	45	-17.3	4	0	1012.8	NA	0.0000		9999	0	0	0	0
2019/05/30 18:42:00	BASE	10.12	109	12.96	108	-7.4	45	-17.4	3	0	1012.8	NA	0.0000		9999	0	0	0	0
2019/05/30 18:43:00	BASE	12.17	106	13.89	109	-7.5	45	-17.3	3	0	1012.8	NA	0.0000		9999	0	0	0	0
2019/05/30 18:44:00	BASE	12.60	104	13.94	106	-7.4	45	-17.2	3	0	1012.8	NA	0.0000		9999	0	0	0	0
2019/05/30 18:45:00	BASE	13.06	101	15.18	101	-7.3	45	-17.2	3	0	1012.7	NA	0.0000		9999	0	0	0	0
2019/05/30 18:46:00	BASE	13.69	100	15.33	101	-7.2	45	-17.1	3	0	1012.8	NA	0.0000		9999	0	0	0	0
2019/05/30 18:47:00	BASE	12.53	97	15.33	101	-6.9	44	-17.1	3	0	1012.9	NA	0.0000		9999	0	0	0	0
2019/05/30 18:48:00	BASE	10.68	95	15.33	101	-7.0	44	-17.3	3	0	1012.9	NA	0.0000		9999	0	0	0	0
2019/05/30 18:49:00	BASE	9.69	96	15.33	101	-7.2	44	-17.4	3	0	1012.9	NA	0.0000		9999	0	0	0	0
2019/05/30 18:50:00	BASE	9.90	93	15.33	101	-7.4	45	-17.4	3	0	1012.9	NA	0.0000		9999	0	0	0	0
2019/05/30 18:51:00	BASE	10.54	97	15.33	101	-7.6	46	-17.4	3	0	1012.9	NA	0.0000		9999	0	0	0	0
2019/05/30 18:52:00	BASE	10.49	100	15.33	101	-7.8	47	-17.2	3	0	1012.9	NA	0.0000		9999	0	0	0	0
2019/05/30 18:53:00	BASE	10.64	94	15.33	101	-7.8	47	-17.1	2	0	1012.9	NA	0.0000		9999	0	0	0	0
2019/05/30 18:54:00	BASE	10.49	91	15.33	101	-7.8	47	-17.1	2	0	1012.9	NA	0.0000		9999	0	0	0	0
2019/05/30 18:55:00	BASE	10.65	92	15.33	101	-7.7	47	-17.2	2	0	1013.0	NA	0.0000		9999	0	0	0	0
2019/05/30 18:56:00	BASE	10.38	98	12.81	105	-7.8	46	-17.4	2	0	1013.0	NA	0.0000		9999	0	0	0	0
2019/05/30 18:57:00	BASE	9.55	104	11.99	92	-7.9	46	-17.5	2	0	1013.0	NA	0.0000		9999	0	0	0	0
2019/05/30 18:58:00	BASE	9.78	107	11.99	92	-8.0	47	-17.4	2	0	1013.1	NA	0.0000		9999	0	0	0	0
2019/05/30 18:59:00	BASE	9.77	110	11.99	92	-7.8	47	-17.3	2	0	1013.2	NA	0.0000		9999	0	0	0	0
2019/05/30 19:00:00	BASE	9.98	108	11.99	92	-7.6	46	-17.2	2	0	1013.2	NA	0.0000		9999	0	0	0	0
2019/05/30 19:01:00	BASE	10.60	99	11.99	92	-7.4	46	-17.1	2	0	1013.2	NA	0.0000		9999	0	0	0	0
2019/05/30 19:02:00	BASE	11.34	96	12.66	95	-7.3	45	-17.3	2	0	1013.2	NA	0.0000		9999	0	0	0	0
2019/05/30 19:03:00	BASE	11.53	97	12.66	95	-7.3	44	-17.5	2	0	1013.2	NA	0.0000		9999	0	0	0	0
2019/05/30 19:04:00	BASE	11.45	98	12.76	94	-7.4	44	-17.7	2	0	1013.2	NA	0.0000		9999	0	0	0	0
2019/05/30 19:05:00	BASE	11.53	99	12.76	94	-7.6	44	-17.8	1	0	1013.3	NA	0.0000		9999	0	0	0	0
2019/05/30 19:06:00	BASE	10.78	101	12.76	94	-7.7	44	-17.9	1	0	1013.3	NA	0.0000		9999	0	0	0	0
2019/05/30 19:07:00	BASE	10.36	101	12.76	94	-7.7	44	-17.9	1	0	1013.3	NA	0.0000		9999	0	0	0	0
2019/05/30 19:08:00	BASE	10.36	102	12.76	94	-7.7	44	-17.9	1	0	1013.2	NA	0.0000		9999	0	0	0	0
2019/05/30 19:09:00	BASE	10.03	101	12.76	94	-7.7	44	-17.9	1	0	1013.3	NA	0.0000		9999	0	0	0	0
2019/05/30 19:10:00	BASE	10.22	97	12.76	94	-7.7	44	-17.9	1	0	1013.4	NA	0.0000		9999	0	0	0	0
2019/05/30 19:11:00	BASE	9.89	94	12.76	94	-7.6	43	-17.9	1	0	1013.4	NA	0.0000		9999	0	0	0	0
2019/05/30 19:12:00	BASE	10.01	94	12.76	94	-7.6	43	-18.0	1	0	1013.3	NA	0.0000		9999	0	0	0	0
2019/05/30 19:13:00	BASE	10.50	100	12.76	94	-7.5	43	-18.0	1	0	1013.4	NA	0.0000		9999	0	0	0	0
2019/05/30 19:14:00	BASE	10.32	101	12.55	101	-7.6	43	-18.0	1	0	1013.4	NA	0.0000		9999	0	0	0	0
2019/05/30 19:15:00	BASE	10.60	93	12.09	94	-7.6	43	-18.0	1	0	1013.4	NA	0.0000		9999	0	0	0	0
2019/05/30 19:16:00	BASE	11.00	88	12.09	94	-7.8	44	-18.1	1	0	1013.4	NA	0.0000		9999	0	0	0	0
2019/05/30 19:17:00	BASE	11.13	87	12.09	94	-8.0	45	-17.9	1	0	1013.4	NA	0.0000		9999	0	0	0	0
2019/05/30 19:18:00	BASE	10.93	84	12.09	94	-8.0	45	-17.8	1	0	1013.5	NA	0.0000		9999	0	0	0	0
2019/05/30 19:19:00	BASE	10.46	82	12.09	94	-8.1	46	-17.7	1	0	1013.6	NA	0.0000		9999	0	0	0	0
2019/05/30 19:20:00	BASE	9.98	84	12.09	94	-8.0	46	-17.6	1	0	1013.6	NA	0.0000		9999	0	0	0	0
2019/05/30 19:21:00	BASE	10.10	87	12.09	94	-7.9	46	-17.5	1	0	1013.6	NA	0.0000		9999	0	0	0	0
2019/05/30 19:22:00	BASE	10.58	89	11.78	90	-7.9	46	-17.6	1	0	1013.6	NA	0.0000		9999	0	0	0	0
2019/05/30 19:23:00	BASE	11.02	82	11.99	76	-8.0	46	-17.7	0	0	1013.6	NA	0.0000		9999	0	0	0	0
2019/05/30 19:24:00	BASE	10.88	79	11.99	76	-8.1	46	-17.6	0	0	1013.7	NA	0.0000		9999	0	0	0	0
2019/05/30 19:25:00	BASE	10.49	83	11.99	76	-8.1	47	-17.6	0	0	1013.7	NA	0.0000		9999	0	0	0	0
2019/05/30 19:26:00	BASE	10.53	82	11.99	76	-8.2	47	-17.5	0	0	1013.7	NA	0.0000		9999	0	0	0	0
2019/05/30 19:27:00	BASE	10.55	80	11.99	76	-8.1	47	-17.4	0	0	1013.7	NA	0.0000		9999	0	0	0	0
2019/05/30 19:28:00	BASE	10.59	79	11.99	76	-7.9	47	-17.3	0	0	1013.7	NA	0.0000		9999	0	0	0	0
2019/05/30 19:29:00	BASE	10.88	83	11.99	76	-7.7	46	-17.4	0	0	1013.7	NA	0.0000		9999	0	0	0	0
2019/05/30 19:30:00	BASE	11.01	85	11.99	76	-7.6	45	-17.4	0	0	1013.8	NA	0.0000		9999	0	0	0	0
2019/05/30 19:31:00	BASE	11.25	91	13.22	102	-7.4	44	-17.5	0	0	1013.8	NA	0.0000		9999	0	0	0	0
2019/05/30 19:32:00	BASE	11.56	97	13.22	102	-7.3	43	-17.6	0	0	1013.8	NA	0.0000		9999	0	0	0	0
2019/05/30 19:33:00	BASE	11.24	95	13.22	102	-7.3	43	-17.7	0	0	1013.8	NA	0.0000		9999	0	0	0	0
2019/05/30 19:34:00	BASE	10.80	92	13.22	102	-7.4	43	-17.9	0	0	1013.9	NA	0.0000		9999	0	0	0	0
2019/05/30 19:35:00	BASE	10.95	91	13.22	102	-7.6	43	-18.0	0	0	1013.9	NA	0.0000		9999	0	0	0	0
2019/05/30 19:36:00	BASE	11.50	88	13.22	102	-7.8	44	-18.0	0	0	1013.9	NA	0.0000		9999	0	0	0	0
2019/05/30 19:37:00	BASE	11.64	85	13.22	102	-8.0	44	-18.0	0	0	1013.9	NA	0.0000		9999	0	0	0	0
2019/05/30 19:38:00	BASE	11.40	82	13.22	102	-8.0	45	-18.0	0	0	1013.9	NA	0.0000		9999	0	0	0	0
2019/05/30 19:39:00	BASE	11.27	82	13.22	102	-8.0	45	-17.9	0	0	1013.9	NA	0.0000		9999	0	0	0	0
2019/05/30 19:40:00	BASE	10.42	86	13.22	102	-7.9	45	-17.9	0	0	1013.9	NA	0.0000		9999	0	0	0	0
2019/05/30 19:41:00	BASE	10.34	88	12.96	85	-7.9	44	-17.9	0	0	1014.0	NA	0.0000		9999	0	0	0	0
2019/05/30 19:42:00	BASE	10.77	87	12.96	85	-7.8	44	-17.9	0	0	1014.0	NA	0.0000		9999	0	0	0	0
2019/05/30 19:43:00	BASE	10.48	86	12.96	85	-7.7	44	-18.0	0	0	1014.0	NA	0.0000		9999	0	0	0	0
2019/05/30 19:44:00	BASE	10.96	84	12.96	85	-7.7	44	-18.0	0	0	1014.0	NA	0.0000		9999	0	0	0	0
2019/05/30 19:45:00	BASE	11.20	84	12.96	85	-7.6	43	-17.9	0	0	1014.0	NA	0.0000		9999	0	0	0	0
2019/05/30 19:46:00	BASE	10.80	85	12.60	86	-7.5	43	-17.9	0	0	1014.0	NA	0.0000		9999	0	0	0	0
2019/05/30 19:47:00	BASE	10.84	87	12.60	86	-7.4	43	-17.9	0	0	1014.0	NA	0.0000		9999	0	0	0	0
2019/05/30 19:48:00	BASE	10.20	91	12.60	86	-7.3	42	-17.9	0	0	1014.1	NA	0.0000		9999	0	0	0	0
2019/05/30 19:49:00	BASE	10.26	92	13.48	81	-7.2	42	-17.9	0	0	1014.1	NA	0.0000		9999	0	0	0	0
2019/05/30 19:50:00	BASE	11.55	86	13.48	81	-7.1	42	-18.0	0	0	1014.1	NA	0.0000		9999	0	0	0	0
2019/05/30 19:51:00	BASE	11.09	87	13.48	81	-7.0	41	-18.0	0	0	1014.1	NA	0.0000		9999	0	0	0	0
2019/05/30 19:52:00	BASE	8.62	95	13.48	81	-6.9	40	-18.1	0	0	1014.2	NA	0.0000		9999	0	0	0	0
2019/05/30 19:53:00	BASE	7.11	101	13.48	81	-6.7	39	-18.3	0	0	1014.2	NA	0.0000		9999	0	0	0	0
2019/05/30 19:54:00	BASE	7.74	98	13.48	81	-6.7	39	-18.4	0	0	1014.2	NA	0.0000		9999	0	0	0	0
2019/05/30 19:55:00	BASE	8.31	94	13.48	81	-6.7	39	-18.4	0	0	1014.2	NA	0.0000		9999	0	0	0	0
2019/05/30 19:56:00	BASE	9.36	101	13.48	81	-6.9	39	-18.5	0	0	1014.2	NA	0.0000		9999	0	0	0	0
2019/05/30 19:57:00	BASE	10.57	103	13.48	81	-7.3	41	-18.4	0	0	1014.2	NA	0.0000		9999	0	0	0	0
2019/05/30 19:58:00	BASE	10.44	99	13.48	81	-7.6	42	-18.2	0	0	1014.2	NA	0.0000		9999	0	0	0	0
2019/05/30 19:59:00	BASE	10.50	108	13.38	79	-7.7	43	-18.0	0	0	1014.2	NA	0.0000		9999	0	0	0	0
2019/05/30 20:00:00	BASE	11.12	115	12.19	109	-7.6	43	-18.0	0	0	1014.2	NA	0.0000		9999	0	0	0	0
2019/05/30 20:01:00	BASE	11.23	110	12.45	111	-7.4	42	-18.0	0	0	1014.2	NA	0.0000		9999	0	0	0	0
2019/05/30 20:02:00	BASE	11.01	107	12.45	111	-7.1	41	-18.1	0	0	1014.2	NA	0.0000		9999	0	0	0	0
2019/05/30 20:03:00	BASE	11.13	105	12.45	111	-6.8	40	-18.3	0	0	1014.2	NA	0.0000		9999	0	0	0	0
2019/05/30 20:04:00	BASE	11.27	101	12.45	111	-6.7	39	-18.5	0	0	1014.2	NA	0.0000		9999	0	0	0	0
2019/05/30 20:05:00	BASE	11.14	101	12.55	111	-6.8	39	-18.5	0	0	1014.3	NA	0.0000		9999	0	0	0	0
2019/05/30 20:06:00	BASE	10.01	109	12.55	111	-6.8	39	-18.5	0	0	1014.3	NA	0.0000		9999	0	0	0	0
2019/05/30 20:07:00	BASE	8.78	115	12.55	111	-6.6	38	-18.5	0	0	1014.4	NA	0.0000		9999	0	0	0	0
2019/05/30 20:08:00	BASE	8.47	119	12.55	111	-6.5	37	-18.7	0	0	1014.4	NA	0.0000		9999	0	0	0	0
2019/05/30 20:09:00	BASE	8.25	121	12.55	111	-6.3	36	-18.8	0	0	1014.4	NA	0.0000		9999	0	0	0	0
2019/05/30 20:10:00	BASE	8.76	118	12.55	111	-6.3	36	-19.0	0	0	1014.4	NA	0.0000		9999	0	0	0	0
2019/05/30 20:11:00	BASE	8.99	112	12.55	111	-6.5	37	-19.0	0	0	1014.4	NA	0.0000		9999	0	0	0	0
2019/05/30 20:12:00	BASE	9.01	103	12.55	111	-6.9	38	-18.8	0	0	1014.4	NA	0.0000		9999	0	0	0	0
2019/05/30 20:13:00	BASE	9.63	97	12.55	111	-7.0	40	-18.5	0	0	1014.4	NA	0.0000		9999	0	0	0	0
2019/05/30 20:14:00	BASE	10.29	98	13.38	103	-7.2	41	-18.3	0	0	1014.4	NA	0.0000		9999	0	0	0	0
2019/05/30 20:15:00	BASE	10.20	97	13.38	103	-7.2	41	-18.2	0	0	1014.5	NA	0.0000		9999	0	0	0	0
2019/05/30 20:16:00	BASE	9.51	98	13.38	103	-7.2	41	-18.1	0	0	1014.5	NA	0.0000		9999	0	0	0	0
2019/05/30 20:17:00	BASE	8.20	100	13.38	103	-7.2	41	-18.2	0	0	1014.6	NA	0.0000		9999	0	0	0	0
2019/05/30 20:18:00	BASE	8.33	98	13.38	103	-7.4	42	-18.2	0	0	1014.5	NA	0.0000		9999	0	0	0	0
2019/05/30 20:19:00	BASE	8.75	101	13.38	103	-7.3	42	-18.0	0	0	1014.6	NA	0.0000		9999	0	0	0	0
2019/05/30 20:20:00	BASE	7.42	97	13.38	103	-7.3	42	-18.1	0	0	1014.6	NA	0.0000		9999	0	0	0	0
2019/05/30 20:21:00	BASE	7.72	94	13.38	103	-7.2	41	-18.2	0	0	1014.6	NA	0.0000		9999	0	0	0	0
2019/05/30 20:22:00	BASE	8.67	95	13.38	103	-7.1	41	-18.2	0	0	1014.6	NA	0.0000		9999	0	0	0	0
2019/05/30 20:23:00	BASE	8.76	92	13.38	103	-6.9	40	-18.3	0	0	1014.7	NA	0.0000		9999	0	0	0	0
2019/05/30 20:24:00	BASE	8.22	94	11.42	99	-7.0	39	-18.6	0	0	1014.7	NA	0.0000		9999	0	0	0	0
2019/05/30 20:25:00	BASE	9.13	100	11.57	100	-7.1	40	-18.5	0	0	1014.7	NA	0.0000		9999	0	0	0	0
2019/05/30 20:26:00	BASE	10.42	104	11.68	105	-7.2	40	-18.5	0	0	1014.7	NA	0.0000		9999	0	0	0	0
2019/05/30 20:27:00	BASE	10.17	95	11.68	105	-7.3	40	-18.5	0	0	1014.7	NA	0.0000		9999	0	0	0	0
2019/05/30 20:28:00	BASE	9.61	84	11.68	105	-7.4	41	-18.4	0	0	1014.7	NA	0.0000		9999	0	0	0	0
2019/05/30 20:29:00	BASE	8.94	85	11.68	105	-7.5	42	-18.3	0	0	1014.8	NA	0.0000		9999	0	0	0	0
2019/05/30 20:30:00	BASE	9.66	90	12.14	92	-7.5	42	-18.3	0	0	1014.7	NA	0.0000		9999	0	0	0	0
2019/05/30 20:31:00	BASE	9.59	87	12.14	92	-7.5	42	-18.2	0	0	1014.8	NA	0.0000		9999	0	0	0	0
2019/05/30 20:32:00	BASE	8.18	79	12.14	92	-7.4	42	-18.2	0	0	1014.8	NA	0.0000		9999	0	0	0	0
2019/05/30 20:33:00	BASE	8.35	80	12.14	92	-7.4	42	-18.2	0	0	1014.8	NA	0.0000		9999	0	0	0	0
2019/05/30 20:34:00	BASE	7.55	82	12.14	92	-7.3	41	-18.2	0	0	1014.8	NA	0.0000		9999	0	0	0	0
2019/05/30 20:35:00	BASE	6.11	76	12.14	92	-7.2	41	-18.3	0	0	1014.8	NA	0.0000		9999	0	0	0	0
2019/05/30 20:36:00	BASE	6.01	71	12.14	92	-7.1	40	-18.3	0	0	1014.8	NA	0.0000		9999	0	0	0	0
2019/05/30 20:37:00	BASE	6.19	72	12.14	92	-6.9	40	-18.3	0	0	1014.8	NA	0.0000		9999	0	0	0	0
2019/05/30 20:38:00	BASE	5.94	75	12.14	92	-6.8	39	-18.3	0	0	1014.9	NA	0.0000		9999	0	0	0	0
2019/05/30 20:39:00	BASE	5.30	83	12.14	92	-6.6	39	-18.3	0	0	1015.0	NA	0.0000		9999	0	0	0	0
2019/05/30 20:40:00	BASE	5.27	83	10.55	78	-6.6	38	-18.5	0	0	1015.0	NA	0.0000		9999	0	0	0	0
2019/05/30 20:41:00	BASE	6.02	81	9.67	83	-6.7	38	-18.5	0	0	1015.0	NA	0.0000		9999	0	0	0	0
2019/05/30 20:42:00	BASE	6.32	84	9.31	75	-6.9	39	-18.6	0	0	1015.0	NA	0.0000		9999	0	0	0	0
2019/05/30 20:43:00	BASE	6.16	80	7.46	84	-7.0	39	-18.6	0	0	1015.0	NA	0.0000		9999	0	0	0	0
2019/05/30 20:44:00	BASE	5.79	74	7.36	82	-7.0	39	-18.6	0	0	1015.1	NA	0.0000		9999	0	0	0	0
2019/05/30 20:45:00	BASE	4.71	70	7.36	82	-6.9	39	-18.5	0	0	1015.1	NA	0.0000		9999	0	0	0	0
2019/05/30 20:46:00	BASE	3.64	71	7.25	73	-6.8	39	-18.6	0	0	1015.2	NA	0.0000		9999	0	0	0	0
2019/05/30 20:47:00	BASE	3.49	56	7.25	73	-6.6	38	-18.6	0	0	1015.2	NA	0.0000		9999	0	0	0	0
2019/05/30 20:48:00	BASE	4.31	23	7.25	73	-6.5	38	-18.5	0	0	1015.2	NA	0.0000		9999	0	0	0	0
2019/05/30 20:49:00	BASE	5.04	8	7.25	73	-6.6	39	-18.3	0	0	1015.2	NA	0.0000		9999	0	0	0	0
2019/05/30 20:50:00	BASE	4.80	17	7.20	62	-6.6	40	-17.9	0	0	1015.2	NA	0.0000		9999	0	0	0	0
2019/05/30 20:51:00	BASE	3.72	25	7.05	73	-6.7	42	-17.5	0	0	1015.3	NA	0.0000		9999	0	0	0	0
2019/05/30 20:52:00	BASE	2.61	34	7.05	73	-6.6	43	-17.2	0	0	1015.3	NA	0.0000		9999	0	0	0	0
2019/05/30 20:53:00	BASE	2.01	48	6.02	69	-6.6	43	-17.1	0	0	1015.3	NA	0.0000		9999	0	0	0	0
2019/05/30 20:54:00	BASE	1.08	58	5.86	14	-6.5	43	-17.1	0	0	1015.3	NA	0.0000		9999	0	0	0	0
2019/05/30 20:55:00	BASE	0.41	90	5.86	14	-6.4	42	-17.3	0	0	1015.3	NA	0.0000		9999	0	0	0	0
2019/05/30 20:56:00	BASE	0.77	127	5.86	14	-6.3	41	-17.5	0	0	1015.3	NA	0.0000		9999	0	0	0	0
2019/05/30 20:57:00	BASE	1.94	131	5.86	14	-6.3	40	-17.7	0	0	1015.3	NA	0.0000		9999	0	0	0	0
2019/05/30 20:58:00	BASE	2.81	133	5.86	14	-6.4	40	-17.9	0	0	1015.3	NA	0.0000		9999	0	0	0	0
2019/05/30 20:59:00	BASE	2.92	132	4.99	17	-6.5	40	-18.0	0	0	1015.3	NA	0.0000		9999	0	0	0	0
2019/05/30 21:00:00	BASE	3.40	124	4.84	116	-6.7	40	-18.1	0	0	1015.3	NA	0.0000		9999	0	0	0	0
2019/05/30 21:01:00	BASE	4.12	121	5.25	117	-6.9	41	-18.1	0	0	1015.3	NA	0.0000		9999	0	0	0	0
2019/05/30 21:02:00	BASE	4.61	106	5.92	99	-6.9	41	-17.9	0	0	1015.3	NA	0.0000		9999	0	0	0	0
2019/05/30 21:03:00	BASE	3.81	89	5.92	99	-6.7	40	-18.0	0	0	1015.3	NA	0.0000		9999	0	0	0	0
2019/05/30 21:04:00	BASE	2.54	88	5.92	99	-6.6	39	-18.2	0	0	1015.3	NA	0.0000		9999	0	0	0	0
2019/05/30 21:05:00	BASE	2.92	80	5.92	99	-6.5	39	-18.3	0	0	1015.3	NA	0.0000		9999	0	0	0	0
2019/05/30 21:06:00	BASE	4.06	57	5.92	99	-6.3	38	-18.4	0	0	1015.3	NA	0.0000		9999	0	0	0	0
2019/05/30 21:07:00	BASE	4.59	46	5.92	99	-6.2	37	-18.4	0	0	1015.4	NA	0.0000		9999	0	0	0	0
2019/05/30 21:08:00	BASE	4.24	50	5.92	99	-6.3	38	-18.5	0	0	1015.4	NA	0.0000		9999	0	0	0	0
2019/05/30 21:09:00	BASE	3.81	57	5.92	99	-6.3	38	-18.4	0	0	1015.4	NA	0.0000		9999	0	0	0	0
2019/05/30 21:10:00	BASE	3.99	53	5.92	99	-6.3	38	-18.3	0	0	1015.4	NA	0.0000		9999	0	0	0	0
2019/05/30 21:11:00	BASE	3.89	42	5.92	99	-6.3	38	-18.3	0	0	1015.4	NA	0.0000		9999	0	0	0	0
2019/05/30 21:12:00	BASE	3.91	26	5.45	48	-6.3	38	-18.3	0	0	1015.5	NA	0.0000		9999	0	0	0	0
2019/05/30 21:13:00	BASE	3.75	17	5.45	48	-6.4	39	-18.1	0	0	1015.5	NA	0.0000		9999	0	0	0	0
2019/05/30 21:14:00	BASE	2.91	12	5.45	48	-6.3	40	-17.8	0	0	1015.6	NA	0.0000		9999	0	0	0	0
2019/05/30 21:15:00	BASE	2.65	12	5.45	48	-6.2	40	-17.5	0	0	1015.6	NA	0.0000		9999	0	0	0	0
2019/05/30 21:16:00	BASE	2.84	25	5.45	48	-6.2	41	-17.3	0	0	1015.6	NA	0.0000		9999	0	0	0	0
2019/05/30 21:17:00	BASE	2.44	44	4.73	14	-6.2	42	-17.1	0	0	1015.6	NA	0.0000		9999	0	0	0	0
2019/05/30 21:18:00	BASE	2.29	66	4.73	14	-6.3	42	-17.2	0	0	1015.7	NA	0.0000		9999	0	0	0	0
2019/05/30 21:19:00	BASE	2.63	76	4.73	14	-6.5	42	-17.3	0	0	1015.7	NA	0.0000		9999	0	0	0	0
2019/05/30 21:20:00	BASE	2.86	69	4.73	14	-6.6	42	-17.5	0	0	1015.7	NA	0.0000		9999	0	0	0	0
2019/05/30 21:21:00	BASE	2.86	59	4.73	14	-6.6	42	-17.5	0	0	1015.7	NA	0.0000		9999	0	0	0	0
2019/05/30 21:22:00	BASE	2.44	49	3.86	17	-6.6	41	-17.7	0	0	1015.7	NA	0.0000		9999	0	0	0	0
2019/05/30 21:23:00	BASE	2.20	46	3.45	83	-6.5	40	-17.7	0	0	1015.7	NA	0.0000		9999	0	0	0	0
2019/05/30 21:24:00	BASE	2.62	51	3.45	56	-6.3	40	-17.8	0	0	1015.7	NA	0.0000		9999	0	0	0	0
2019/05/30 21:25:00	BASE	3.06	52	3.55	53	-6.3	39	-18.0	0	0	1015.7	NA	0.0000		9999	0	0	0	0
2019/05/30 21:26:00	BASE	2.63	51	3.55	53	-6.3	39	-18.1	0	0	1015.7	NA	0.0000		9999	0	0	0	0
2019/05/30 21:27:00	BASE	2.48	57	3.55	53	-6.4	38	-18.3	0	0	1015.7	NA	0.0000		9999	0	0	0	0
2019/05/30 21:28:00	BASE	2.86	68	3.76	73	-6.5	38	-18.4	0	0	1015.8	NA	0.0000		9999	0	0	0	0
2019/05/30 21:29:00	BASE	2.85	76	3.76	73	-6.5	38	-18.5	0	0	1015.8	NA	0.0000		9999	0	0	0	0
2019/05/30 21:30:00	BASE	2.57	80	3.76	73	-6.5	38	-18.6	0	0	1015.8	NA	0.0000		9999	0	0	0	0
2019/05/30 21:31:00	BASE	2.69	87	3.76	73	-6.6	37	-18.8	0	0	1015.8	NA	0.0000		9999	0	0	0	0
2019/05/30 21:32:00	BASE	2.89	95	3.76	73	-6.6	38	-18.7	0	0	1015.8	NA	0.0000		9999	0	0	0	0
2019/05/30 21:33:00	BASE	2.84	101	3.76	73	-6.6	38	-18.7	0	0	1015.8	NA	0.0000		9999	0	0	0	0
2019/05/30 21:34:00	BASE	3.41	102	4.27	99	-6.6	38	-18.7	0	0	1015.8	NA	0.0000		9999	0	0	0	0
2019/05/30 21:35:00	BASE	3.58	109	4.27	99	-6.6	37	-18.8	0	0	1015.8	NA	0.0000		9999	0	0	0	0
2019/05/30 21:36:00	BASE	3.36	118	4.27	99	-6.6	37	-19.0	0	0	1015.9	NA	0.0000		9999	0	0	0	0
2019/05/30 21:37:00	BASE	3.33	112	4.68	105	-6.7	36	-19.1	0	0	1015.9	NA	0.0000		9999	0	0	0	0
2019/05/30 21:38:00	BASE	3.21	95	4.68	105	-6.7	36	-19.2	0	0	1015.9	NA	0.0000		9999	0	0	0	0
2019/05/30 21:39:00	BASE	3.16	85	4.68	105	-6.8	37	-19.2	0	0	1015.9	NA	0.0000		9999	0	0	0	0
2019/05/30 21:40:00	BASE	2.82	80	4.68	105	-6.8	37	-19.0	0	0	1015.9	NA	0.0000		9999	0	0	0	0
2019/05/30 21:41:00	BASE	2.39	73	4.68	105	-6.6	37	-18.9	0	0	1015.9	NA	0.0000		9999	0	0	0	0
2019/05/30 21:42:00	BASE	2.70	76	4.68	105	-6.6	37	-18.8	0	0	1015.9	NA	0.0000		9999	0	0	0	0
2019/05/30 21:43:00	BASE	2.59	79	4.68	105	-6.5	37	-18.7	0	0	1015.9	NA	0.0000		9999	0	0	0	0
2019/05/30 21:44:00	BASE	3.23	73	5.45	76	-6.4	37	-18.6	0	0	1015.9	NA	0.0000		9999	0	0	0	0
2019/05/30 21:45:00	BASE	4.07	72	5.45	76	-6.4	38	-18.5	0	0	1015.9	NA	0.0000		9999	0	0	0	0
2019/05/30 21:46:00	BASE	4.59	76	6.48	74	-6.4	38	-18.3	0	0	1015.9	NA	0.0000		9999	0	0	0	0
2019/05/30 21:47:00	BASE	5.60	76	6.48	74	-6.5	39	-18.2	0	0	1015.9	NA	0.0000		9999	0	0	0	0
2019/05/30 21:48:00	BASE	4.89	71	6.48	74	-6.5	40	-18.0	0	0	1015.9	NA	0.0000		9999	0	0	0	0
2019/05/30 21:49:00	BASE	3.75	80	6.48	74	-6.4	40	-17.8	0	0	1015.9	NA	0.0000		9999	0	0	0	0
2019/05/30 21:50:00	BASE	3.36	85	6.48	74	-6.5	40	-17.9	0	0	1015.9	NA	0.0000		9999	0	0	0	0
2019/05/30 21:51:00	BASE	3.15	80	6.48	74	-6.5	40	-17.9	0	0	1015.9	NA	0.0000		9999	0	0	0	0
2019/05/30 21:52:00	BASE	3.35	74	6.48	74	-6.5	40	-17.9	0	0	1015.9	NA	0.0000		9999	0	0	0	0
2019/05/30 21:53:00	BASE	3.66	68	6.48	74	-6.5	40	-18.0	0	0	1015.9	NA	0.0000		9999	0	0	0	0
2019/05/30 21:54:00	BASE	3.37	65	6.48	74	-6.5	40	-18.0	0	0	1016.0	NA	0.0000		9999	0	0	0	0
2019/05/30 21:55:00	BASE	3.37	64	6.48	74	-6.5	40	-17.9	0	0	1016.0	NA	0.0000		9999	0	0	0	0
2019/05/30 21:56:00	BASE	3.85	66	6.33	69	-6.4	39	-18.0	0	0	1016.0	NA	0.0000		9999	0	0	0	0
2019/05/30 21:57:00	BASE	4.05	65	5.04	79	-6.3	38	-18.2	0	0	1016.1	NA	0.0000		9999	0	0	0	0
2019/05/30 21:58:00	BASE	4.23	67	5.04	79	-6.3	38	-18.4	0	0	1016.1	NA	0.0000		9999	0	0	0	0
2019/05/30 21:59:00	BASE	4.74	74	6.58	83	-6.3	37	-18.6	0	0	1016.1	NA	0.0000		9999	0	0	0	0
2019/05/30 22:00:00	BASE	4.46	72	6.58	83	-6.5	37	-18.9	0	0	1016.1	NA	0.0000		9999	0	0	0	0
2019/05/30 22:01:00	BASE	3.92	60	6.58	83	-6.6	37	-18.9	0	0	1016.1	NA	0.0000		9999	0	0	0	0
2019/05/30 22:02:00	BASE	3.82	48	6.58	83	-6.6	37	-18.8	0	0	1016.1	NA	0.0000		9999	0	0	0	0
2019/05/30 22:03:00	BASE	3.60	41	6.58	83	-6.6	38	-18.7	0	0	1016.1	NA	0.0000		9999	0	0	0	0
2019/05/30 22:04:00	BASE	3.14	37	6.58	83	-6.5	38	-18.6	0	0	1016.1	NA	0.0000		9999	0	0	0	0
2019/05/30 22:05:00	BASE	2.42	29	6.58	83	-6.4	38	-18.4	0	0	1016.1	NA	0.0000		9999	0	0	0	0
2019/05/30 22:06:00	BASE	1.86	36	6.58	83	-6.5	38	-18.3	0	0	1016.1	NA	0.0000		9999	0	0	0	0
2019/05/30 22:07:00	BASE	1.05	39	6.58	83	-6.4	38	-18.3	0	0	1016.1	NA	0.0000		9999	0	0	0	0
2019/05/30 22:08:00	BASE	0.26	31	6.58	83	-6.4	38	-18.3	0	0	1016.1	NA	0.0000		9999	0	0	0	0
2019/05/30 22:09:00	BASE	0.00	33	5.25	75	-6.4	38	-18.4	0	0	1016.1	NA	0.0000		9999	0	0	0	0
2019/05/30 22:10:00	BASE	0.00	37	4.68	57	-6.3	38	-18.4	0	0	1016.1	NA	0.0000		9999	0	0	0	0
2019/05/30 22:11:00	BASE	0.00	73	4.22	43	-6.1	37	-18.4	0	0	1016.2	NA	0.0000		9999	0	0	0	0
2019/05/30 22:12:00	BASE	0.20	114	4.01	43	-6.0	37	-18.5	0	0	1016.3	NA	0.0000		9999	0	0	0	0
2019/05/30 22:13:00	BASE	1.01	123	3.34	32	-6.0	36	-18.6	0	0	1016.3	NA	0.0000		9999	0	0	0	0
2019/05/30 22:14:00	BASE	1.85	130	2.42	133	-6.0	36	-18.8	0	0	1016.3	NA	0.0000		9999	0	0	0	0
2019/05/30 22:15:00	BASE	1.73	135	2.42	133	-6.0	36	-18.9	0	0	1016.3	NA	0.0000		9999	0	0	0	0
2019/05/30 22:16:00	BASE	1.39	149	2.42	133	-6.2	35	-19.1	0	0	1016.3	NA	0.0000		9999	0	0	0	0
2019/05/30 22:17:00	BASE	0.69	161	2.42	133	-6.4	36	-19.1	0	0	1016.3	NA	0.0000		9999	0	0	0	0
2019/05/30 22:18:00	BASE	0.35	163	2.42	133	-6.4	36	-19.1	0	0	1016.3	NA	0.0000		9999	0	0	0	0
2019/05/30 22:19:00	BASE	0.40	181	2.42	133	-6.3	36	-19.1	0	0	1016.3	NA	0.0000		9999	0	0	0	0
2019/05/30 22:20:00	BASE	0.09	214	2.42	133	-6.3	35	-19.2	0	0	1016.3	NA	0.0000		9999	0	0	0	0
2019/05/30 22:21:00	BASE	0.05	245	2.42	133	-6.1	35	-19.2	0	0	1016.3	NA	0.0000		9999	0	0	0	0
2019/05/30 22:22:00	BASE	0.37	298	2.42	133	-6.0	34	-19.2	0	0	1016.4	NA	0.0000		9999	0	0	0	0
2019/05/30 22:23:00	BASE	2.24	353	5.86	17	-6.0	34	-19.3	0	0	1016.4	NA	0.0000		9999	0	0	0	0
2019/05/30 22:24:00	BASE	5.22	19	8.59	30	-6.1	35	-19.0	0	0	1016.4	NA	0.0000		9999	0	0	0	0
2019/05/30 22:25:00	BASE	7.06	27	8.59	29	-6.3	37	-18.6	0	0	1016.4	NA	0.0000		9999	0	0	0	0
2019/05/30 22:26:00	BASE	8.00	30	9.88	40	-6.6	39	-18.3	0	0	1016.4	NA	0.0000		9999	0	0	0	0
2019/05/30 22:27:00	BASE	8.49	34	10.24	38	-7.0	41	-18.0	0	0	1016.4	NA	0.0000		9999	0	0	0	0
2019/05/30 22:28:00	BASE	8.47	34	10.91	48	-7.4	43	-17.9	0	0	1016.4	NA	0.0000		9999	0	0	0	0
2019/05/30 22:29:00	BASE	7.64	32	10.91	48	-7.6	44	-17.9	0	0	1016.5	NA	0.0000		9999	0	0	0	0
2019/05/30 22:30:00	BASE	7.50	33	10.91	48	-7.7	43	-18.1	0	0	1016.5	NA	0.0000		9999	0	0	0	0
2019/05/30 22:31:00	BASE	7.95	36	10.91	48	-7.8	43	-18.3	0	0	1016.5	NA	0.0000		9999	0	0	0	0
2019/05/30 22:32:00	BASE	7.19	36	10.91	48	-7.9	43	-18.3	0	0	1016.5	NA	0.0000		9999	0	0	0	0
2019/05/30 22:33:00	BASE	6.36	33	10.91	48	-7.9	44	-18.1	0	0	1016.5	NA	0.0000		9999	0	0	0	0
2019/05/30 22:34:00	BASE	6.44	37	10.91	48	-7.9	45	-17.9	0	0	1016.5	NA	0.0000		9999	0	0	0	0
2019/05/30 22:35:00	BASE	7.20	43	10.91	48	-8.0	46	-17.7	0	0	1016.6	NA	0.0000		9999	0	0	0	0
2019/05/30 22:36:00	BASE	7.15	42	10.91	48	-8.0	46	-17.5	0	0	1016.6	NA	0.0000		9999	0	0	0	0
2019/05/30 22:37:00	BASE	6.08	50	10.91	48	-8.0	46	-17.5	0	0	1016.6	NA	0.0000		9999	0	0	0	0
2019/05/30 22:38:00	BASE	5.21	60	9.36	34	-7.9	46	-17.5	0	0	1016.6	NA	0.0000		9999	0	0	0	0
2019/05/30 22:39:00	BASE	4.51	66	9.36	34	-7.9	46	-17.6	0	0	1016.7	NA	0.0000		9999	0	0	0	0
2019/05/30 22:40:00	BASE	3.71	69	8.33	45	-7.8	46	-17.5	0	0	1016.7	NA	0.0000		9999	0	0	0	0
2019/05/30 22:41:00	BASE	3.09	73	8.33	45	-7.7	46	-17.5	0	0	1016.7	NA	0.0000		9999	0	0	0	0
2019/05/30 22:42:00	BASE	3.17	76	8.33	45	-7.7	46	-17.3	0	0	1016.7	NA	0.0000		9999	0	0	0	0
2019/05/30 22:43:00	BASE	3.32	72	8.33	45	-7.6	46	-17.2	0	0	1016.7	NA	0.0000		9999	0	0	0	0
2019/05/30 22:44:00	BASE	3.24	64	8.33	45	-7.6	46	-17.1	0	0	1016.7	NA	0.0000		9999	0	0	0	0
2019/05/30 22:45:00	BASE	3.64	52	8.33	45	-7.5	46	-17.1	0	0	1016.7	NA	0.0000		9999	0	0	0	0
2019/05/30 22:46:00	BASE	3.55	49	6.69	64	-7.4	46	-17.0	0	0	1016.7	NA	0.0000		9999	0	0	0	0
2019/05/30 22:47:00	BASE	3.70	43	6.38	66	-7.3	46	-16.9	0	0	1016.7	NA	0.0000		9999	0	0	0	0
2019/05/30 22:48:00	BASE	4.12	27	4.89	27	-7.2	46	-16.8	0	0	1016.7	NA	0.0000		9999	0	0	0	0
2019/05/30 22:49:00	BASE	4.27	26	5.14	33	-7.2	47	-16.6	0	0	1016.7	NA	0.0000		9999	0	0	0	0
2019/05/30 22:50:00	BASE	4.64	33	6.43	37	-7.1	47	-16.5	0	0	1016.7	NA	0.0000		9999	0	0	0	0
2019/05/30 22:51:00	BASE	5.09	37	6.43	37	-7.1	47	-16.5	0	0	1016.7	NA	0.0000		9999	0	0	0	0
2019/05/30 22:52:00	BASE	4.90	36	6.43	37	-7.1	47	-16.5	0	0	1016.8	NA	0.0000		9999	0	0	0	0
2019/05/30 22:53:00	BASE	4.41	37	6.43	37	-7.1	47	-16.4	0	0	1016.9	NA	0.0000		9999	0	0	0	0
2019/05/30 22:54:00	BASE	4.25	37	6.43	37	-7.1	47	-16.4	0	0	1016.9	NA	0.0000		9999	0	0	0	0
2019/05/30 22:55:00	BASE	4.77	39	6.43	37	-7.1	48	-16.3	0	0	1016.9	NA	0.0000		9999	0	0	0	0
2019/05/30 22:56:00	BASE	5.38	41	6.43	37	-7.1	48	-16.2	0	0	1016.9	NA	0.0000		9999	0	0	0	0
2019/05/30 22:57:00	BASE	5.06	43	6.43	37	-7.1	49	-16.0	0	0	1017.0	NA	0.0000		9999	0	0	0	0
2019/05/30 22:58:00	BASE	5.06	49	6.43	37	-7.1	49	-16.0	0	0	1017.0	NA	0.0000		9999	0	0	0	0
2019/05/30 22:59:00	BASE	4.91	59	6.43	37	-7.2	50	-15.9	0	0	1017.1	NA	0.0000		9999	0	0	0	0
2019/05/30 23:00:00	BASE	4.35	77	6.28	50	-7.2	50	-16.0	0	0	1017.1	NA	0.0000		9999	0	0	0	0
2019/05/30 23:01:00	BASE	3.87	85	6.28	50	-7.2	49	-16.0	0	0	1017.2	NA	0.0000		9999	0	0	0	0
2019/05/30 23:02:00	BASE	3.38	75	6.28	50	-7.1	49	-16.1	0	0	1017.2	NA	0.0000		9999	0	0	0	0
2019/05/30 23:03:00	BASE	3.45	62	6.28	50	-7.0	48	-16.1	0	0	1017.2	NA	0.0000		9999	0	0	0	0
2019/05/30 23:04:00	BASE	3.57	47	6.28	50	-7.0	48	-16.3	0	0	1017.2	NA	0.0000		9999	0	0	0	0
2019/05/30 23:05:00	BASE	3.86	37	5.97	28	-6.9	47	-16.3	0	0	1017.2	NA	0.0000		9999	0	0	0	0
2019/05/30 23:06:00	BASE	3.81	38	5.81	59	-6.9	47	-16.3	0	0	1017.2	NA	0.0000		9999	0	0	0	0
2019/05/30 23:07:00	BASE	3.53	47	5.81	59	-7.0	47	-16.4	0	0	1017.2	NA	0.0000		9999	0	0	0	0
2019/05/30 23:08:00	BASE	3.88	54	5.04	73	-7.0	47	-16.4	0	0	1017.2	NA	0.0000		9999	0	0	0	0
2019/05/30 23:09:00	BASE	4.55	54	5.35	49	-7.1	48	-16.3	0	0	1017.2	NA	0.0000		9999	0	0	0	0
2019/05/30 23:10:00	BASE	4.86	50	5.35	49	-7.2	48	-16.2	0	0	1017.2	NA	0.0000		9999	0	0	0	0
2019/05/30 23:11:00	BASE	4.61	48	5.35	49	-7.2	49	-16.0	0	0	1017.2	NA	0.0000		9999	0	0	0	0
2019/05/30 23:12:00	BASE	4.24	51	5.35	49	-7.2	50	-15.8	0	0	1017.2	NA	0.0000		9999	0	0	0	0
2019/05/30 23:13:00	BASE	3.69	53	5.35	49	-7.1	51	-15.7	0	0	1017.2	NA	0.0000		9999	0	0	0	0
2019/05/30 23:14:00	BASE	3.38	53	5.35	49	-7.1	51	-15.6	0	0	1017.2	NA	0.0000		9999	0	0	0	0
2019/05/30 23:15:00	BASE	3.29	49	5.35	49	-7.0	50	-15.7	0	0	1017.2	NA	0.0000		9999	0	0	0	0
2019/05/30 23:16:00	BASE	3.17	50	5.35	49	-6.9	49	-15.8	0	0	1017.2	NA	0.0000		9999	0	0	0	0
2019/05/30 23:17:00	BASE	3.38	57	5.35	49	-6.8	49	-15.9	0	0	1017.2	NA	0.0000		9999	0	0	0	0
2019/05/30 23:18:00	BASE	3.89	55	5.35	49	-6.8	48	-15.9	0	0	1017.3	NA	0.0000		9999	0	0	0	0
2019/05/30 23:19:00	BASE	4.20	52	4.99	49	-6.8	49	-15.9	0	0	1017.3	NA	0.0000		9999	0	0	0	0
2019/05/30 23:20:00	BASE	3.97	49	4.94	60	-6.9	49	-15.8	0	0	1017.3	NA	0.0000		9999	0	0	0	0
2019/05/30 23:21:00	BASE	3.67	42	4.94	60	-6.9	50	-15.7	0	0	1017.3	NA	0.0000		9999	0	0	0	0
2019/05/30 23:22:00	BASE	3.86	39	4.94	60	-6.9	50	-15.6	0	0	1017.3	NA	0.0000		9999	0	0	0	0
2019/05/30 23:23:00	BASE	3.90	37	4.94	60	-6.9	50	-15.5	0	0	1017.3	NA	0.0000		9999	0	0	0	0
2019/05/30 23:24:00	BASE	4.05	42	4.99	41	-6.8	50	-15.5	0	0	1017.3	NA	0.0000		9999	0	0	0	0
2019/05/30 23:25:00	BASE	4.29	46	4.99	41	-6.8	50	-15.5	0	0	1017.3	NA	0.0000		9999	0	0	0	0
2019/05/30 23:26:00	BASE	4.36	46	4.99	49	-6.8	50	-15.5	0	0	1017.3	NA	0.0000		9999	0	0	0	0
2019/05/30 23:27:00	BASE	4.37	47	4.99	49	-6.7	50	-15.4	0	0	1017.3	NA	0.0000		9999	0	0	0	0
2019/05/30 23:28:00	BASE	4.31	51	4.99	49	-6.8	50	-15.4	0	0	1017.3	NA	0.0000		9999	0	0	0	0
2019/05/30 23:29:00	BASE	4.67	51	5.45	52	-6.8	51	-15.3	0	0	1017.3	NA	0.0000		9999	0	0	0	0
2019/05/30 23:30:00	BASE	4.81	38	5.45	52	-6.7	51	-15.3	0	0	1017.3	NA	0.0000		9999	0	0	0	0
2019/05/30 23:31:00	BASE	4.48	28	5.50	26	-6.7	51	-15.1	0	0	1017.4	NA	0.0000		9999	0	0	0	0
2019/05/30 23:32:00	BASE	4.69	22	5.76	23	-6.8	52	-15.1	0	0	1017.5	NA	0.0000		9999	0	0	0	0
2019/05/30 23:33:00	BASE	5.57	20	6.48	20	-6.9	53	-15.0	0	0	1017.5	NA	0.0000		9999	0	0	0	0
2019/05/30 23:34:00	BASE	5.98	21	6.48	20	-6.9	53	-14.8	0	0	1017.5	NA	0.0000		9999	0	0	0	0
2019/05/30 23:35:00	BASE	6.05	17	6.74	15	-6.9	54	-14.7	0	0	1017.5	NA	0.0000		9999	0	0	0	0
2019/05/30 23:36:00	BASE	6.34	15	6.94	8	-6.9	54	-14.7	0	0	1017.5	NA	0.0000		9999	0	0	0	0
2019/05/30 23:37:00	BASE	6.14	16	6.94	8	-6.8	53	-14.7	0	0	1017.5	NA	0.0000		9999	0	0	0	0
2019/05/30 23:38:00	BASE	5.72	20	6.94	8	-6.7	52	-14.8	0	0	1017.6	NA	0.0000		9999	0	0	0	0
2019/05/30 23:39:00	BASE	5.29	18	6.94	8	-6.6	52	-14.9	0	0	1017.5	NA	0.0000		9999	0	0	0	0
2019/05/30 23:40:00	BASE	5.03	12	6.94	8	-6.5	51	-15.1	0	0	1017.6	NA	0.0000		9999	0	0	0	0
2019/05/30 23:41:00	BASE	5.06	12	6.94	8	-6.4	50	-15.2	0	0	1017.6	NA	0.0000		9999	0	0	0	0
2019/05/30 23:42:00	BASE	5.18	13	6.94	8	-6.4	49	-15.3	0	0	1017.6	NA	0.0000		9999	0	0	0	0
2019/05/30 23:43:00	BASE	5.31	13	6.94	8	-6.3	49	-15.3	0	0	1017.6	NA	0.0000		9999	0	0	0	0
2019/05/30 23:44:00	BASE	5.19	14	6.94	8	-6.2	49	-15.2	0	0	1017.6	NA	0.0000		9999	0	0	0	0
2019/05/30 23:45:00	BASE	5.35	15	6.94	8	-6.2	49	-15.2	0	0	1017.6	NA	0.0000		9999	0	0	0	0
2019/05/30 23:46:00	BASE	5.55	13	6.48	7	-6.3	49	-15.2	0	0	1017.6	NA	0.0000		9999	0	0	0	0
2019/05/30 23:47:00	BASE	5.57	8	6.48	7	-6.3	50	-15.0	0	0	1017.6	NA	0.0000		9999	0	0	0	0
2019/05/30 23:48:00	BASE	5.98	8	6.89	11	-6.3	50	-15.0	0	0	1017.6	NA	0.0000		9999	0	0	0	0
2019/05/30 23:49:00	BASE	6.32	13	6.89	12	-6.4	51	-14.9	0	0	1017.6	NA	0.0000		9999	0	0	0	0
2019/05/30 23:50:00	BASE	6.65	15	7.61	18	-6.4	51	-15.0	0	0	1017.7	NA	0.0000		9999	0	0	0	0
2019/05/30 23:51:00	BASE	6.89	16	7.61	18	-6.4	51	-15.0	0	0	1017.6	NA	0.0000		9999	0	0	0	0
2019/05/30 23:52:00	BASE	6.83	18	7.61	19	-6.4	50	-15.1	0	0	1017.7	NA	0.0000		9999	0	0	0	0
2019/05/30 23:53:00	BASE	6.81	19	7.61	19	-6.4	50	-15.2	0	0	1017.7	NA	0.0000		9999	0	0	0	0
2019/05/30 23:54:00	BASE	6.69	19	7.61	19	-6.4	50	-15.2	0	0	1017.7	NA	0.0000		9999	0	0	0	0
2019/05/30 23:55:00	BASE	6.83	20	7.61	19	-6.5	50	-15.2	0	0	1017.7	NA	0.0000		9999	0	0	0	0
2019/05/30 23:56:00	BASE	6.70	21	7.61	19	-6.5	50	-15.2	0	0	1017.7	NA	0.0000		9999	0	0	0	0
2019/05/30 23:57:00	BASE	6.31	22	7.61	19	-6.5	51	-15.1	0	0	1017.7	NA	0.0000		9999	0	0	0	0
2019/05/30 23:58:00	BASE	6.44	22	7.61	19	-6.5	51	-15.0	0	0	1017.7	NA	0.0000		9999	0	0	0	0
2019/05/30 23:59:00	BASE	6.28	22	7.61	19	-6.5	52	-14.8	0	0	1017.7	NA	0.0000		9999	0	0	0	0